Darstellungsparameter: Aktuell verwendete Einstellungen:
Skalierung der Graphiken ... ?
xyx+y,   Skalierungsfaktor:      Skalierung: Modus: x, Faktor: 1
Darstellungszeitraum ... ?
Vom - - bis: - -   Zeitraum: 26.01.2014 - 25.07.2014
Min/Max/Avg-Anzeige ... ?
Zeige MMA aktuell
Zeige MMA Monat
Zeige MMA alles
Zeige --A aktuell
Zeige --A Monat
Zeige --A alles
Keine MMA-Anzeige
MMA:
Minimum Maximum Average (ber die Originaldaten)
MMA-Basis: 26.01.2014 - 25.07.2014
Quicknavigation für Darstellung... ?
Tage:      1T, 2T, 3T, 5T -1T -2T -3T -5T +1T +2T +3T +5T
Wochen: 1W, 2W, 3W -1W -2W -3W +1W +2W +3W
Monate: 1M, 3M, 6M -1M -3M -6M +1M +3M +6M
Jahre:    1J, 3J, 5J, 10J -1J -3J -5J -10J +1J +3J +5J +10J
Nutze für die Darstellung ... ?
Originaldaten oder Mittelwerte auf ...
Stundenbasis Tagesbasis Wochenbasis
Monatsbasis Jahresbasis      Datenbasis: Original-Daten
Darstellen als:
Statistik (Auto) Statistik J:M      Darstellung:
Zur Graphik,    zurück zur Übersicht aller Sensoren.
 
Tabellarische Datenbersicht: ?
 
Sensor: Nr:Datum:Temp:Feuchte:Taupunkt:
Aussen-T/F 1 26-01-2014 00:00:00 3.4 C 91 % 2.07 C
2 26-01-2014 00:05:00 3.3 C 91 % 1.98 C
3 26-01-2014 00:10:00 3.3 C 91 % 1.98 C
4 26-01-2014 00:15:00 3.2 C 92 % 2.03 C
5 26-01-2014 00:20:00 3.1 C 92 % 1.93 C
6 26-01-2014 00:25:00 3 C 93 % 1.98 C
7 26-01-2014 00:30:00 2.9 C 93 % 1.88 C
8 26-01-2014 00:35:00 2.8 C 93 % 1.78 C
9 26-01-2014 00:40:00 2.8 C 94 % 1.93 C
10 26-01-2014 00:45:00 2.8 C 94 % 1.93 C
11 26-01-2014 00:50:00 2.8 C 94 % 1.93 C
12 26-01-2014 00:55:00 2.8 C 94 % 1.93 C
13 26-01-2014 01:00:00 2.9 C 94 % 2.03 C
14 26-01-2014 01:05:00 3 C 94 % 2.13 C
15 26-01-2014 01:10:00 3.1 C 94 % 2.23 C
16 26-01-2014 01:15:00 3.2 C 94 % 2.33 C
17 26-01-2014 01:20:00 3.3 C 94 % 2.43 C
18 26-01-2014 01:25:00 3.5 C 93 % 2.48 C
19 26-01-2014 01:30:00 3.6 C 93 % 2.58 C
20 26-01-2014 01:35:00 3.6 C 93 % 2.58 C
21 26-01-2014 01:40:00 3.7 C 93 % 2.68 C
22 26-01-2014 01:45:00 3.7 C 93 % 2.68 C
23 26-01-2014 01:50:00 3.6 C 93 % 2.58 C
24 26-01-2014 01:55:00 3.6 C 94 % 2.73 C
25 26-01-2014 02:00:00 3.6 C 94 % 2.73 C
Sensor: Nr:Datum:Temp:Feuchte:Taupunkt:
Aussen-T/F 26 26-01-2014 02:05:00 3.6 C 94 % 2.73 C
27 26-01-2014 02:10:00 3.6 C 95 % 2.88 C
28 26-01-2014 02:15:00 3.7 C 94 % 2.83 C
29 26-01-2014 02:20:00 4 C 93 % 2.97 C
30 26-01-2014 02:25:00 4.3 C 91 % 2.96 C
31 26-01-2014 02:30:00 4.6 C 90 % 3.1 C
32 26-01-2014 02:35:00 4.7 C 89 % 3.05 C
33 26-01-2014 02:40:00 4.8 C 88 % 2.99 C
34 26-01-2014 02:45:00 4.8 C 88 % 2.99 C
35 26-01-2014 02:50:00 4.8 C 88 % 2.99 C
36 26-01-2014 02:55:00 4.9 C 88 % 3.08 C
37 26-01-2014 03:00:00 4.9 C 87 % 2.92 C
38 26-01-2014 03:05:00 4.8 C 88 % 2.99 C
39 26-01-2014 03:10:00 4.8 C 88 % 2.99 C
40 26-01-2014 03:15:00 4.8 C 88 % 2.99 C
41 26-01-2014 03:20:00 4.9 C 88 % 3.08 C
42 26-01-2014 03:25:00 5 C 87 % 3.02 C
43 26-01-2014 03:30:00 5.1 C 87 % 3.12 C
44 26-01-2014 03:35:00 5.1 C 86 % 2.96 C
45 26-01-2014 03:40:00 5.2 C 86 % 3.05 C
46 26-01-2014 03:45:00 5.2 C 85 % 2.89 C
47 26-01-2014 03:50:00 5.3 C 85 % 2.99 C
48 26-01-2014 03:55:00 5.4 C 84 % 2.92 C
49 26-01-2014 04:00:00 5.4 C 84 % 2.92 C
50 26-01-2014 04:05:00 5.6 C 83 % 2.95 C
Sensor: Nr:Datum:Temp:Feuchte:Taupunkt:
Aussen-T/F 51 26-01-2014 04:10:00 5.6 C 83 % 2.95 C
52 26-01-2014 04:15:00 5.6 C 84 % 3.12 C
53 26-01-2014 04:20:00 5.4 C 85 % 3.09 C
54 26-01-2014 04:25:00 5.2 C 86 % 3.05 C
55 26-01-2014 04:30:00 5.1 C 87 % 3.12 C
56 26-01-2014 04:35:00 5.1 C 86 % 2.96 C
57 26-01-2014 04:40:00 5.1 C 86 % 2.96 C
58 26-01-2014 04:45:00 5.2 C 85 % 2.89 C
59 26-01-2014 04:50:00 5.4 C 83 % 2.75 C
60 26-01-2014 04:55:00 5.6 C 83 % 2.95 C
61 26-01-2014 05:00:00 5.7 C 82 % 2.87 C
62 26-01-2014 05:05:00 5.8 C 81 % 2.8 C
63 26-01-2014 05:10:00 5.8 C 80 % 2.62 C
64 26-01-2014 05:15:00 5.9 C 80 % 2.72 C
65 26-01-2014 05:20:00 5.9 C 80 % 2.72 C
66 26-01-2014 05:25:00 5.9 C 79 % 2.54 C
67 26-01-2014 05:30:00 5.9 C 80 % 2.72 C
68 26-01-2014 05:35:00 5.9 C 79 % 2.54 C
69 26-01-2014 05:40:00 5.9 C 80 % 2.72 C
70 26-01-2014 05:45:00 6 C 80 % 2.82 C
71 26-01-2014 05:50:00 6 C 79 % 2.64 C
72 26-01-2014 05:55:00 6.1 C 79 % 2.74 C
73 26-01-2014 06:00:00 6.1 C 79 % 2.74 C
74 26-01-2014 06:05:00 6.1 C 79 % 2.74 C
75 26-01-2014 06:10:00 6.1 C 80 % 2.92 C
Sensor: Nr:Datum:Temp:Feuchte:Taupunkt:
Aussen-T/F 76 26-01-2014 06:15:00 6 C 80 % 2.82 C
77 26-01-2014 06:20:00 5.9 C 80 % 2.72 C
78 26-01-2014 06:25:00 6 C 79 % 2.64 C
79 26-01-2014 06:30:00 6.1 C 79 % 2.74 C
80 26-01-2014 06:35:00 6 C 79 % 2.64 C
81 26-01-2014 06:40:00 6 C 79 % 2.64 C
82 26-01-2014 06:45:00 6 C 79 % 2.64 C
83 26-01-2014 06:50:00 6 C 80 % 2.82 C
84 26-01-2014 06:55:00 5.9 C 80 % 2.72 C
85 26-01-2014 07:00:00 5.9 C 80 % 2.72 C
86 26-01-2014 07:05:00 6 C 79 % 2.64 C
87 26-01-2014 07:10:00 6.1 C 79 % 2.74 C
88 26-01-2014 07:15:00 6.1 C 79 % 2.74 C
89 26-01-2014 07:20:00 6.1 C 79 % 2.74 C
90 26-01-2014 07:25:00 6.1 C 78 % 2.56 C
91 26-01-2014 07:30:00 6.1 C 79 % 2.74 C
92 26-01-2014 07:35:00 6.1 C 79 % 2.74 C
93 26-01-2014 07:40:00 6 C 79 % 2.64 C
94 26-01-2014 07:45:00 6 C 80 % 2.82 C
95 26-01-2014 07:50:00 5.9 C 80 % 2.72 C
96 26-01-2014 07:55:00 5.9 C 80 % 2.72 C
97 26-01-2014 08:00:00 5.9 C 79 % 2.54 C
98 26-01-2014 08:05:00 5.9 C 80 % 2.72 C
99 26-01-2014 08:10:00 5.8 C 80 % 2.62 C
100 26-01-2014 08:15:00 5.8 C 80 % 2.62 C
Sensor: Nr:Datum:Temp:Feuchte:Taupunkt:
Aussen-T/F 101 26-01-2014 08:20:00 5.8 C 80 % 2.62 C
102 26-01-2014 08:25:00 5.9 C 80 % 2.72 C
103 26-01-2014 08:30:00 5.8 C 80 % 2.62 C
104 26-01-2014 08:35:00 5.8 C 80 % 2.62 C
105 26-01-2014 08:40:00 5.8 C 80 % 2.62 C
106 26-01-2014 08:45:00 5.7 C 81 % 2.7 C
107 26-01-2014 08:50:00 5.7 C 81 % 2.7 C
108 26-01-2014 08:55:00 5.7 C 81 % 2.7 C
109 26-01-2014 09:00:00 5.6 C 81 % 2.6 C
110 26-01-2014 09:05:00 5.6 C 81 % 2.6 C
111 26-01-2014 09:10:00 5.6 C 80 % 2.43 C
112 26-01-2014 09:15:00 5.7 C 81 % 2.7 C
113 26-01-2014 09:20:00 5.6 C 80 % 2.43 C
114 26-01-2014 09:25:00 5.7 C 80 % 2.53 C
115 26-01-2014 09:30:00 5.7 C 80 % 2.53 C
116 26-01-2014 09:35:00 5.7 C 80 % 2.53 C
117 26-01-2014 09:40:00 5.7 C 80 % 2.53 C
118 26-01-2014 09:45:00 5.7 C 81 % 2.7 C
119 26-01-2014 09:50:00 5.6 C 81 % 2.6 C
120 26-01-2014 09:55:00 5.6 C 81 % 2.6 C
121 26-01-2014 10:00:00 5.6 C 81 % 2.6 C
122 26-01-2014 10:05:00 5.6 C 82 % 2.78 C
123 26-01-2014 10:10:00 5.6 C 82 % 2.78 C
124 26-01-2014 10:15:00 5.6 C 81 % 2.6 C
125 26-01-2014 10:20:00 5.6 C 81 % 2.6 C
Sensor: Nr:Datum:Temp:Feuchte:Taupunkt:
Aussen-T/F 126 26-01-2014 10:25:00 5.7 C 80 % 2.53 C
127 26-01-2014 10:30:00 5.7 C 80 % 2.53 C
128 26-01-2014 10:35:00 5.7 C 80 % 2.53 C
129 26-01-2014 10:40:00 5.7 C 80 % 2.53 C
130 26-01-2014 10:45:00 5.7 C 80 % 2.53 C
131 26-01-2014 10:50:00 5.7 C 80 % 2.53 C
132 26-01-2014 10:55:00 5.7 C 80 % 2.53 C
133 26-01-2014 11:00:00 5.7 C 80 % 2.53 C
134 26-01-2014 11:05:00 5.7 C 79 % 2.35 C
135 26-01-2014 11:10:00 5.7 C 79 % 2.35 C
136 26-01-2014 11:15:00 5.8 C 79 % 2.45 C
137 26-01-2014 11:20:00 5.8 C 80 % 2.62 C
138 26-01-2014 11:25:00 5.8 C 80 % 2.62 C
139 26-01-2014 11:30:00 5.8 C 79 % 2.45 C
140 26-01-2014 11:35:00 5.9 C 80 % 2.72 C
141 26-01-2014 11:40:00 5.9 C 79 % 2.54 C
142 26-01-2014 11:45:00 5.9 C 79 % 2.54 C
143 26-01-2014 11:50:00 6 C 78 % 2.46 C
144 26-01-2014 11:55:00 6 C 77 % 2.28 C
145 26-01-2014 12:00:00 6 C 77 % 2.28 C
146 26-01-2014 12:05:00 6 C 77 % 2.28 C
147 26-01-2014 12:10:00 6.1 C 77 % 2.38 C
148 26-01-2014 12:15:00 6.1 C 76 % 2.2 C
149 26-01-2014 12:20:00 6.1 C 76 % 2.2 C
150 26-01-2014 13:00:00 6.1 C 77 % 2.38 C
Sensor: Nr:Datum:Temp:Feuchte:Taupunkt:
Aussen-T/F 151 26-01-2014 13:05:00 6.2 C 78 % 2.66 C
152 26-01-2014 13:10:00 6.2 C 77 % 2.48 C
153 26-01-2014 13:15:00 6.2 C 77 % 2.48 C
154 26-01-2014 13:20:00 6.1 C 77 % 2.38 C
155 26-01-2014 13:25:00 6.1 C 78 % 2.56 C
156 26-01-2014 13:30:00 6.1 C 78 % 2.56 C
157 26-01-2014 13:35:00 6.1 C 74 % 1.82 C
158 26-01-2014 13:40:00 6.1 C 73 % 1.63 C
159 26-01-2014 13:45:00 6.2 C 73 % 1.73 C
160 26-01-2014 13:50:00 6.2 C 75 % 2.11 C
161 26-01-2014 13:55:00 6.2 C 74 % 1.92 C
162 26-01-2014 14:00:00 6.2 C 74 % 1.92 C
163 26-01-2014 14:05:00 6.2 C 75 % 2.11 C
164 26-01-2014 14:10:00 6.2 C 74 % 1.92 C
165 26-01-2014 14:15:00 6.2 C 75 % 2.11 C
166 26-01-2014 14:20:00 6.2 C 75 % 2.11 C
167 26-01-2014 14:25:00 6.2 C 75 % 2.11 C
168 26-01-2014 14:30:00 6.2 C 74 % 1.92 C
169 26-01-2014 14:35:00 6.2 C 74 % 1.92 C
170 26-01-2014 14:40:00 6.2 C 74 % 1.92 C
171 26-01-2014 14:45:00 6.2 C 75 % 2.11 C
172 26-01-2014 14:50:00 6.2 C 74 % 1.92 C
173 26-01-2014 14:55:00 6.2 C 74 % 1.92 C
174 26-01-2014 15:00:00 6.2 C 74 % 1.92 C
175 26-01-2014 15:05:00 6.2 C 74 % 1.92 C
Sensor: Nr:Datum:Temp:Feuchte:Taupunkt:
Aussen-T/F 176 26-01-2014 15:10:00 6.2 C 74 % 1.92 C
177 26-01-2014 15:15:00 6.2 C 74 % 1.92 C
178 26-01-2014 15:20:00 6.2 C 75 % 2.11 C
179 26-01-2014 15:25:00 6.2 C 74 % 1.92 C
180 26-01-2014 15:30:00 6.2 C 74 % 1.92 C
181 26-01-2014 15:35:00 6.2 C 75 % 2.11 C
182 26-01-2014 15:40:00 6.1 C 75 % 2.01 C
183 26-01-2014 15:45:00 6.1 C 74 % 1.82 C
184 26-01-2014 15:50:00 6.1 C 74 % 1.82 C
185 26-01-2014 15:55:00 6.1 C 74 % 1.82 C
186 26-01-2014 16:00:00 5.9 C 74 % 1.63 C
187 26-01-2014 16:05:00 5.9 C 74 % 1.63 C
188 26-01-2014 16:10:00 5.9 C 74 % 1.63 C
189 26-01-2014 16:15:00 5.9 C 74 % 1.63 C
190 26-01-2014 16:20:00 5.8 C 75 % 1.72 C
191 26-01-2014 16:25:00 5.8 C 73 % 1.34 C
192 26-01-2014 16:30:00 5.8 C 73 % 1.34 C
193 26-01-2014 16:35:00 5.8 C 75 % 1.72 C
194 26-01-2014 16:40:00 5.7 C 75 % 1.62 C
195 26-01-2014 16:45:00 5.7 C 75 % 1.62 C
196 26-01-2014 16:50:00 5.6 C 75 % 1.53 C
197 26-01-2014 16:55:00 5.6 C 78 % 2.07 C
198 26-01-2014 17:00:00 5.6 C 75 % 1.53 C
199 26-01-2014 17:05:00 5.6 C 75 % 1.53 C
200 26-01-2014 17:10:00 5.6 C 76 % 1.71 C
Sensor: Nr:Datum:Temp:Feuchte:Taupunkt:
Aussen-T/F 201 26-01-2014 17:15:00 5.5 C 76 % 1.62 C
202 26-01-2014 17:20:00 5.4 C 76 % 1.52 C
203 26-01-2014 17:25:00 5.5 C 77 % 1.8 C
204 26-01-2014 17:30:00 5.5 C 77 % 1.8 C
205 26-01-2014 17:35:00 5.5 C 77 % 1.8 C
206 26-01-2014 17:40:00 5.5 C 76 % 1.62 C
207 26-01-2014 17:45:00 5.5 C 79 % 2.16 C
208 26-01-2014 17:50:00 5.4 C 78 % 1.88 C
209 26-01-2014 17:55:00 5.4 C 78 % 1.88 C
210 26-01-2014 18:00:00 5.4 C 78 % 1.88 C
211 26-01-2014 18:05:00 5.4 C 78 % 1.88 C
212 26-01-2014 18:10:00 5.4 C 77 % 1.7 C
213 26-01-2014 18:15:00 5.4 C 78 % 1.88 C
214 26-01-2014 18:20:00 5.4 C 79 % 2.06 C
215 26-01-2014 18:25:00 5.3 C 81 % 2.31 C
216 26-01-2014 18:30:00 5.2 C 82 % 2.39 C
217 26-01-2014 18:35:00 5.1 C 81 % 2.12 C
218 26-01-2014 18:40:00 5 C 81 % 2.02 C
219 26-01-2014 18:45:00 5 C 82 % 2.19 C
220 26-01-2014 18:50:00 4.9 C 82 % 2.09 C
221 26-01-2014 18:55:00 4.9 C 82 % 2.09 C
222 26-01-2014 19:00:00 4.9 C 84 % 2.43 C
223 26-01-2014 19:05:00 4.8 C 84 % 2.33 C
224 26-01-2014 19:10:00 4.8 C 84 % 2.33 C
225 26-01-2014 19:15:00 4.8 C 84 % 2.33 C
Sensor: Nr:Datum:Temp:Feuchte:Taupunkt:
Aussen-T/F 226 26-01-2014 19:20:00 4.8 C 84 % 2.33 C
227 26-01-2014 19:25:00 4.8 C 83 % 2.16 C
228 26-01-2014 19:30:00 4.9 C 85 % 2.6 C
229 26-01-2014 19:35:00 4.9 C 84 % 2.43 C
230 26-01-2014 19:40:00 4.9 C 85 % 2.6 C
231 26-01-2014 19:45:00 4.9 C 85 % 2.6 C
232 26-01-2014 19:50:00 4.8 C 85 % 2.5 C
233 26-01-2014 19:55:00 4.8 C 86 % 2.66 C
234 26-01-2014 20:00:00 4.8 C 88 % 2.99 C
235 26-01-2014 20:05:00 4.7 C 89 % 3.05 C
236 26-01-2014 20:10:00 4.6 C 89 % 2.95 C
237 26-01-2014 20:15:00 4.5 C 90 % 3.01 C
238 26-01-2014 20:20:00 4.4 C 91 % 3.06 C
239 26-01-2014 20:25:00 4.3 C 91 % 2.96 C
240 26-01-2014 20:30:00 4.2 C 92 % 3.02 C
241 26-01-2014 20:35:00 4.1 C 92 % 2.92 C
242 26-01-2014 20:40:00 4.1 C 92 % 2.92 C
243 26-01-2014 20:45:00 4 C 92 % 2.82 C
244 26-01-2014 20:50:00 4 C 92 % 2.82 C
245 26-01-2014 20:55:00 3.9 C 93 % 2.87 C
246 26-01-2014 21:00:00 3.9 C 93 % 2.87 C
247 26-01-2014 21:05:00 3.9 C 93 % 2.87 C
248 26-01-2014 21:10:00 3.8 C 93 % 2.77 C
249 26-01-2014 21:15:00 3.8 C 93 % 2.77 C
250 26-01-2014 21:20:00 3.8 C 93 % 2.77 C
Sensor: Nr:Datum:Temp:Feuchte:Taupunkt:
Aussen-T/F 251 26-01-2014 21:25:00 3.7 C 94 % 2.83 C
252 26-01-2014 21:30:00 3.7 C 94 % 2.83 C
253 26-01-2014 21:35:00 3.7 C 94 % 2.83 C
254 26-01-2014 21:40:00 3.7 C 94 % 2.83 C
255 26-01-2014 21:45:00 3.7 C 94 % 2.83 C
256 26-01-2014 21:50:00 3.7 C 94 % 2.83 C
257 26-01-2014 21:55:00 3.7 C 94 % 2.83 C
258 26-01-2014 22:00:00 3.7 C 94 % 2.83 C
259 26-01-2014 22:05:00 3.7 C 94 % 2.83 C
260 26-01-2014 22:10:00 3.7 C 94 % 2.83 C
261 26-01-2014 22:15:00 3.7 C 94 % 2.83 C
262 26-01-2014 22:20:00 3.7 C 94 % 2.83 C
263 26-01-2014 22:25:00 3.7 C 94 % 2.83 C
264 26-01-2014 22:30:00 3.7 C 94 % 2.83 C
265 26-01-2014 22:35:00 3.6 C 94 % 2.73 C
266 26-01-2014 22:40:00 3.6 C 94 % 2.73 C
267 26-01-2014 22:45:00 3.6 C 94 % 2.73 C
268 26-01-2014 22:50:00 3.6 C 94 % 2.73 C
269 26-01-2014 22:55:00 3.7 C 94 % 2.83 C
270 26-01-2014 23:00:00 3.7 C 94 % 2.83 C
271 26-01-2014 23:05:00 3.7 C 94 % 2.83 C
272 26-01-2014 23:10:00 3.7 C 94 % 2.83 C
273 26-01-2014 23:15:00 3.8 C 94 % 2.93 C
274 26-01-2014 23:20:00 3.8 C 94 % 2.93 C
275 26-01-2014 23:25:00 3.8 C 94 % 2.93 C
Sensor: Nr:Datum:Temp:Feuchte:Taupunkt:
Aussen-T/F 276 26-01-2014 23:30:00 3.8 C 94 % 2.93 C
277 26-01-2014 23:35:00 3.8 C 94 % 2.93 C
278 26-01-2014 23:40:00 3.8 C 95 % 3.07 C
279 26-01-2014 23:45:00 3.8 C 94 % 2.93 C
280 26-01-2014 23:50:00 3.8 C 94 % 2.93 C
281 26-01-2014 23:55:00 3.9 C 94 % 3.02 C
282 27-01-2014 00:00:00 4 C 94 % 3.12 C
283 27-01-2014 00:05:00 4.1 C 93 % 3.07 C
284 27-01-2014 00:10:00 4.1 C 93 % 3.07 C
285 27-01-2014 00:15:00 4.1 C 93 % 3.07 C
286 27-01-2014 00:20:00 4.1 C 93 % 3.07 C
287 27-01-2014 00:55:00 4.2 C 94 % 3.32 C
288 27-01-2014 01:00:00 4.2 C 94 % 3.32 C
289 27-01-2014 01:05:00 4.2 C 95 % 3.47 C
290 27-01-2014 01:10:00 4.2 C 95 % 3.47 C
291 27-01-2014 01:15:00 4.2 C 95 % 3.47 C
292 27-01-2014 01:20:00 4.2 C 95 % 3.47 C
293 27-01-2014 01:25:00 4.2 C 95 % 3.47 C
294 27-01-2014 01:30:00 4.3 C 95 % 3.57 C
295 27-01-2014 01:35:00 4.3 C 95 % 3.57 C
296 27-01-2014 01:40:00 4.3 C 95 % 3.57 C
297 27-01-2014 01:45:00 4.3 C 95 % 3.57 C
298 27-01-2014 01:50:00 4.2 C 95 % 3.47 C
299 27-01-2014 01:55:00 4.3 C 95 % 3.57 C
300 27-01-2014 02:00:00 4.3 C 95 % 3.57 C
Sensor: Nr:Datum:Temp:Feuchte:Taupunkt:
Aussen-T/F 301 27-01-2014 02:05:00 4.6 C 96 % 4.02 C
302 27-01-2014 02:10:00 4.6 C 95 % 3.87 C
303 27-01-2014 02:15:00 4.5 C 94 % 3.62 C
304 27-01-2014 02:20:00 4.4 C 94 % 3.52 C
305 27-01-2014 02:25:00 4.2 C 94 % 3.32 C
306 27-01-2014 02:30:00 4.2 C 95 % 3.47 C
307 27-01-2014 02:35:00 4.2 C 95 % 3.47 C
308 27-01-2014 02:40:00 4.2 C 95 % 3.47 C
309 27-01-2014 02:45:00 4.1 C 95 % 3.37 C
310 27-01-2014 02:50:00 4.2 C 96 % 3.62 C
311 27-01-2014 02:55:00 4.3 C 95 % 3.57 C
312 27-01-2014 03:00:00 4.5 C 96 % 3.92 C
313 27-01-2014 03:05:00 4.8 C 95 % 4.07 C
314 27-01-2014 03:10:00 4.9 C 94 % 4.02 C
315 27-01-2014 03:15:00 5.2 C 92 % 4.01 C
316 27-01-2014 03:20:00 5.2 C 91 % 3.85 C
317 27-01-2014 03:25:00 5.3 C 90 % 3.8 C
318 27-01-2014 03:30:00 5.2 C 91 % 3.85 C
319 27-01-2014 03:35:00 5.2 C 91 % 3.85 C
320 27-01-2014 03:40:00 5 C 91 % 3.66 C
321 27-01-2014 03:45:00 4.9 C 91 % 3.56 C
322 27-01-2014 03:50:00 4.9 C 91 % 3.56 C
323 27-01-2014 03:55:00 4.9 C 91 % 3.56 C
324 27-01-2014 04:00:00 4.9 C 90 % 3.4 C
325 27-01-2014 04:05:00 4.8 C 90 % 3.3 C
Sensor: Nr:Datum:Temp:Feuchte:Taupunkt:
Aussen-T/F 326 27-01-2014 04:10:00 4.7 C 90 % 3.2 C
327 27-01-2014 04:15:00 4.5 C 91 % 3.16 C
328 27-01-2014 04:20:00 4.3 C 91 % 2.96 C
329 27-01-2014 04:25:00 4.2 C 91 % 2.87 C
330 27-01-2014 04:30:00 3.9 C 92 % 2.72 C
331 27-01-2014 04:35:00 3.8 C 93 % 2.77 C
332 27-01-2014 04:40:00 3.8 C 94 % 2.93 C
333 27-01-2014 04:45:00 3.8 C 94 % 2.93 C
334 27-01-2014 04:50:00 3.8 C 95 % 3.07 C
335 27-01-2014 04:55:00 3.8 C 95 % 3.07 C
336 27-01-2014 05:00:00 3.9 C 95 % 3.17 C
337 27-01-2014 05:05:00 3.9 C 95 % 3.17 C
338 27-01-2014 05:10:00 3.9 C 95 % 3.17 C
339 27-01-2014 05:15:00 4.2 C 94 % 3.32 C
340 27-01-2014 05:20:00 4.4 C 93 % 3.37 C
341 27-01-2014 05:25:00 4.4 C 91 % 3.06 C
342 27-01-2014 05:30:00 4.4 C 90 % 2.91 C
343 27-01-2014 05:35:00 4.5 C 90 % 3.01 C
344 27-01-2014 05:40:00 4.4 C 90 % 2.91 C
345 27-01-2014 05:45:00 4.4 C 89 % 2.75 C
346 27-01-2014 05:50:00 4.5 C 88 % 2.69 C
347 27-01-2014 05:55:00 4.5 C 88 % 2.69 C
348 27-01-2014 06:00:00 4.5 C 89 % 2.85 C
349 27-01-2014 06:05:00 4.4 C 89 % 2.75 C
350 27-01-2014 06:10:00 4.3 C 90 % 2.81 C
Sensor: Nr:Datum:Temp:Feuchte:Taupunkt:
Aussen-T/F 351 27-01-2014 06:15:00 4.3 C 90 % 2.81 C
352 27-01-2014 06:20:00 4.2 C 90 % 2.71 C
353 27-01-2014 06:25:00 4.2 C 90 % 2.71 C
354 27-01-2014 06:30:00 4.2 C 91 % 2.87 C
355 27-01-2014 06:35:00 4 C 91 % 2.67 C
356 27-01-2014 06:40:00 3.9 C 90 % 2.41 C
357 27-01-2014 06:45:00 3.9 C 90 % 2.41 C
358 27-01-2014 06:50:00 3.8 C 90 % 2.31 C
359 27-01-2014 06:55:00 3.7 C 91 % 2.37 C
360 27-01-2014 07:00:00 3.6 C 91 % 2.27 C
361 27-01-2014 07:05:00 3.4 C 92 % 2.23 C
362 27-01-2014 07:10:00 3.3 C 92 % 2.13 C
363 27-01-2014 07:15:00 3.2 C 92 % 2.03 C
364 27-01-2014 07:20:00 3.1 C 92 % 1.93 C
365 27-01-2014 07:25:00 3 C 93 % 1.98 C
366 27-01-2014 07:30:00 2.8 C 93 % 1.78 C
367 27-01-2014 07:35:00 2.8 C 93 % 1.78 C
368 27-01-2014 07:40:00 2.8 C 94 % 1.93 C
369 27-01-2014 07:45:00 3.1 C 93 % 2.08 C
370 27-01-2014 07:50:00 3.2 C 92 % 2.03 C
371 27-01-2014 07:55:00 3.4 C 90 % 1.92 C
372 27-01-2014 08:00:00 3.6 C 89 % 1.96 C
373 27-01-2014 08:05:00 3.7 C 88 % 1.9 C
374 27-01-2014 08:10:00 3.8 C 88 % 2 C
375 27-01-2014 08:15:00 3.8 C 88 % 2 C
Sensor: Nr:Datum:Temp:Feuchte:Taupunkt:
Aussen-T/F 376 27-01-2014 08:20:00 3.8 C 88 % 2 C
377 27-01-2014 08:25:00 3.8 C 86 % 1.68 C
378 27-01-2014 08:30:00 3.9 C 86 % 1.78 C
379 27-01-2014 08:35:00 4.2 C 86 % 2.07 C
380 27-01-2014 08:40:00 4.2 C 86 % 2.07 C
381 27-01-2014 08:45:00 4.2 C 86 % 2.07 C
382 27-01-2014 08:50:00 4.2 C 86 % 2.07 C
383 27-01-2014 08:55:00 4.1 C 86 % 1.97 C
384 27-01-2014 09:00:00 4.1 C 86 % 1.97 C
385 27-01-2014 09:05:00 4.1 C 86 % 1.97 C
386 27-01-2014 09:10:00 4.1 C 86 % 1.97 C
387 27-01-2014 12:05:00 4.9 C 81 % 1.92 C
388 27-01-2014 12:10:00 5 C 81 % 2.02 C
389 27-01-2014 12:15:00 5.1 C 81 % 2.12 C
390 27-01-2014 12:20:00 5.2 C 81 % 2.21 C
391 27-01-2014 12:25:00 5.3 C 79 % 1.96 C
392 27-01-2014 12:30:00 5.3 C 79 % 1.96 C
393 27-01-2014 12:35:00 5.3 C 78 % 1.78 C
394 27-01-2014 12:40:00 5.2 C 77 % 1.51 C
395 27-01-2014 12:45:00 5.1 C 78 % 1.59 C
396 27-01-2014 12:50:00 5 C 78 % 1.49 C
397 27-01-2014 12:55:00 5 C 79 % 1.67 C
398 27-01-2014 13:00:00 5 C 80 % 1.84 C
399 27-01-2014 13:05:00 4.7 C 85 % 2.4 C
400 27-01-2014 13:10:00 4.3 C 87 % 2.33 C
Sensor: Nr:Datum:Temp:Feuchte:Taupunkt:
Aussen-T/F 401 27-01-2014 13:15:00 4.2 C 88 % 2.39 C
402 27-01-2014 13:20:00 4.2 C 87 % 2.23 C
403 27-01-2014 13:25:00 4.2 C 88 % 2.39 C
404 27-01-2014 13:30:00 4.2 C 89 % 2.55 C
405 27-01-2014 13:35:00 4.3 C 89 % 2.65 C
406 27-01-2014 13:40:00 4.4 C 88 % 2.59 C
407 27-01-2014 13:45:00 4.5 C 87 % 2.53 C
408 27-01-2014 13:50:00 4.7 C 83 % 2.07 C
409 27-01-2014 13:55:00 4.8 C 82 % 1.99 C
410 27-01-2014 14:00:00 4.9 C 80 % 1.75 C
411 27-01-2014 14:05:00 5.1 C 78 % 1.59 C
412 27-01-2014 14:10:00 5.1 C 79 % 1.77 C
413 27-01-2014 14:15:00 5.2 C 79 % 1.86 C
414 27-01-2014 14:20:00 5.2 C 78 % 1.69 C
415 27-01-2014 14:25:00 5.2 C 78 % 1.69 C
416 27-01-2014 14:30:00 5.1 C 79 % 1.77 C
417 27-01-2014 14:35:00 5.1 C 78 % 1.59 C
418 27-01-2014 14:40:00 5.1 C 78 % 1.59 C
419 27-01-2014 14:45:00 5 C 78 % 1.49 C
420 27-01-2014 14:50:00 5 C 78 % 1.49 C
421 27-01-2014 14:55:00 5 C 78 % 1.49 C
422 27-01-2014 15:00:00 5.3 C 79 % 1.96 C
423 27-01-2014 15:05:00 5.3 C 78 % 1.78 C
424 27-01-2014 15:10:00 5.3 C 77 % 1.6 C
425 27-01-2014 15:15:00 5.3 C 77 % 1.6 C
Sensor: Nr:Datum:Temp:Feuchte:Taupunkt:
Aussen-T/F 426 27-01-2014 15:20:00 5.3 C 77 % 1.6 C
427 27-01-2014 15:25:00 5.3 C 76 % 1.42 C
428 27-01-2014 15:30:00 5.3 C 77 % 1.6 C
429 27-01-2014 15:35:00 5.3 C 75 % 1.24 C
430 27-01-2014 15:40:00 5.4 C 76 % 1.52 C
431 27-01-2014 15:45:00 5.3 C 76 % 1.42 C
432 27-01-2014 15:50:00 5.3 C 76 % 1.42 C
433 27-01-2014 15:55:00 5.3 C 75 % 1.24 C
434 27-01-2014 16:00:00 5.2 C 76 % 1.32 C
435 27-01-2014 16:05:00 5.2 C 76 % 1.32 C
436 27-01-2014 16:10:00 5.2 C 76 % 1.32 C
437 27-01-2014 16:15:00 5.1 C 78 % 1.59 C
438 27-01-2014 16:20:00 5.1 C 78 % 1.59 C
439 27-01-2014 16:25:00 5.1 C 78 % 1.59 C
440 27-01-2014 16:30:00 5 C 77 % 1.31 C
441 27-01-2014 16:35:00 5 C 77 % 1.31 C
442 27-01-2014 16:40:00 5 C 76 % 1.13 C
443 27-01-2014 16:45:00 4.9 C 81 % 1.92 C
444 27-01-2014 16:50:00 4.9 C 83 % 2.26 C
445 27-01-2014 16:55:00 4.8 C 83 % 2.16 C
446 27-01-2014 17:00:00 4.7 C 83 % 2.07 C
447 27-01-2014 17:05:00 4.6 C 79 % 1.28 C
448 27-01-2014 17:10:00 4.6 C 80 % 1.46 C
449 27-01-2014 17:15:00 4.6 C 81 % 1.63 C
450 27-01-2014 17:20:00 4.4 C 84 % 1.94 C
Sensor: Nr:Datum:Temp:Feuchte:Taupunkt:
Aussen-T/F 451 27-01-2014 17:25:00 4.3 C 83 % 1.67 C
452 27-01-2014 17:30:00 4.2 C 84 % 1.74 C
453 27-01-2014 17:35:00 4.1 C 84 % 1.65 C
454 27-01-2014 17:40:00 4 C 85 % 1.71 C
455 27-01-2014 17:45:00 3.9 C 86 % 1.78 C
456 27-01-2014 17:50:00 3.9 C 86 % 1.78 C
457 27-01-2014 17:55:00 3.8 C 85 % 1.52 C
458 27-01-2014 18:00:00 3.9 C 82 % 1.12 C
459 27-01-2014 18:05:00 4.2 C 82 % 1.41 C
460 27-01-2014 18:10:00 4.3 C 82 % 1.51 C
461 27-01-2014 18:15:00 4.3 C 81 % 1.34 C
462 27-01-2014 18:20:00 4.3 C 84 % 1.84 C
463 27-01-2014 18:25:00 4.1 C 84 % 1.65 C
464 27-01-2014 18:30:00 4 C 86 % 1.88 C
465 27-01-2014 18:35:00 3.9 C 85 % 1.61 C
466 27-01-2014 18:40:00 3.9 C 84 % 1.45 C
467 27-01-2014 18:45:00 3.9 C 84 % 1.45 C
468 27-01-2014 18:50:00 3.9 C 84 % 1.45 C
469 27-01-2014 21:40:00 4.4 C 100 % 4.4 C
470 27-01-2014 21:45:00 4.4 C 100 % 4.4 C
471 27-01-2014 21:50:00 4.4 C 100 % 4.4 C
472 27-01-2014 21:55:00 4.4 C 100 % 4.4 C
473 28-01-2014 08:30:00 1.4 C 93 % 0.4 C
474 28-01-2014 08:35:00 1.4 C 93 % 0.4 C
475 28-01-2014 08:40:00 1.4 C 93 % 0.4 C
Sensor: Nr:Datum:Temp:Feuchte:Taupunkt:
Aussen-T/F 476 28-01-2014 10:45:00 3.6 C 86 % 1.48 C
477 28-01-2014 10:50:00 3.6 C 85 % 1.32 C
478 28-01-2014 10:55:00 3.7 C 83 % 1.09 C
479 28-01-2014 11:00:00 3.8 C 85 % 1.52 C
480 28-01-2014 11:05:00 3.8 C 85 % 1.52 C
481 28-01-2014 11:10:00 3.7 C 85 % 1.42 C
482 28-01-2014 11:15:00 3.7 C 82 % 0.92 C
483 28-01-2014 11:20:00 3.8 C 84 % 1.35 C
484 28-01-2014 11:25:00 3.7 C 85 % 1.42 C
485 28-01-2014 11:30:00 3.5 C 86 % 1.38 C
486 28-01-2014 11:35:00 3.4 C 88 % 1.61 C
487 28-01-2014 11:40:00 3.5 C 86 % 1.38 C
488 28-01-2014 11:45:00 4.1 C 83 % 1.48 C
489 28-01-2014 11:50:00 4.5 C 80 % 1.36 C
490 28-01-2014 11:55:00 4.8 C 80 % 1.65 C
491 28-01-2014 12:00:00 4.7 C 79 % 1.38 C
492 28-01-2014 12:05:00 4.8 C 78 % 1.3 C
493 28-01-2014 12:10:00 4.9 C 79 % 1.57 C
494 28-01-2014 12:15:00 5.1 C 77 % 1.41 C
495 28-01-2014 12:20:00 5.3 C 78 % 1.78 C
496 28-01-2014 12:25:00 5.4 C 76 % 1.52 C
497 28-01-2014 12:30:00 5.4 C 75 % 1.33 C
498 28-01-2014 12:35:00 5.4 C 75 % 1.33 C
499 28-01-2014 16:00:00 6.6 C 75 % 2.49 C
500 28-01-2014 16:05:00 6.6 C 75 % 2.49 C
Sensor: Nr:Datum:Temp:Feuchte:Taupunkt:
Aussen-T/F 501 28-01-2014 16:10:00 6.6 C 75 % 2.49 C
502 28-01-2014 17:40:00 4.1 C 86 % 1.97 C
503 28-01-2014 17:45:00 3.8 C 86 % 1.68 C
504 28-01-2014 17:50:00 3.6 C 88 % 1.8 C
505 28-01-2014 17:55:00 3.3 C 88 % 1.51 C
506 28-01-2014 18:00:00 3.2 C 89 % 1.57 C
507 28-01-2014 18:05:00 3 C 89 % 1.37 C
508 28-01-2014 18:10:00 2.9 C 89 % 1.27 C
509 28-01-2014 18:15:00 2.9 C 89 % 1.27 C
510 28-01-2014 18:20:00 2.8 C 89 % 1.17 C
511 28-01-2014 18:25:00 2.8 C 89 % 1.17 C
512 28-01-2014 18:30:00 2.7 C 89 % 1.07 C
513 28-01-2014 18:35:00 2.6 C 90 % 1.13 C
514 28-01-2014 18:40:00 2.4 C 90 % 0.93 C
515 28-01-2014 18:45:00 2.4 C 90 % 0.93 C
516 28-01-2014 18:50:00 2.3 C 91 % 0.99 C
517 28-01-2014 18:55:00 2.3 C 90 % 0.83 C
518 28-01-2014 19:00:00 2.2 C 90 % 0.73 C
519 28-01-2014 19:05:00 2.2 C 90 % 0.73 C
520 28-01-2014 19:10:00 2.1 C 90 % 0.64 C
521 28-01-2014 19:15:00 2 C 91 % 0.69 C
522 28-01-2014 19:20:00 1.9 C 91 % 0.59 C
523 28-01-2014 19:25:00 1.9 C 91 % 0.59 C
524 28-01-2014 19:30:00 1.9 C 91 % 0.59 C
525 28-01-2014 19:35:00 1.8 C 91 % 0.49 C
Sensor: Nr:Datum:Temp:Feuchte:Taupunkt:
Aussen-T/F 526 28-01-2014 19:40:00 1.8 C 91 % 0.49 C
527 28-01-2014 19:45:00 1.8 C 91 % 0.49 C
528 28-01-2014 19:50:00 1.8 C 91 % 0.49 C
529 28-01-2014 19:55:00 1.7 C 91 % 0.39 C
530 28-01-2014 20:00:00 1.7 C 92 % 0.54 C
531 28-01-2014 20:05:00 1.7 C 91 % 0.39 C
532 28-01-2014 20:10:00 1.6 C 92 % 0.44 C
533 28-01-2014 20:15:00 1.6 C 92 % 0.44 C
534 28-01-2014 20:20:00 1.5 C 92 % 0.35 C
535 28-01-2014 20:25:00 1.5 C 92 % 0.35 C
536 28-01-2014 20:30:00 1.4 C 92 % 0.25 C
537 28-01-2014 20:35:00 1.4 C 92 % 0.25 C
538 28-01-2014 20:40:00 1.4 C 92 % 0.25 C
539 28-01-2014 20:45:00 1.3 C 92 % 0.15 C
540 28-01-2014 20:50:00 1.3 C 92 % 0.15 C
541 28-01-2014 20:55:00 1.2 C 92 % 0.05 C
542 28-01-2014 21:00:00 1.2 C 92 % 0.05 C
543 28-01-2014 21:05:00 1.2 C 92 % 0.05 C
544 28-01-2014 21:10:00 1.2 C 93 % 0.2 C
545 28-01-2014 21:15:00 1.1 C 93 % 0.1 C
546 28-01-2014 21:20:00 1.1 C 93 % 0.1 C
547 28-01-2014 21:25:00 1.1 C 93 % 0.1 C
548 28-01-2014 21:30:00 1 C 93 % 0 C
549 28-01-2014 21:35:00 1 C 93 % 0 C
550 28-01-2014 21:40:00 0.9 C 93 % -0.1 C
Sensor: Nr:Datum:Temp:Feuchte:Taupunkt:
Aussen-T/F 551 28-01-2014 21:45:00 0.9 C 94 % 0.05 C
552 28-01-2014 21:50:00 0.9 C 93 % -0.1 C
553 28-01-2014 21:55:00 0.9 C 93 % -0.1 C
554 28-01-2014 22:00:00 0.9 C 93 % -0.1 C
555 28-01-2014 22:05:00 0.9 C 93 % -0.1 C
556 28-01-2014 22:10:00 0.9 C 94 % 0.05 C
557 28-01-2014 22:15:00 0.9 C 93 % -0.1 C
558 28-01-2014 22:20:00 0.8 C 94 % -0.05 C
559 28-01-2014 22:25:00 0.8 C 93 % -0.2 C
560 28-01-2014 22:30:00 0.8 C 93 % -0.2 C
561 28-01-2014 22:35:00 0.8 C 93 % -0.2 C
562 28-01-2014 22:40:00 0.8 C 93 % -0.2 C
563 28-01-2014 22:45:00 0.7 C 93 % -0.3 C
564 28-01-2014 22:50:00 0.7 C 93 % -0.3 C
565 28-01-2014 22:55:00 0.7 C 93 % -0.3 C
566 28-01-2014 23:00:00 0.7 C 93 % -0.3 C
567 28-01-2014 23:35:00 0.4 C 100 % 0.4 C
568 28-01-2014 23:40:00 0.4 C 94 % -0.45 C
569 28-01-2014 23:45:00 0.3 C 94 % -0.55 C
570 28-01-2014 23:50:00 0.3 C 94 % -0.55 C
571 28-01-2014 23:55:00 0.2 C 94 % -0.65 C
572 29-01-2014 00:00:00 0.2 C 94 % -0.65 C
573 29-01-2014 00:05:00 0.1 C 94 % -0.75 C
574 29-01-2014 00:10:00 0.2 C 94 % -0.65 C
575 29-01-2014 00:15:00 0.1 C 94 % -0.75 C
Sensor: Nr:Datum:Temp:Feuchte:Taupunkt:
Aussen-T/F 576 29-01-2014 00:20:00 0.2 C 95 % -0.5 C
577 29-01-2014 00:25:00 0.2 C 95 % -0.5 C
578 29-01-2014 00:30:00 0.1 C 94 % -0.75 C
579 29-01-2014 00:35:00 0.1 C 94 % -0.75 C
580 29-01-2014 00:40:00 0.1 C 95 % -0.6 C
581 29-01-2014 00:45:00 0 C 95 % -0.7 C
582 29-01-2014 00:50:00 0 C 95 % -0.7 C
583 29-01-2014 00:55:00 0.1 C 95 % -0.6 C
584 29-01-2014 01:00:00 -0.1 C 94 % -0.95 C
585 29-01-2014 01:05:00 -0.1 C 95 % -0.8 C
586 29-01-2014 01:10:00 -0.2 C 95 % -0.9 C
587 29-01-2014 01:15:00 -0.2 C 95 % -0.9 C
588 29-01-2014 01:20:00 -0.2 C 95 % -0.9 C
589 29-01-2014 01:25:00 -0.2 C 95 % -0.9 C
590 29-01-2014 01:30:00 -0.2 C 95 % -0.9 C
591 29-01-2014 01:35:00 -0.2 C 95 % -0.9 C
592 29-01-2014 01:40:00 -0.3 C 95 % -1 C
593 29-01-2014 01:45:00 -0.3 C 95 % -1 C
594 29-01-2014 01:50:00 -0.3 C 95 % -1 C
595 29-01-2014 01:55:00 -0.2 C 95 % -0.9 C
596 29-01-2014 02:00:00 -0.1 C 95 % -0.8 C
597 29-01-2014 02:05:00 0.1 C 96 % -0.46 C
598 29-01-2014 02:10:00 0.2 C 96 % -0.36 C
599 29-01-2014 02:15:00 0.3 C 96 % -0.26 C
600 29-01-2014 02:20:00 0.4 C 96 % -0.16 C
Sensor: Nr:Datum:Temp:Feuchte:Taupunkt:
Aussen-T/F 601 29-01-2014 02:25:00 0.3 C 95 % -0.4 C
602 29-01-2014 02:30:00 0.3 C 95 % -0.4 C
603 29-01-2014 02:35:00 0.2 C 95 % -0.5 C
604 29-01-2014 02:40:00 0.2 C 95 % -0.5 C
605 29-01-2014 02:45:00 0.2 C 95 % -0.5 C
606 29-01-2014 02:50:00 0.2 C 95 % -0.5 C
607 29-01-2014 02:55:00 0.2 C 95 % -0.5 C
608 29-01-2014 03:00:00 0.2 C 95 % -0.5 C
609 29-01-2014 03:05:00 0.2 C 95 % -0.5 C
610 29-01-2014 04:15:00 1 C 94 % 0.15 C
611 29-01-2014 04:20:00 1.1 C 93 % 0.1 C
612 29-01-2014 04:25:00 1.1 C 93 % 0.1 C
613 29-01-2014 04:30:00 1.2 C 93 % 0.2 C
614 29-01-2014 04:35:00 1.2 C 93 % 0.2 C
615 29-01-2014 04:40:00 1.3 C 92 % 0.15 C
616 29-01-2014 04:45:00 1.3 C 92 % 0.15 C
617 29-01-2014 04:50:00 1.3 C 92 % 0.15 C
618 29-01-2014 04:55:00 1.3 C 91 % 0 C
619 29-01-2014 05:00:00 1.3 C 91 % 0 C
620 29-01-2014 05:05:00 1.4 C 91 % 0.1 C
621 29-01-2014 05:10:00 1.4 C 91 % 0.1 C
622 29-01-2014 07:15:00 1.6 C 87 % -0.32 C
623 29-01-2014 07:20:00 1.6 C 87 % -0.32 C
624 29-01-2014 07:25:00 1.6 C 87 % -0.32 C
625 29-01-2014 07:30:00 1.6 C 87 % -0.32 C
Sensor: Nr:Datum:Temp:Feuchte:Taupunkt:
Aussen-T/F 626 29-01-2014 07:35:00 1.6 C 88 % -0.17 C
627 29-01-2014 07:40:00 1.6 C 88 % -0.17 C
628 29-01-2014 07:45:00 1.6 C 88 % -0.17 C
629 29-01-2014 07:50:00 1.7 C 87 % -0.23 C
630 29-01-2014 07:55:00 1.7 C 87 % -0.23 C
631 29-01-2014 08:00:00 1.7 C 88 % -0.07 C
632 29-01-2014 08:05:00 1.7 C 87 % -0.23 C
633 29-01-2014 08:10:00 1.7 C 86 % -0.38 C
634 29-01-2014 08:15:00 1.7 C 86 % -0.38 C
635 29-01-2014 08:20:00 1.7 C 86 % -0.38 C
636 29-01-2014 08:25:00 1.7 C 86 % -0.38 C
637 29-01-2014 08:30:00 1.8 C 87 % -0.13 C
638 29-01-2014 08:35:00 1.8 C 88 % 0.03 C
639 29-01-2014 08:40:00 1.8 C 88 % 0.03 C
640 29-01-2014 08:45:00 1.8 C 87 % -0.13 C
641 29-01-2014 08:50:00 1.9 C 85 % -0.35 C
642 29-01-2014 08:55:00 1.9 C 86 % -0.19 C
643 29-01-2014 09:00:00 1.9 C 85 % -0.35 C
644 29-01-2014 09:05:00 2 C 85 % -0.25 C
645 29-01-2014 09:10:00 2.1 C 85 % -0.15 C
646 29-01-2014 09:15:00 2.1 C 85 % -0.15 C
647 29-01-2014 09:20:00 2.1 C 85 % -0.15 C
648 29-01-2014 09:25:00 2.1 C 85 % -0.15 C
649 29-01-2014 13:35:00 4 C 76 % 0.16 C
650 29-01-2014 13:40:00 4.1 C 75 % 0.08 C
Sensor: Nr:Datum:Temp:Feuchte:Taupunkt:
Aussen-T/F 651 29-01-2014 13:45:00 4.1 C 75 % 0.08 C
652 29-01-2014 14:45:00 3.9 C 73 % -0.49 C
653 29-01-2014 14:50:00 3.9 C 73 % -0.49 C
654 29-01-2014 14:55:00 3.8 C 75 % -0.21 C
655 29-01-2014 15:00:00 3.8 C 74 % -0.4 C
656 29-01-2014 15:05:00 3.8 C 74 % -0.4 C
657 29-01-2014 16:55:00 2.9 C 76 % -0.9 C
658 29-01-2014 17:20:00 2.8 C 76 % -1 C
659 29-01-2014 17:25:00 2.7 C 76 % -1.1 C
660 29-01-2014 17:30:00 2.7 C 77 % -0.92 C
661 29-01-2014 17:35:00 2.7 C 76 % -1.1 C
662 29-01-2014 17:40:00 2.6 C 79 % -0.67 C
663 29-01-2014 17:45:00 2.6 C 78 % -0.84 C
664 29-01-2014 17:50:00 2.5 C 78 % -0.94 C
665 29-01-2014 17:55:00 2.4 C 78 % -1.03 C
666 29-01-2014 18:00:00 2.4 C 78 % -1.03 C
667 29-01-2014 18:05:00 2.4 C 79 % -0.86 C
668 29-01-2014 18:10:00 2.3 C 80 % -0.79 C
669 29-01-2014 18:15:00 2.2 C 80 % -0.88 C
670 29-01-2014 18:20:00 2.2 C 81 % -0.71 C
671 29-01-2014 18:25:00 2 C 82 % -0.74 C
672 29-01-2014 18:30:00 1.9 C 83 % -0.67 C
673 29-01-2014 18:35:00 1.8 C 83 % -0.77 C
674 29-01-2014 18:40:00 1.8 C 83 % -0.77 C
675 29-01-2014 18:45:00 1.8 C 83 % -0.77 C
Sensor: Nr:Datum:Temp:Feuchte:Taupunkt:
Aussen-T/F 676 29-01-2014 18:50:00 1.7 C 84 % -0.71 C
677 29-01-2014 18:55:00 1.7 C 84 % -0.71 C
678 29-01-2014 19:00:00 1.7 C 85 % -0.54 C
679 29-01-2014 19:05:00 1.6 C 84 % -0.8 C
680 29-01-2014 19:10:00 1.6 C 84 % -0.8 C
681 29-01-2014 19:15:00 1.6 C 83 % -0.97 C
682 29-01-2014 19:20:00 1.7 C 84 % -0.71 C
683 29-01-2014 19:25:00 1.7 C 84 % -0.71 C
684 29-01-2014 19:30:00 1.7 C 84 % -0.71 C
685 29-01-2014 19:35:00 1.8 C 83 % -0.77 C
686 29-01-2014 19:40:00 1.8 C 82 % -0.94 C
687 29-01-2014 19:45:00 1.9 C 83 % -0.67 C
688 29-01-2014 19:50:00 2.1 C 81 % -0.81 C
689 29-01-2014 19:55:00 2.2 C 79 % -1.05 C
690 29-01-2014 20:00:00 2.3 C 80 % -0.79 C
691 29-01-2014 20:05:00 2.4 C 79 % -0.86 C
692 29-01-2014 20:10:00 2.4 C 79 % -0.86 C
693 29-01-2014 20:15:00 2.3 C 80 % -0.79 C
694 29-01-2014 20:20:00 2.3 C 79 % -0.96 C
695 29-01-2014 20:25:00 2.3 C 79 % -0.96 C
696 29-01-2014 20:30:00 2.3 C 79 % -0.96 C
697 29-01-2014 20:35:00 2.2 C 81 % -0.71 C
698 29-01-2014 20:40:00 2.2 C 80 % -0.88 C
699 29-01-2014 20:45:00 2.1 C 80 % -0.98 C
700 29-01-2014 20:50:00 2 C 81 % -0.91 C
Sensor: Nr:Datum:Temp:Feuchte:Taupunkt:
Aussen-T/F 701 29-01-2014 20:55:00 2 C 79 % -1.25 C
702 29-01-2014 21:00:00 2.1 C 79 % -1.15 C
703 29-01-2014 21:05:00 2.1 C 81 % -0.81 C
704 29-01-2014 21:10:00 1.9 C 82 % -0.84 C
705 29-01-2014 21:15:00 1.8 C 83 % -0.77 C
706 29-01-2014 21:20:00 1.7 C 82 % -1.03 C
707 29-01-2014 21:25:00 1.9 C 81 % -1.01 C
708 29-01-2014 21:30:00 1.9 C 82 % -0.84 C
709 29-01-2014 21:35:00 1.9 C 81 % -1.01 C
710 29-01-2014 21:40:00 1.9 C 81 % -1.01 C
711 29-01-2014 21:45:00 1.9 C 81 % -1.01 C
712 29-01-2014 21:50:00 1.9 C 80 % -1.18 C
713 29-01-2014 21:55:00 2.1 C 80 % -0.98 C
714 29-01-2014 22:00:00 2.1 C 81 % -0.81 C
715 29-01-2014 22:05:00 2.1 C 82 % -0.64 C
716 29-01-2014 22:10:00 2 C 82 % -0.74 C
717 29-01-2014 22:15:00 1.9 C 82 % -0.84 C
718 29-01-2014 22:20:00 1.9 C 81 % -1.01 C
719 29-01-2014 22:25:00 2 C 80 % -1.08 C
720 29-01-2014 22:30:00 2 C 82 % -0.74 C
721 29-01-2014 22:35:00 1.9 C 81 % -1.01 C
722 29-01-2014 22:40:00 1.8 C 82 % -0.94 C
723 29-01-2014 22:45:00 1.7 C 83 % -0.87 C
724 29-01-2014 22:50:00 1.6 C 84 % -0.8 C
725 29-01-2014 22:55:00 1.4 C 85 % -0.84 C
Sensor: Nr:Datum:Temp:Feuchte:Taupunkt:
Aussen-T/F 726 29-01-2014 23:00:00 1.3 C 85 % -0.94 C
727 29-01-2014 23:05:00 1.1 C 86 % -0.97 C
728 29-01-2014 23:10:00 1.1 C 87 % -0.82 C
729 29-01-2014 23:15:00 1.2 C 86 % -0.88 C
730 29-01-2014 23:20:00 1.3 C 86 % -0.78 C
731 29-01-2014 23:25:00 1.4 C 85 % -0.84 C
732 29-01-2014 23:30:00 1.6 C 83 % -0.97 C
733 29-01-2014 23:35:00 1.7 C 85 % -0.54 C
734 29-01-2014 23:40:00 1.7 C 85 % -0.54 C
735 29-01-2014 23:45:00 1.7 C 85 % -0.54 C
736 29-01-2014 23:50:00 1.8 C 83 % -0.77 C
737 29-01-2014 23:55:00 1.8 C 83 % -0.77 C
738 30-01-2014 00:00:00 2 C 81 % -0.91 C
739 30-01-2014 00:05:00 2.1 C 82 % -0.64 C
740 30-01-2014 00:10:00 2.1 C 81 % -0.81 C
741 30-01-2014 00:15:00 2.1 C 82 % -0.64 C
742 30-01-2014 00:20:00 2.1 C 81 % -0.81 C
743 30-01-2014 00:25:00 2.1 C 80 % -0.98 C
744 30-01-2014 00:30:00 2.1 C 80 % -0.98 C
745 30-01-2014 00:35:00 2.1 C 83 % -0.48 C
746 30-01-2014 00:40:00 2.1 C 83 % -0.48 C
747 30-01-2014 00:45:00 1.9 C 83 % -0.67 C
748 30-01-2014 00:50:00 1.9 C 84 % -0.51 C
749 30-01-2014 00:55:00 1.8 C 84 % -0.61 C
750 30-01-2014 01:00:00 1.8 C 84 % -0.61 C
Sensor: Nr:Datum:Temp:Feuchte:Taupunkt:
Aussen-T/F 751 30-01-2014 01:05:00 1.8 C 84 % -0.61 C
752 30-01-2014 01:10:00 1.7 C 85 % -0.54 C
753 30-01-2014 01:15:00 1.7 C 85 % -0.54 C
754 30-01-2014 01:20:00 1.7 C 85 % -0.54 C
755 30-01-2014 01:25:00 1.7 C 84 % -0.71 C
756 30-01-2014 01:30:00 1.8 C 83 % -0.77 C
757 30-01-2014 01:35:00 1.8 C 83 % -0.77 C
758 30-01-2014 01:40:00 1.8 C 83 % -0.77 C
759 30-01-2014 01:45:00 1.9 C 84 % -0.51 C
760 30-01-2014 01:50:00 1.9 C 84 % -0.51 C
761 30-01-2014 01:55:00 1.9 C 84 % -0.51 C
762 30-01-2014 02:00:00 1.8 C 84 % -0.61 C
763 30-01-2014 02:05:00 1.8 C 84 % -0.61 C
764 30-01-2014 02:10:00 1.8 C 83 % -0.77 C
765 30-01-2014 02:15:00 1.9 C 85 % -0.35 C
766 30-01-2014 02:20:00 1.9 C 85 % -0.35 C
767 30-01-2014 02:25:00 1.9 C 83 % -0.67 C
768 30-01-2014 02:30:00 1.9 C 83 % -0.67 C
769 30-01-2014 02:35:00 1.9 C 83 % -0.67 C
770 30-01-2014 02:40:00 1.9 C 83 % -0.67 C
771 30-01-2014 02:45:00 1.9 C 83 % -0.67 C
772 30-01-2014 02:50:00 1.9 C 83 % -0.67 C
773 30-01-2014 02:55:00 1.9 C 84 % -0.51 C
774 30-01-2014 03:00:00 1.9 C 83 % -0.67 C
775 30-01-2014 03:05:00 1.9 C 83 % -0.67 C
Sensor: Nr:Datum:Temp:Feuchte:Taupunkt:
Aussen-T/F 776 30-01-2014 03:10:00 1.9 C 83 % -0.67 C
777 30-01-2014 03:15:00 1.9 C 83 % -0.67 C
778 30-01-2014 03:20:00 1.9 C 83 % -0.67 C
779 30-01-2014 03:25:00 1.9 C 83 % -0.67 C
780 30-01-2014 03:30:00 1.9 C 83 % -0.67 C
781 30-01-2014 03:35:00 1.9 C 83 % -0.67 C
782 30-01-2014 03:40:00 1.9 C 83 % -0.67 C
783 30-01-2014 03:45:00 1.9 C 81 % -1.01 C
784 30-01-2014 03:50:00 1.9 C 82 % -0.84 C
785 30-01-2014 03:55:00 1.9 C 81 % -1.01 C
786 30-01-2014 04:00:00 1.9 C 81 % -1.01 C
787 30-01-2014 04:05:00 1.9 C 81 % -1.01 C
788 30-01-2014 04:10:00 1.9 C 81 % -1.01 C
789 30-01-2014 04:15:00 1.9 C 81 % -1.01 C
790 30-01-2014 04:20:00 2 C 82 % -0.74 C
791 30-01-2014 04:25:00 1.9 C 82 % -0.84 C
792 30-01-2014 04:30:00 1.9 C 82 % -0.84 C
793 30-01-2014 04:35:00 1.9 C 83 % -0.67 C
794 30-01-2014 04:40:00 1.9 C 84 % -0.51 C
795 30-01-2014 04:45:00 1.9 C 84 % -0.51 C
796 30-01-2014 04:50:00 1.8 C 83 % -0.77 C
797 30-01-2014 04:55:00 1.8 C 82 % -0.94 C
798 30-01-2014 05:00:00 1.9 C 82 % -0.84 C
799 30-01-2014 05:05:00 1.9 C 83 % -0.67 C
800 30-01-2014 05:10:00 1.9 C 83 % -0.67 C
Sensor: Nr:Datum:Temp:Feuchte:Taupunkt:
Aussen-T/F 801 30-01-2014 05:15:00 1.9 C 82 % -0.84 C
802 30-01-2014 05:20:00 1.9 C 82 % -0.84 C
803 30-01-2014 05:25:00 1.9 C 82 % -0.84 C
804 30-01-2014 05:30:00 1.9 C 83 % -0.67 C
805 30-01-2014 05:35:00 1.9 C 83 % -0.67 C
806 30-01-2014 05:40:00 1.9 C 82 % -0.84 C
807 30-01-2014 05:45:00 1.9 C 83 % -0.67 C
808 30-01-2014 05:50:00 1.9 C 83 % -0.67 C
809 30-01-2014 05:55:00 1.8 C 84 % -0.61 C
810 30-01-2014 06:00:00 1.8 C 84 % -0.61 C
811 30-01-2014 06:05:00 1.8 C 84 % -0.61 C
812 30-01-2014 06:10:00 1.8 C 84 % -0.61 C
813 30-01-2014 06:15:00 1.8 C 84 % -0.61 C
814 30-01-2014 06:20:00 1.6 C 84 % -0.8 C
815 30-01-2014 06:25:00 1.5 C 85 % -0.74 C
816 30-01-2014 06:30:00 1.3 C 85 % -0.94 C
817 30-01-2014 06:35:00 1.2 C 85 % -1.03 C
818 30-01-2014 06:40:00 1.1 C 85 % -1.13 C
819 30-01-2014 06:45:00 0.9 C 85 % -1.33 C
820 30-01-2014 06:50:00 0.8 C 86 % -1.27 C
821 30-01-2014 06:55:00 0.7 C 86 % -1.37 C
822 30-01-2014 07:00:00 0.5 C 87 % -1.41 C
823 30-01-2014 07:05:00 0.4 C 87 % -1.5 C
824 30-01-2014 07:10:00 0.3 C 87 % -1.6 C
825 30-01-2014 07:15:00 0.3 C 87 % -1.6 C
Sensor: Nr:Datum:Temp:Feuchte:Taupunkt:
Aussen-T/F 826 30-01-2014 07:20:00 0.2 C 87 % -1.7 C
827 30-01-2014 07:25:00 0.1 C 88 % -1.65 C
828 30-01-2014 07:30:00 0 C 88 % -1.74 C
829 30-01-2014 07:35:00 0 C 88 % -1.74 C
830 30-01-2014 07:40:00 0 C 89 % -1.59 C
831 30-01-2014 07:45:00 0.1 C 89 % -1.49 C
832 30-01-2014 07:50:00 0.1 C 89 % -1.49 C
833 30-01-2014 07:55:00 0.2 C 89 % -1.39 C
834 30-01-2014 08:00:00 0.3 C 89 % -1.29 C
835 30-01-2014 08:05:00 0.3 C 89 % -1.29 C
836 30-01-2014 08:10:00 0.4 C 89 % -1.2 C
837 30-01-2014 08:15:00 0.4 C 89 % -1.2 C
838 30-01-2014 08:20:00 0.5 C 88 % -1.25 C
839 30-01-2014 08:25:00 0.6 C 88 % -1.15 C
840 30-01-2014 08:30:00 0.6 C 89 % -1 C
841 30-01-2014 08:35:00 0.7 C 89 % -0.9 C
842 30-01-2014 08:40:00 0.7 C 88 % -1.05 C
843 30-01-2014 08:45:00 0.7 C 88 % -1.05 C
844 30-01-2014 08:50:00 0.8 C 87 % -1.11 C
845 30-01-2014 08:55:00 0.8 C 87 % -1.11 C
846 30-01-2014 09:00:00 0.9 C 87 % -1.01 C
847 30-01-2014 09:05:00 0.9 C 87 % -1.01 C
848 30-01-2014 09:10:00 1 C 86 % -1.07 C
849 30-01-2014 09:15:00 1.1 C 86 % -0.97 C
850 30-01-2014 09:20:00 1.1 C 86 % -0.97 C
Sensor: Nr:Datum:Temp:Feuchte:Taupunkt:
Aussen-T/F 851 30-01-2014 09:25:00 1.2 C 85 % -1.03 C
852 30-01-2014 09:30:00 1.3 C 85 % -0.94 C
853 30-01-2014 09:35:00 1.3 C 84 % -1.1 C
854 30-01-2014 09:40:00 1.4 C 85 % -0.84 C
855 30-01-2014 09:45:00 1.4 C 84 % -1 C
856 30-01-2014 09:50:00 1.5 C 83 % -1.06 C
857 30-01-2014 09:55:00 1.6 C 83 % -0.97 C
858 30-01-2014 10:00:00 1.7 C 83 % -0.87 C
859 30-01-2014 10:05:00 1.7 C 82 % -1.03 C
860 30-01-2014 10:10:00 1.8 C 82 % -0.94 C
861 30-01-2014 10:15:00 1.9 C 82 % -0.84 C
862 30-01-2014 10:20:00 2 C 82 % -0.74 C
863 30-01-2014 10:25:00 2.1 C 81 % -0.81 C
864 30-01-2014 10:30:00 2.1 C 80 % -0.98 C
865 30-01-2014 10:35:00 2.2 C 81 % -0.71 C
866 30-01-2014 10:40:00 2.3 C 81 % -0.62 C
867 30-01-2014 10:45:00 2.4 C 80 % -0.69 C
868 30-01-2014 10:50:00 2.5 C 81 % -0.42 C
869 30-01-2014 10:55:00 2.6 C 79 % -0.67 C
870 30-01-2014 11:00:00 2.7 C 79 % -0.57 C
871 30-01-2014 11:05:00 2.8 C 79 % -0.47 C
872 30-01-2014 11:10:00 2.9 C 78 % -0.55 C
873 30-01-2014 11:15:00 3.1 C 78 % -0.35 C
874 30-01-2014 11:20:00 3.1 C 78 % -0.35 C
875 30-01-2014 11:25:00 3.1 C 78 % -0.35 C
Sensor: Nr:Datum:Temp:Feuchte:Taupunkt:
Aussen-T/F 876 30-01-2014 11:30:00 3.1 C 78 % -0.35 C
877 30-01-2014 11:35:00 3.2 C 77 % -0.43 C
878 30-01-2014 11:40:00 3.2 C 77 % -0.43 C
879 30-01-2014 11:45:00 3.2 C 76 % -0.61 C
880 30-01-2014 11:50:00 3.2 C 76 % -0.61 C
881 30-01-2014 11:55:00 3.2 C 77 % -0.43 C
882 30-01-2014 12:00:00 3.2 C 76 % -0.61 C
883 30-01-2014 12:05:00 3.2 C 78 % -0.26 C
884 30-01-2014 12:10:00 3.2 C 78 % -0.26 C
885 30-01-2014 12:15:00 3.2 C 77 % -0.43 C
886 30-01-2014 12:20:00 3.3 C 77 % -0.34 C
887 30-01-2014 12:25:00 3.4 C 76 % -0.42 C
888 30-01-2014 12:30:00 3.5 C 78 % 0.04 C
889 30-01-2014 12:35:00 3.5 C 78 % 0.04 C
890 30-01-2014 12:40:00 3.5 C 78 % 0.04 C
891 30-01-2014 12:45:00 3.5 C 79 % 0.21 C
892 30-01-2014 12:50:00 3.4 C 80 % 0.29 C
893 30-01-2014 12:55:00 3.3 C 80 % 0.19 C
894 30-01-2014 13:00:00 3.4 C 80 % 0.29 C
895 30-01-2014 13:05:00 3.4 C 82 % 0.63 C
896 30-01-2014 13:10:00 3.4 C 82 % 0.63 C
897 30-01-2014 13:15:00 3.5 C 80 % 0.38 C
898 30-01-2014 13:20:00 3.6 C 79 % 0.31 C
899 30-01-2014 13:25:00 3.9 C 77 % 0.25 C
900 30-01-2014 13:30:00 4.2 C 76 % 0.36 C
Sensor: Nr:Datum:Temp:Feuchte:Taupunkt:
Aussen-T/F 901 30-01-2014 13:35:00 4.6 C 75 % 0.56 C
902 30-01-2014 13:40:00 4.6 C 78 % 1.1 C
903 30-01-2014 13:45:00 4.7 C 74 % 0.47 C
904 30-01-2014 13:50:00 4.9 C 73 % 0.48 C
905 30-01-2014 13:55:00 5.1 C 72 % 0.48 C
906 30-01-2014 14:00:00 5.2 C 72 % 0.58 C
907 30-01-2014 14:05:00 5.4 C 72 % 0.77 C
908 30-01-2014 14:10:00 5.5 C 72 % 0.86 C
909 30-01-2014 14:15:00 5.5 C 70 % 0.48 C
910 30-01-2014 14:20:00 5.5 C 72 % 0.86 C
911 30-01-2014 14:25:00 5.4 C 72 % 0.77 C
912 30-01-2014 14:30:00 5.4 C 74 % 1.15 C
913 30-01-2014 14:35:00 5.3 C 76 % 1.42 C
914 30-01-2014 14:40:00 5.2 C 75 % 1.14 C
915 30-01-2014 14:45:00 5.3 C 72 % 0.67 C
916 30-01-2014 14:50:00 5.4 C 74 % 1.15 C
917 30-01-2014 14:55:00 5.2 C 78 % 1.69 C
918 30-01-2014 15:00:00 5.1 C 77 % 1.41 C
919 30-01-2014 15:05:00 4.8 C 79 % 1.47 C
920 30-01-2014 15:10:00 4.7 C 80 % 1.55 C
921 30-01-2014 15:15:00 4.7 C 80 % 1.55 C
922 30-01-2014 15:20:00 4.8 C 79 % 1.47 C
923 30-01-2014 15:25:00 4.7 C 82 % 1.9 C
924 30-01-2014 15:30:00 4.7 C 81 % 1.73 C
925 30-01-2014 15:35:00 4.7 C 82 % 1.9 C
Sensor: Nr:Datum:Temp:Feuchte:Taupunkt:
Aussen-T/F 926 30-01-2014 15:40:00 4.8 C 81 % 1.82 C
927 30-01-2014 15:45:00 4.8 C 82 % 1.99 C
928 30-01-2014 15:50:00 4.8 C 78 % 1.3 C
929 30-01-2014 15:55:00 4.8 C 80 % 1.65 C
930 30-01-2014 16:00:00 4.9 C 81 % 1.92 C
931 30-01-2014 16:05:00 4.8 C 81 % 1.82 C
932 30-01-2014 16:10:00 4.7 C 82 % 1.9 C
933 30-01-2014 16:15:00 4.7 C 82 % 1.9 C
934 30-01-2014 16:20:00 4.6 C 83 % 1.97 C
935 30-01-2014 16:25:00 4.5 C 82 % 1.7 C
936 30-01-2014 16:30:00 4.4 C 82 % 1.6 C
937 30-01-2014 16:35:00 4.3 C 83 % 1.67 C
938 30-01-2014 16:40:00 4.1 C 84 % 1.65 C
939 30-01-2014 16:45:00 3.9 C 83 % 1.28 C
940 30-01-2014 16:50:00 3.7 C 84 % 1.25 C
941 30-01-2014 16:55:00 3.4 C 85 % 1.12 C
942 30-01-2014 17:00:00 3.2 C 85 % 0.93 C
943 30-01-2014 17:05:00 3.1 C 85 % 0.83 C
944 30-01-2014 17:10:00 2.9 C 86 % 0.8 C
945 30-01-2014 17:15:00 2.8 C 86 % 0.7 C
946 30-01-2014 17:20:00 2.7 C 86 % 0.6 C
947 30-01-2014 17:25:00 2.6 C 86 % 0.5 C
948 30-01-2014 17:30:00 2.4 C 87 % 0.46 C
949 30-01-2014 17:35:00 2.3 C 87 % 0.36 C
950 30-01-2014 17:40:00 2.2 C 87 % 0.27 C
Sensor: Nr:Datum:Temp:Feuchte:Taupunkt:
Aussen-T/F 951 30-01-2014 17:45:00 2.1 C 87 % 0.17 C
952 30-01-2014 17:50:00 2 C 87 % 0.07 C
953 30-01-2014 17:55:00 1.9 C 88 % 0.13 C
954 30-01-2014 18:00:00 1.8 C 88 % 0.03 C
955 30-01-2014 18:05:00 1.8 C 88 % 0.03 C
956 30-01-2014 18:10:00 1.7 C 88 % -0.07 C
957 30-01-2014 18:15:00 1.6 C 88 % -0.17 C
958 30-01-2014 18:20:00 1.6 C 89 % -0.01 C
959 30-01-2014 18:25:00 1.6 C 88 % -0.17 C
960 30-01-2014 18:30:00 1.6 C 88 % -0.17 C
961 30-01-2014 18:35:00 1.5 C 89 % -0.11 C
962 30-01-2014 18:40:00 1.4 C 89 % -0.21 C
963 30-01-2014 18:45:00 1.4 C 90 % -0.06 C
964 30-01-2014 18:50:00 1.3 C 90 % -0.15 C
965 30-01-2014 18:55:00 1.2 C 89 % -0.41 C
966 30-01-2014 19:00:00 1.2 C 89 % -0.41 C
967 30-01-2014 19:05:00 1.1 C 90 % -0.35 C
968 30-01-2014 19:10:00 1.1 C 90 % -0.35 C
969 30-01-2014 19:15:00 1 C 90 % -0.45 C
970 30-01-2014 19:20:00 0.9 C 89 % -0.7 C
971 30-01-2014 19:25:00 0.9 C 90 % -0.55 C
972 30-01-2014 19:30:00 0.8 C 90 % -0.65 C
973 30-01-2014 19:35:00 0.8 C 90 % -0.65 C
974 30-01-2014 19:40:00 0.8 C 90 % -0.65 C
975 30-01-2014 19:45:00 0.8 C 90 % -0.65 C
Sensor: Nr:Datum:Temp:Feuchte:Taupunkt:
Aussen-T/F 976 30-01-2014 19:50:00 0.8 C 90 % -0.65 C
977 30-01-2014 19:55:00 0.8 C 90 % -0.65 C
978 30-01-2014 20:00:00 0.7 C 90 % -0.75 C
979 30-01-2014 20:05:00 0.7 C 90 % -0.75 C
980 30-01-2014 20:10:00 0.7 C 90 % -0.75 C
981 30-01-2014 20:15:00 0.7 C 90 % -0.75 C
982 30-01-2014 20:20:00 0.6 C 90 % -0.85 C
983 30-01-2014 20:25:00 0.7 C 90 % -0.75 C
984 30-01-2014 20:30:00 0.6 C 90 % -0.85 C
985 30-01-2014 20:35:00 0.6 C 90 % -0.85 C
986 30-01-2014 20:40:00 0.5 C 90 % -0.95 C
987 30-01-2014 20:45:00 0.4 C 90 % -1.04 C
988 30-01-2014 20:50:00 0.4 C 90 % -1.04 C
989 30-01-2014 20:55:00 0.4 C 90 % -1.04 C
990 30-01-2014 21:00:00 0.4 C 90 % -1.04 C
991 30-01-2014 21:05:00 0.3 C 90 % -1.14 C
992 30-01-2014 21:10:00 0.3 C 90 % -1.14 C
993 30-01-2014 21:15:00 0.3 C 90 % -1.14 C
994 30-01-2014 21:20:00 0.3 C 90 % -1.14 C
995 30-01-2014 21:25:00 0.2 C 90 % -1.24 C
996 30-01-2014 21:30:00 0.2 C 90 % -1.24 C
997 30-01-2014 21:35:00 0.2 C 90 % -1.24 C
998 30-01-2014 21:40:00 0.2 C 90 % -1.24 C
999 30-01-2014 21:45:00 0.1 C 90 % -1.34 C
1000 30-01-2014 21:50:00 0.1 C 90 % -1.34 C
Sensor: Nr:Datum:Temp:Feuchte:Taupunkt:
Aussen-T/F 1001 30-01-2014 21:55:00 0.1 C 90 % -1.34 C
1002 30-01-2014 22:00:00 0.1 C 90 % -1.34 C
1003 30-01-2014 22:05:00 0.1 C 90 % -1.34 C
1004 30-01-2014 22:10:00 0.1 C 90 % -1.34 C
1005 30-01-2014 22:15:00 0.1 C 90 % -1.34 C
1006 30-01-2014 22:20:00 0 C 90 % -1.44 C
1007 30-01-2014 22:25:00 0 C 91 % -1.29 C
1008 30-01-2014 22:30:00 -0.1 C 91 % -1.39 C
1009 30-01-2014 22:35:00 -0.1 C 91 % -1.39 C
1010 30-01-2014 22:40:00 -0.1 C 92 % -1.24 C
1011 30-01-2014 22:45:00 -0.1 C 92 % -1.24 C
1012 30-01-2014 22:50:00 0 C 92 % -1.14 C
1013 30-01-2014 22:55:00 0 C 92 % -1.14 C
1014 30-01-2014 23:00:00 0 C 92 % -1.14 C
1015 30-01-2014 23:05:00 0 C 92 % -1.14 C
1016 30-01-2014 23:10:00 0 C 92 % -1.14 C
1017 30-01-2014 23:15:00 0 C 92 % -1.14 C
1018 30-01-2014 23:20:00 0 C 92 % -1.14 C
1019 30-01-2014 23:25:00 0 C 92 % -1.14 C
1020 30-01-2014 23:30:00 0 C 92 % -1.14 C
1021 30-01-2014 23:35:00 0.1 C 92 % -1.04 C
1022 30-01-2014 23:40:00 0.1 C 92 % -1.04 C
1023 30-01-2014 23:45:00 0.1 C 92 % -1.04 C
1024 30-01-2014 23:50:00 0.2 C 92 % -0.94 C
1025 30-01-2014 23:55:00 0.2 C 92 % -0.94 C
Sensor: Nr:Datum:Temp:Feuchte:Taupunkt:
Aussen-T/F 1026 31-01-2014 00:00:00 0.2 C 92 % -0.94 C
1027 31-01-2014 00:05:00 0.2 C 92 % -0.94 C
1028 31-01-2014 00:10:00 0.2 C 92 % -0.94 C
1029 31-01-2014 00:15:00 0.2 C 92 % -0.94 C
1030 31-01-2014 00:20:00 0.2 C 92 % -0.94 C
1031 31-01-2014 00:25:00 0.2 C 92 % -0.94 C
1032 31-01-2014 00:30:00 0.2 C 92 % -0.94 C
1033 31-01-2014 00:35:00 0.2 C 92 % -0.94 C
1034 31-01-2014 00:40:00 0.3 C 92 % -0.84 C
1035 31-01-2014 00:45:00 0.3 C 92 % -0.84 C
1036 31-01-2014 00:50:00 0.3 C 92 % -0.84 C
1037 31-01-2014 00:55:00 0.3 C 92 % -0.84 C
1038 31-01-2014 01:00:00 0.3 C 92 % -0.84 C
1039 31-01-2014 01:05:00 0.3 C 92 % -0.84 C
1040 31-01-2014 01:10:00 0.3 C 92 % -0.84 C
1041 31-01-2014 01:15:00 0.3 C 92 % -0.84 C
1042 31-01-2014 01:20:00 0.3 C 91 % -0.99 C
1043 31-01-2014 01:25:00 0.4 C 91 % -0.89 C
1044 31-01-2014 01:30:00 0.4 C 91 % -0.89 C
1045 31-01-2014 01:35:00 0.4 C 91 % -0.89 C
1046 31-01-2014 01:40:00 0.4 C 91 % -0.89 C
1047 31-01-2014 01:45:00 0.3 C 91 % -0.99 C
1048 31-01-2014 01:50:00 0.3 C 91 % -0.99 C
1049 31-01-2014 01:55:00 0.3 C 91 % -0.99 C
1050 31-01-2014 02:00:00 0.2 C 91 % -1.09 C
Sensor: Nr:Datum:Temp:Feuchte:Taupunkt:
Aussen-T/F 1051 31-01-2014 02:05:00 0.2 C 91 % -1.09 C
1052 31-01-2014 02:10:00 0.2 C 91 % -1.09 C
1053 31-01-2014 02:15:00 0.2 C 91 % -1.09 C
1054 31-01-2014 02:20:00 0.2 C 92 % -0.94 C
1055 31-01-2014 02:25:00 0.2 C 92 % -0.94 C
1056 31-01-2014 02:30:00 0.3 C 91 % -0.99 C
1057 31-01-2014 02:35:00 0.3 C 91 % -0.99 C
1058 31-01-2014 02:40:00 0.3 C 91 % -0.99 C
1059 31-01-2014 02:45:00 0.3 C 91 % -0.99 C
1060 31-01-2014 02:50:00 0.2 C 91 % -1.09 C
1061 31-01-2014 02:55:00 0.1 C 91 % -1.19 C
1062 31-01-2014 03:00:00 0.1 C 91 % -1.19 C
1063 31-01-2014 03:05:00 -0.1 C 91 % -1.39 C
1064 31-01-2014 03:10:00 -0.2 C 91 % -1.49 C
1065 31-01-2014 03:15:00 -0.2 C 91 % -1.49 C
1066 31-01-2014 03:20:00 -0.2 C 91 % -1.49 C
1067 31-01-2014 03:25:00 -0.1 C 91 % -1.39 C
1068 31-01-2014 03:30:00 -0.1 C 92 % -1.24 C
1069 31-01-2014 03:35:00 0 C 92 % -1.14 C
1070 31-01-2014 03:40:00 0.1 C 92 % -1.04 C
1071 31-01-2014 03:45:00 0.1 C 91 % -1.19 C
1072 31-01-2014 03:50:00 0.2 C 91 % -1.09 C
1073 31-01-2014 03:55:00 0.2 C 91 % -1.09 C
1074 31-01-2014 04:00:00 0.2 C 91 % -1.09 C
1075 31-01-2014 04:05:00 0.2 C 91 % -1.09 C
Sensor: Nr:Datum:Temp:Feuchte:Taupunkt:
Aussen-T/F 1076 31-01-2014 04:10:00 0.2 C 91 % -1.09 C
1077 31-01-2014 04:15:00 0.3 C 91 % -0.99 C
1078 31-01-2014 04:20:00 0.3 C 91 % -0.99 C
1079 31-01-2014 04:25:00 0.3 C 91 % -0.99 C
1080 31-01-2014 04:30:00 0.3 C 91 % -0.99 C
1081 31-01-2014 04:35:00 0.3 C 91 % -0.99 C
1082 31-01-2014 04:40:00 0.3 C 91 % -0.99 C
1083 31-01-2014 04:45:00 0.3 C 91 % -0.99 C
1084 31-01-2014 04:50:00 0.3 C 91 % -0.99 C
1085 31-01-2014 04:55:00 0.3 C 91 % -0.99 C
1086 31-01-2014 05:00:00 0.3 C 91 % -0.99 C
1087 31-01-2014 05:05:00 0.3 C 91 % -0.99 C
1088 31-01-2014 05:10:00 0.3 C 91 % -0.99 C
1089 31-01-2014 05:15:00 0.3 C 91 % -0.99 C
1090 31-01-2014 05:20:00 0.2 C 91 % -1.09 C
1091 31-01-2014 05:25:00 0.2 C 91 % -1.09 C
1092 31-01-2014 05:30:00 0.1 C 91 % -1.19 C
1093 31-01-2014 05:35:00 0 C 91 % -1.29 C
1094 31-01-2014 05:40:00 -0.1 C 91 % -1.39 C
1095 31-01-2014 05:45:00 0 C 91 % -1.29 C
1096 31-01-2014 05:50:00 0 C 91 % -1.29 C
1097 31-01-2014 05:55:00 0 C 91 % -1.29 C
1098 31-01-2014 06:00:00 0.1 C 91 % -1.19 C
1099 31-01-2014 06:05:00 0 C 91 % -1.29 C
1100 31-01-2014 06:10:00 -0.1 C 91 % -1.39 C
Sensor: Nr:Datum:Temp:Feuchte:Taupunkt:
Aussen-T/F 1101 31-01-2014 06:15:00 -0.1 C 91 % -1.39 C
1102 31-01-2014 06:20:00 -0.2 C 91 % -1.49 C
1103 31-01-2014 06:25:00 -0.3 C 91 % -1.59 C
1104 31-01-2014 06:30:00 -0.3 C 92 % -1.44 C
1105 31-01-2014 06:35:00 -0.4 C 92 % -1.54 C
1106 31-01-2014 06:40:00 -0.4 C 92 % -1.54 C
1107 31-01-2014 06:45:00 -0.5 C 93 % -1.49 C
1108 31-01-2014 06:50:00 -0.6 C 92 % -1.74 C
1109 31-01-2014 06:55:00 -0.6 C 93 % -1.59 C
1110 31-01-2014 07:00:00 -0.7 C 93 % -1.69 C
1111 31-01-2014 07:05:00 -0.8 C 93 % -1.79 C
1112 31-01-2014 07:10:00 -0.8 C 93 % -1.79 C
1113 31-01-2014 07:15:00 -0.8 C 93 % -1.79 C
1114 31-01-2014 07:20:00 -0.8 C 93 % -1.79 C
1115 31-01-2014 07:25:00 -0.9 C 93 % -1.89 C
1116 31-01-2014 07:30:00 -1 C 93 % -1.99 C
1117 31-01-2014 07:35:00 -1.1 C 93 % -2.09 C
1118 31-01-2014 07:40:00 -1.1 C 94 % -1.94 C
1119 31-01-2014 07:45:00 -1.1 C 93 % -2.09 C
1120 31-01-2014 07:50:00 -1.1 C 93 % -2.09 C
1121 31-01-2014 07:55:00 -1.2 C 94 % -2.04 C
1122 31-01-2014 08:00:00 -1.2 C 94 % -2.04 C
1123 31-01-2014 08:05:00 -1.2 C 94 % -2.04 C
1124 31-01-2014 08:10:00 -1.1 C 94 % -1.94 C
1125 31-01-2014 08:15:00 -1.2 C 93 % -2.18 C
Sensor: Nr:Datum:Temp:Feuchte:Taupunkt:
Aussen-T/F 1126 31-01-2014 08:20:00 -1.1 C 93 % -2.09 C
1127 31-01-2014 08:25:00 -1.1 C 93 % -2.09 C
1128 31-01-2014 08:30:00 -1.1 C 93 % -2.09 C
1129 31-01-2014 08:35:00 -1.1 C 93 % -2.09 C
1130 31-01-2014 08:40:00 -1.1 C 93 % -2.09 C
1131 31-01-2014 08:45:00 -1.2 C 93 % -2.18 C
1132 31-01-2014 08:50:00 -1.2 C 93 % -2.18 C
1133 31-01-2014 08:55:00 -1.2 C 94 % -2.04 C
1134 31-01-2014 09:00:00 -1.2 C 94 % -2.04 C
1135 31-01-2014 09:05:00 -1.1 C 94 % -1.94 C
1136 31-01-2014 09:10:00 -1.1 C 94 % -1.94 C
1137 31-01-2014 09:15:00 -1.1 C 94 % -1.94 C
1138 31-01-2014 09:20:00 -1.1 C 94 % -1.94 C
1139 31-01-2014 09:25:00 -1.1 C 94 % -1.94 C
1140 31-01-2014 09:30:00 -1.1 C 94 % -1.94 C
1141 31-01-2014 09:35:00 -1.1 C 94 % -1.94 C
1142 31-01-2014 09:40:00 -1.1 C 94 % -1.94 C
1143 31-01-2014 09:45:00 -1 C 94 % -1.84 C
1144 31-01-2014 09:50:00 -0.9 C 94 % -1.74 C
1145 31-01-2014 09:55:00 -0.9 C 95 % -1.6 C
1146 31-01-2014 10:00:00 -0.8 C 94 % -1.64 C
1147 31-01-2014 10:05:00 -0.8 C 94 % -1.64 C
1148 31-01-2014 10:10:00 -0.7 C 95 % -1.4 C
1149 31-01-2014 10:15:00 -0.7 C 94 % -1.54 C
1150 31-01-2014 10:20:00 -0.6 C 95 % -1.3 C
Sensor: Nr:Datum:Temp:Feuchte:Taupunkt:
Aussen-T/F 1151 31-01-2014 10:25:00 -0.6 C 94 % -1.44 C
1152 31-01-2014 10:30:00 -0.4 C 94 % -1.25 C
1153 31-01-2014 10:35:00 -0.4 C 94 % -1.25 C
1154 31-01-2014 10:40:00 -0.3 C 94 % -1.15 C
1155 31-01-2014 10:45:00 -0.3 C 94 % -1.15 C
1156 31-01-2014 10:50:00 -0.2 C 94 % -1.05 C
1157 31-01-2014 10:55:00 -0.2 C 94 % -1.05 C
1158 31-01-2014 11:00:00 -0.1 C 94 % -0.95 C
1159 31-01-2014 11:05:00 0 C 94 % -0.85 C
1160 31-01-2014 11:10:00 0.1 C 94 % -0.75 C
1161 31-01-2014 11:15:00 0.1 C 94 % -0.75 C
1162 31-01-2014 11:20:00 0.2 C 94 % -0.65 C
1163 31-01-2014 11:25:00 0.3 C 94 % -0.55 C
1164 31-01-2014 11:30:00 0.3 C 94 % -0.55 C
1165 31-01-2014 11:35:00 0.4 C 94 % -0.45 C
1166 31-01-2014 11:40:00 0.6 C 94 % -0.25 C
1167 31-01-2014 11:45:00 0.7 C 93 % -0.3 C
1168 31-01-2014 11:50:00 0.8 C 93 % -0.2 C
1169 31-01-2014 11:55:00 0.8 C 93 % -0.2 C
1170 31-01-2014 12:00:00 0.9 C 93 % -0.1 C
1171 31-01-2014 12:05:00 1 C 93 % 0 C
1172 31-01-2014 12:10:00 1.1 C 92 % -0.05 C
1173 31-01-2014 12:15:00 1.2 C 92 % 0.05 C
1174 31-01-2014 12:20:00 1.3 C 92 % 0.15 C
1175 31-01-2014 12:25:00 1.3 C 92 % 0.15 C
Sensor: Nr:Datum:Temp:Feuchte:Taupunkt:
Aussen-T/F 1176 31-01-2014 12:30:00 1.4 C 92 % 0.25 C
1177 31-01-2014 12:35:00 1.5 C 91 % 0.19 C
1178 31-01-2014 12:40:00 1.6 C 92 % 0.44 C
1179 31-01-2014 12:45:00 1.6 C 91 % 0.29 C
1180 31-01-2014 12:50:00 1.7 C 91 % 0.39 C
1181 31-01-2014 12:55:00 1.7 C 91 % 0.39 C
1182 31-01-2014 13:00:00 1.8 C 90 % 0.34 C
1183 31-01-2014 13:05:00 1.9 C 90 % 0.44 C
1184 31-01-2014 13:10:00 1.9 C 90 % 0.44 C
1185 31-01-2014 13:15:00 1.9 C 90 % 0.44 C
1186 31-01-2014 13:20:00 2.1 C 91 % 0.79 C
1187 31-01-2014 13:25:00 2.1 C 90 % 0.64 C
1188 31-01-2014 13:30:00 2.2 C 90 % 0.73 C
1189 31-01-2014 13:35:00 2.2 C 90 % 0.73 C
1190 31-01-2014 13:40:00 2.3 C 90 % 0.83 C
1191 31-01-2014 13:45:00 2.4 C 90 % 0.93 C
1192 31-01-2014 13:50:00 2.5 C 90 % 1.03 C
1193 31-01-2014 13:55:00 2.6 C 90 % 1.13 C
1194 31-01-2014 14:00:00 2.6 C 90 % 1.13 C
1195 31-01-2014 14:05:00 2.6 C 90 % 1.13 C
1196 31-01-2014 14:10:00 2.7 C 89 % 1.07 C
1197 31-01-2014 14:15:00 2.7 C 90 % 1.23 C
1198 31-01-2014 14:20:00 2.8 C 90 % 1.33 C
1199 31-01-2014 14:25:00 2.8 C 90 % 1.33 C
1200 31-01-2014 14:30:00 2.9 C 89 % 1.27 C
Sensor: Nr:Datum:Temp:Feuchte:Taupunkt:
Aussen-T/F 1201 31-01-2014 14:35:00 3 C 89 % 1.37 C
1202 31-01-2014 14:40:00 3.2 C 89 % 1.57 C
1203 31-01-2014 14:45:00 3.2 C 89 % 1.57 C
1204 31-01-2014 14:50:00 3.2 C 89 % 1.57 C
1205 31-01-2014 14:55:00 3.3 C 89 % 1.67 C
1206 31-01-2014 15:00:00 3.4 C 88 % 1.61 C
1207 31-01-2014 15:05:00 3.4 C 88 % 1.61 C
1208 31-01-2014 15:10:00 3.6 C 88 % 1.8 C
1209 31-01-2014 15:15:00 3.6 C 88 % 1.8 C
1210 31-01-2014 15:20:00 3.6 C 88 % 1.8 C
1211 31-01-2014 15:25:00 3.6 C 88 % 1.8 C
1212 31-01-2014 15:30:00 3.7 C 88 % 1.9 C
1213 31-01-2014 15:35:00 3.8 C 88 % 2 C
1214 31-01-2014 15:40:00 3.8 C 87 % 1.84 C
1215 31-01-2014 15:45:00 3.8 C 87 % 1.84 C
1216 31-01-2014 15:50:00 3.8 C 87 % 1.84 C
1217 31-01-2014 15:55:00 3.8 C 88 % 2 C
1218 31-01-2014 16:00:00 3.9 C 86 % 1.78 C
1219 31-01-2014 16:05:00 4.1 C 86 % 1.97 C
1220 31-01-2014 16:10:00 4.2 C 85 % 1.91 C
1221 31-01-2014 16:15:00 4.3 C 85 % 2.01 C
1222 31-01-2014 16:20:00 4.2 C 85 % 1.91 C
1223 31-01-2014 16:25:00 4.1 C 85 % 1.81 C
1224 31-01-2014 16:30:00 4 C 85 % 1.71 C
1225 31-01-2014 16:35:00 4.1 C 85 % 1.81 C
Sensor: Nr:Datum:Temp:Feuchte:Taupunkt:
Aussen-T/F 1226 31-01-2014 16:40:00 3.9 C 85 % 1.61 C
1227 31-01-2014 16:45:00 3.7 C 86 % 1.58 C
1228 31-01-2014 16:50:00 3.6 C 87 % 1.64 C
1229 31-01-2014 16:55:00 3.4 C 87 % 1.45 C
1230 31-01-2014 17:00:00 3.4 C 87 % 1.45 C
1231 31-01-2014 17:05:00 3.3 C 87 % 1.35 C
1232 31-01-2014 17:10:00 3.4 C 86 % 1.29 C
1233 31-01-2014 17:15:00 3.7 C 85 % 1.42 C
1234 31-01-2014 17:20:00 3.6 C 85 % 1.32 C
1235 31-01-2014 17:25:00 3.7 C 84 % 1.25 C
1236 31-01-2014 17:30:00 3.6 C 84 % 1.16 C
1237 31-01-2014 17:35:00 3.3 C 85 % 1.03 C
1238 31-01-2014 17:40:00 3.1 C 86 % 0.99 C
1239 31-01-2014 17:45:00 2.9 C 87 % 0.96 C
1240 31-01-2014 17:50:00 2.9 C 87 % 0.96 C
1241 31-01-2014 17:55:00 2.7 C 87 % 0.76 C
1242 31-01-2014 18:00:00 2.4 C 88 % 0.62 C
1243 31-01-2014 18:05:00 2.3 C 89 % 0.68 C
1244 31-01-2014 18:10:00 2.2 C 90 % 0.73 C
1245 31-01-2014 18:15:00 2.1 C 90 % 0.64 C
1246 31-01-2014 18:20:00 2 C 90 % 0.54 C
1247 31-01-2014 18:25:00 1.9 C 90 % 0.44 C
1248 31-01-2014 18:30:00 1.8 C 90 % 0.34 C
1249 31-01-2014 18:35:00 1.8 C 91 % 0.49 C
1250 31-01-2014 18:40:00 1.8 C 90 % 0.34 C
Sensor: Nr:Datum:Temp:Feuchte:Taupunkt:
Aussen-T/F 1251 31-01-2014 18:45:00 1.8 C 91 % 0.49 C
1252 31-01-2014 18:50:00 1.7 C 91 % 0.39 C
1253 31-01-2014 18:55:00 1.7 C 91 % 0.39 C
1254 31-01-2014 19:00:00 1.7 C 91 % 0.39 C
1255 31-01-2014 19:05:00 1.7 C 91 % 0.39 C
1256 31-01-2014 19:10:00 1.6 C 91 % 0.29 C
1257 31-01-2014 19:15:00 1.6 C 92 % 0.44 C
1258 31-01-2014 19:20:00 1.4 C 91 % 0.1 C
1259 31-01-2014 19:25:00 1.3 C 92 % 0.15 C
1260 31-01-2014 19:30:00 1.3 C 92 % 0.15 C
1261 31-01-2014 19:35:00 1.3 C 92 % 0.15 C
1262 31-01-2014 19:40:00 1.2 C 92 % 0.05 C
1263 31-01-2014 19:45:00 1.2 C 93 % 0.2 C
1264 31-01-2014 19:50:00 1.2 C 93 % 0.2 C
1265 31-01-2014 19:55:00 1.2 C 93 % 0.2 C
1266 31-01-2014 20:00:00 1.1 C 93 % 0.1 C
1267 31-01-2014 20:05:00 1.1 C 93 % 0.1 C
1268 31-01-2014 20:10:00 1.1 C 93 % 0.1 C
1269 31-01-2014 20:15:00 1.2 C 93 % 0.2 C
1270 31-01-2014 20:20:00 1.3 C 93 % 0.3 C
1271 31-01-2014 20:25:00 1.4 C 93 % 0.4 C
1272 31-01-2014 20:30:00 1.6 C 93 % 0.59 C
1273 31-01-2014 20:35:00 1.9 C 93 % 0.89 C
1274 31-01-2014 20:40:00 2.2 C 92 % 1.04 C
1275 31-01-2014 20:45:00 2.2 C 91 % 0.89 C
Sensor: Nr:Datum:Temp:Feuchte:Taupunkt:
Aussen-T/F 1276 31-01-2014 20:50:00 2.3 C 90 % 0.83 C
1277 31-01-2014 20:55:00 2.3 C 90 % 0.83 C
1278 31-01-2014 21:00:00 2.3 C 90 % 0.83 C
1279 31-01-2014 21:05:00 2.5 C 90 % 1.03 C
1280 31-01-2014 21:10:00 2.8 C 89 % 1.17 C
1281 31-01-2014 21:15:00 2.9 C 88 % 1.11 C
1282 31-01-2014 21:20:00 3 C 87 % 1.05 C
1283 31-01-2014 21:25:00 3.1 C 87 % 1.15 C
1284 31-01-2014 21:30:00 3 C 87 % 1.05 C
1285 31-01-2014 21:35:00 2.8 C 87 % 0.86 C
1286 31-01-2014 21:40:00 2.7 C 88 % 0.92 C
1287 31-01-2014 21:45:00 2.4 C 88 % 0.62 C
1288 31-01-2014 21:50:00 2.2 C 89 % 0.58 C
1289 31-01-2014 21:55:00 1.9 C 90 % 0.44 C
1290 31-01-2014 22:00:00 1.8 C 91 % 0.49 C
1291 31-01-2014 22:05:00 1.7 C 91 % 0.39 C
1292 31-01-2014 22:10:00 1.7 C 91 % 0.39 C
1293 31-01-2014 22:15:00 1.7 C 91 % 0.39 C
1294 31-01-2014 22:20:00 1.6 C 91 % 0.29 C
1295 31-01-2014 22:25:00 1.4 C 91 % 0.1 C
1296 31-01-2014 22:30:00 1.3 C 92 % 0.15 C
1297 31-01-2014 22:35:00 1.3 C 92 % 0.15 C
1298 31-01-2014 22:40:00 1.2 C 92 % 0.05 C
1299 31-01-2014 22:45:00 1.2 C 92 % 0.05 C
1300 31-01-2014 22:50:00 1.1 C 92 % -0.05 C
Sensor: Nr:Datum:Temp:Feuchte:Taupunkt:
Aussen-T/F 1301 31-01-2014 22:55:00 1.1 C 93 % 0.1 C
1302 31-01-2014 23:00:00 1 C 93 % 0 C
1303 31-01-2014 23:05:00 0.9 C 93 % -0.1 C
1304 31-01-2014 23:10:00 1 C 93 % 0 C
1305 31-01-2014 23:15:00 1 C 93 % 0 C
1306 31-01-2014 23:20:00 1 C 93 % 0 C
1307 31-01-2014 23:25:00 1 C 93 % 0 C
1308 31-01-2014 23:30:00 0.9 C 93 % -0.1 C
1309 31-01-2014 23:35:00 0.9 C 93 % -0.1 C
1310 31-01-2014 23:40:00 0.9 C 94 % 0.05 C
1311 31-01-2014 23:45:00 0.8 C 94 % -0.05 C
1312 31-01-2014 23:50:00 0.8 C 94 % -0.05 C
1313 31-01-2014 23:55:00 1 C 94 % 0.15 C
1314 01-02-2014 00:00:00 0.9 C 94 % 0.05 C
1315 01-02-2014 00:05:00 0.9 C 94 % 0.05 C
1316 01-02-2014 00:10:00 1 C 94 % 0.15 C
1317 01-02-2014 00:15:00 1 C 93 % 0 C
1318 01-02-2014 00:20:00 0.9 C 93 % -0.1 C
1319 01-02-2014 00:25:00 0.9 C 94 % 0.05 C
1320 01-02-2014 00:30:00 1 C 94 % 0.15 C
1321 01-02-2014 00:35:00 1.1 C 94 % 0.24 C
1322 01-02-2014 00:40:00 1.2 C 94 % 0.34 C
1323 01-02-2014 00:45:00 1.2 C 94 % 0.34 C
1324 01-02-2014 00:50:00 1.3 C 94 % 0.44 C
1325 01-02-2014 00:55:00 1.4 C 94 % 0.54 C
Sensor: Nr:Datum:Temp:Feuchte:Taupunkt:
Aussen-T/F 1326 01-02-2014 01:00:00 1.4 C 94 % 0.54 C
1327 01-02-2014 01:05:00 1.3 C 94 % 0.44 C
1328 01-02-2014 01:10:00 1.3 C 94 % 0.44 C
1329 01-02-2014 01:15:00 1.3 C 94 % 0.44 C
1330 01-02-2014 01:20:00 1.4 C 94 % 0.54 C
1331 01-02-2014 01:25:00 1.4 C 93 % 0.4 C
1332 01-02-2014 01:30:00 1.3 C 94 % 0.44 C
1333 01-02-2014 01:35:00 1.3 C 94 % 0.44 C
1334 01-02-2014 01:40:00 1.2 C 94 % 0.34 C
1335 01-02-2014 01:45:00 1.2 C 94 % 0.34 C
1336 01-02-2014 01:50:00 1.2 C 94 % 0.34 C
1337 01-02-2014 01:55:00 1.2 C 94 % 0.34 C
1338 01-02-2014 02:00:00 1.3 C 94 % 0.44 C
1339 01-02-2014 02:05:00 1.5 C 94 % 0.64 C
1340 01-02-2014 02:10:00 1.6 C 93 % 0.59 C
1341 01-02-2014 02:15:00 1.7 C 93 % 0.69 C
1342 01-02-2014 02:20:00 1.9 C 93 % 0.89 C
1343 01-02-2014 02:25:00 2.2 C 92 % 1.04 C
1344 01-02-2014 02:30:00 2.2 C 91 % 0.89 C
1345 01-02-2014 02:35:00 2.1 C 91 % 0.79 C
1346 01-02-2014 02:40:00 1.9 C 91 % 0.59 C
1347 01-02-2014 02:45:00 2 C 92 % 0.84 C
1348 01-02-2014 02:50:00 2.1 C 92 % 0.94 C
1349 01-02-2014 02:55:00 2.3 C 91 % 0.99 C
1350 01-02-2014 03:00:00 2.4 C 91 % 1.08 C
Sensor: Nr:Datum:Temp:Feuchte:Taupunkt:
Aussen-T/F 1351 01-02-2014 03:05:00 2.4 C 90 % 0.93 C
1352 01-02-2014 03:10:00 2.4 C 90 % 0.93 C
1353 01-02-2014 03:15:00 2.3 C 91 % 0.99 C
1354 01-02-2014 03:20:00 2.2 C 91 % 0.89 C
1355 01-02-2014 03:25:00 2.2 C 91 % 0.89 C
1356 01-02-2014 03:30:00 2.1 C 91 % 0.79 C
1357 01-02-2014 03:35:00 2.1 C 92 % 0.94 C
1358 01-02-2014 03:40:00 2.1 C 92 % 0.94 C
1359 01-02-2014 03:45:00 2.1 C 92 % 0.94 C
1360 01-02-2014 03:50:00 2.1 C 92 % 0.94 C
1361 01-02-2014 03:55:00 2.1 C 92 % 0.94 C
1362 01-02-2014 04:00:00 2.2 C 92 % 1.04 C
1363 01-02-2014 04:05:00 2.5 C 92 % 1.34 C
1364 01-02-2014 04:10:00 2.8 C 91 % 1.48 C
1365 01-02-2014 04:15:00 2.9 C 90 % 1.43 C
1366 01-02-2014 04:20:00 2.9 C 90 % 1.43 C
1367 01-02-2014 04:25:00 2.9 C 89 % 1.27 C
1368 01-02-2014 04:30:00 3.1 C 89 % 1.47 C
1369 01-02-2014 04:35:00 3.2 C 89 % 1.57 C
1370 01-02-2014 04:40:00 3.3 C 88 % 1.51 C
1371 01-02-2014 04:45:00 3.4 C 88 % 1.61 C
1372 01-02-2014 04:50:00 3.3 C 88 % 1.51 C
1373 01-02-2014 04:55:00 3.3 C 88 % 1.51 C
1374 01-02-2014 05:00:00 3.2 C 89 % 1.57 C
1375 01-02-2014 05:05:00 3.1 C 89 % 1.47 C
Sensor: Nr:Datum:Temp:Feuchte:Taupunkt:
Aussen-T/F 1376 01-02-2014 05:10:00 3.1 C 89 % 1.47 C
1377 01-02-2014 05:15:00 3.2 C 89 % 1.57 C
1378 01-02-2014 05:20:00 3.2 C 89 % 1.57 C
1379 01-02-2014 05:25:00 3.2 C 89 % 1.57 C
1380 01-02-2014 05:30:00 3.3 C 89 % 1.67 C
1381 01-02-2014 05:35:00 3.4 C 89 % 1.76 C
1382 01-02-2014 05:40:00 3.9 C 87 % 1.94 C
1383 01-02-2014 05:45:00 4.1 C 85 % 1.81 C
1384 01-02-2014 05:50:00 4.1 C 85 % 1.81 C
1385 01-02-2014 05:55:00 4 C 86 % 1.88 C
1386 01-02-2014 06:00:00 3.8 C 87 % 1.84 C
1387 01-02-2014 06:05:00 3.7 C 88 % 1.9 C
1388 01-02-2014 06:10:00 3.6 C 88 % 1.8 C
1389 01-02-2014 06:15:00 3.6 C 89 % 1.96 C
1390 01-02-2014 06:20:00 3.6 C 89 % 1.96 C
1391 01-02-2014 06:25:00 3.6 C 89 % 1.96 C
1392 01-02-2014 06:30:00 3.6 C 89 % 1.96 C
1393 01-02-2014 06:35:00 3.6 C 89 % 1.96 C
1394 01-02-2014 06:40:00 3.6 C 89 % 1.96 C
1395 01-02-2014 06:45:00 3.7 C 88 % 1.9 C
1396 01-02-2014 06:50:00 3.9 C 87 % 1.94 C
1397 01-02-2014 06:55:00 3.9 C 87 % 1.94 C
1398 01-02-2014 07:00:00 4.1 C 86 % 1.97 C
1399 01-02-2014 07:05:00 4.2 C 86 % 2.07 C
1400 01-02-2014 07:10:00 4.3 C 85 % 2.01 C
Sensor: Nr:Datum:Temp:Feuchte:Taupunkt:
Aussen-T/F 1401 01-02-2014 07:15:00 4.3 C 86 % 2.17 C
1402 01-02-2014 07:20:00 4.3 C 87 % 2.33 C
1403 01-02-2014 07:25:00 4.2 C 86 % 2.07 C
1404 01-02-2014 07:30:00 4.1 C 87 % 2.14 C
1405 01-02-2014 07:35:00 4.1 C 87 % 2.14 C
1406 01-02-2014 07:40:00 4.2 C 85 % 1.91 C
1407 01-02-2014 07:45:00 4.4 C 85 % 2.11 C
1408 01-02-2014 07:50:00 4.6 C 83 % 1.97 C
1409 01-02-2014 07:55:00 4.7 C 83 % 2.07 C
1410 01-02-2014 08:00:00 4.9 C 82 % 2.09 C
1411 01-02-2014 08:05:00 5.1 C 80 % 1.94 C
1412 01-02-2014 08:10:00 5.2 C 80 % 2.04 C
1413 01-02-2014 08:15:00 5.2 C 81 % 2.21 C
1414 01-02-2014 08:20:00 5.1 C 82 % 2.29 C
1415 01-02-2014 08:25:00 4.9 C 84 % 2.43 C
1416 01-02-2014 08:30:00 4.7 C 84 % 2.23 C
1417 01-02-2014 08:35:00 4.6 C 84 % 2.14 C
1418 01-02-2014 08:40:00 4.6 C 84 % 2.14 C
1419 01-02-2014 08:45:00 4.7 C 82 % 1.9 C
1420 01-02-2014 08:50:00 4.9 C 83 % 2.26 C
1421 01-02-2014 08:55:00 5 C 81 % 2.02 C
1422 01-02-2014 09:00:00 5.1 C 80 % 1.94 C
1423 01-02-2014 09:05:00 5.2 C 81 % 2.21 C
1424 01-02-2014 09:10:00 5.2 C 83 % 2.56 C
1425 01-02-2014 09:15:00 5.2 C 81 % 2.21 C
Sensor: Nr:Datum:Temp:Feuchte:Taupunkt:
Aussen-T/F 1426 01-02-2014 09:20:00 5.4 C 79 % 2.06 C
1427 01-02-2014 09:25:00 5.7 C 77 % 1.99 C
1428 01-02-2014 09:30:00 6.1 C 76 % 2.2 C
1429 01-02-2014 09:35:00 6.2 C 76 % 2.29 C
1430 01-02-2014 09:40:00 6.3 C 80 % 3.11 C
1431 01-02-2014 09:45:00 6.2 C 84 % 3.7 C
1432 01-02-2014 09:50:00 5.8 C 86 % 3.64 C
1433 01-02-2014 09:55:00 5.6 C 88 % 3.77 C
1434 01-02-2014 10:00:00 5.4 C 90 % 3.89 C
1435 01-02-2014 10:05:00 5.2 C 89 % 3.54 C
1436 01-02-2014 10:10:00 5.2 C 90 % 3.7 C
1437 01-02-2014 10:15:00 5.1 C 90 % 3.6 C
1438 01-02-2014 10:20:00 5.1 C 91 % 3.76 C
1439 01-02-2014 10:25:00 5 C 92 % 3.81 C
1440 01-02-2014 10:30:00 4.9 C 92 % 3.71 C
1441 01-02-2014 10:35:00 4.9 C 92 % 3.71 C
1442 01-02-2014 10:40:00 4.8 C 92 % 3.61 C
1443 01-02-2014 10:45:00 4.7 C 92 % 3.51 C
1444 01-02-2014 10:50:00 4.6 C 92 % 3.42 C
1445 01-02-2014 10:55:00 4.6 C 92 % 3.42 C
1446 01-02-2014 11:00:00 4.6 C 92 % 3.42 C
1447 01-02-2014 11:05:00 4.5 C 92 % 3.32 C
1448 01-02-2014 11:10:00 4.5 C 92 % 3.32 C
1449 01-02-2014 11:15:00 4.4 C 92 % 3.22 C
1450 01-02-2014 11:20:00 4.4 C 93 % 3.37 C
Sensor: Nr:Datum:Temp:Feuchte:Taupunkt:
Aussen-T/F 1451 01-02-2014 11:25:00 4.4 C 93 % 3.37 C
1452 01-02-2014 11:30:00 4.4 C 94 % 3.52 C
1453 01-02-2014 11:35:00 4.4 C 94 % 3.52 C
1454 01-02-2014 11:40:00 4.5 C 95 % 3.77 C
1455 01-02-2014 11:45:00 4.5 C 95 % 3.77 C
1456 01-02-2014 11:50:00 4.6 C 95 % 3.87 C
1457 01-02-2014 11:55:00 4.7 C 95 % 3.97 C
1458 01-02-2014 12:00:00 4.8 C 96 % 4.22 C
1459 01-02-2014 12:05:00 4.8 C 96 % 4.22 C
1460 01-02-2014 12:10:00 4.9 C 96 % 4.32 C
1461 01-02-2014 12:15:00 5.1 C 96 % 4.52 C
1462 01-02-2014 12:20:00 5.2 C 96 % 4.62 C
1463 01-02-2014 12:25:00 5.3 C 96 % 4.72 C
1464 01-02-2014 12:30:00 5.4 C 96 % 4.81 C
1465 01-02-2014 12:35:00 5.4 C 96 % 4.81 C
1466 01-02-2014 12:40:00 5.6 C 96 % 5.01 C
1467 01-02-2014 12:45:00 5.6 C 96 % 5.01 C
1468 01-02-2014 12:50:00 5.6 C 96 % 5.01 C
1469 01-02-2014 12:55:00 5.7 C 96 % 5.11 C
1470 01-02-2014 13:00:00 5.8 C 96 % 5.21 C
1471 01-02-2014 13:05:00 6.1 C 94 % 5.21 C
1472 01-02-2014 13:10:00 6.3 C 92 % 5.1 C
1473 01-02-2014 13:15:00 6.4 C 91 % 5.04 C
1474 01-02-2014 13:20:00 6.4 C 91 % 5.04 C
1475 01-02-2014 13:25:00 6.4 C 90 % 4.88 C
Sensor: Nr:Datum:Temp:Feuchte:Taupunkt:
Aussen-T/F 1476 01-02-2014 13:30:00 6.4 C 90 % 4.88 C
1477 01-02-2014 13:35:00 6.5 C 90 % 4.98 C
1478 01-02-2014 13:40:00 6.5 C 89 % 4.82 C
1479 01-02-2014 13:45:00 6.5 C 89 % 4.82 C
1480 01-02-2014 13:50:00 6.5 C 89 % 4.82 C
1481 01-02-2014 13:55:00 6.4 C 89 % 4.72 C
1482 01-02-2014 14:00:00 6.4 C 89 % 4.72 C
1483 01-02-2014 14:05:00 6.5 C 89 % 4.82 C
1484 01-02-2014 14:10:00 6.4 C 89 % 4.72 C
1485 01-02-2014 14:15:00 6.4 C 89 % 4.72 C
1486 01-02-2014 14:20:00 6.5 C 89 % 4.82 C
1487 01-02-2014 14:25:00 6.6 C 88 % 4.76 C
1488 01-02-2014 14:30:00 6.6 C 88 % 4.76 C
1489 01-02-2014 14:35:00 6.6 C 88 % 4.76 C
1490 01-02-2014 14:40:00 6.7 C 88 % 4.86 C
1491 01-02-2014 14:45:00 6.7 C 88 % 4.86 C
1492 01-02-2014 14:50:00 6.8 C 87 % 4.79 C
1493 01-02-2014 14:55:00 6.8 C 87 % 4.79 C
1494 01-02-2014 15:00:00 6.8 C 87 % 4.79 C
1495 01-02-2014 15:05:00 6.9 C 86 % 4.72 C
1496 01-02-2014 15:10:00 6.9 C 87 % 4.89 C
1497 01-02-2014 15:15:00 6.9 C 87 % 4.89 C
1498 01-02-2014 15:20:00 6.9 C 87 % 4.89 C
1499 01-02-2014 15:25:00 7 C 86 % 4.82 C
1500 01-02-2014 15:30:00 7.1 C 86 % 4.92 C
Sensor: Nr:Datum:Temp:Feuchte:Taupunkt:
Aussen-T/F 1501 01-02-2014 15:35:00 7.1 C 86 % 4.92 C
1502 01-02-2014 15:40:00 7.1 C 86 % 4.92 C
1503 01-02-2014 15:45:00 7.1 C 86 % 4.92 C
1504 01-02-2014 15:50:00 7.1 C 86 % 4.92 C
1505 01-02-2014 15:55:00 7.1 C 86 % 4.92 C
1506 01-02-2014 16:00:00 7.1 C 86 % 4.92 C
1507 01-02-2014 16:05:00 7.1 C 86 % 4.92 C
1508 01-02-2014 16:10:00 7.1 C 86 % 4.92 C
1509 01-02-2014 16:15:00 7 C 86 % 4.82 C
1510 01-02-2014 16:20:00 7 C 86 % 4.82 C
1511 01-02-2014 16:25:00 7 C 86 % 4.82 C
1512 01-02-2014 16:30:00 7 C 86 % 4.82 C
1513 01-02-2014 16:35:00 6.9 C 87 % 4.89 C
1514 01-02-2014 16:40:00 6.9 C 88 % 5.05 C
1515 01-02-2014 16:45:00 6.8 C 88 % 4.96 C
1516 01-02-2014 16:50:00 6.6 C 89 % 4.92 C
1517 01-02-2014 16:55:00 6.4 C 90 % 4.88 C
1518 01-02-2014 17:00:00 6.3 C 90 % 4.78 C
1519 01-02-2014 17:05:00 6.4 C 89 % 4.72 C
1520 01-02-2014 17:10:00 6.6 C 89 % 4.92 C
1521 01-02-2014 17:15:00 6.5 C 89 % 4.82 C
1522 01-02-2014 17:20:00 6.4 C 90 % 4.88 C
1523 01-02-2014 17:25:00 6.4 C 90 % 4.88 C
1524 01-02-2014 17:30:00 6.4 C 89 % 4.72 C
1525 01-02-2014 17:35:00 6.4 C 89 % 4.72 C
Sensor: Nr:Datum:Temp:Feuchte:Taupunkt:
Aussen-T/F 1526 01-02-2014 17:40:00 6.4 C 89 % 4.72 C
1527 01-02-2014 17:45:00 6.5 C 88 % 4.66 C
1528 01-02-2014 17:50:00 6.6 C 88 % 4.76 C
1529 01-02-2014 17:55:00 6.6 C 88 % 4.76 C
1530 01-02-2014 18:00:00 6.6 C 87 % 4.6 C
1531 01-02-2014 18:05:00 6.6 C 88 % 4.76 C
1532 01-02-2014 18:10:00 6.5 C 88 % 4.66 C
1533 01-02-2014 18:15:00 6.4 C 88 % 4.56 C
1534 01-02-2014 18:20:00 6.4 C 88 % 4.56 C
1535 01-02-2014 18:25:00 6.3 C 89 % 4.62 C
1536 01-02-2014 18:30:00 6.2 C 90 % 4.69 C
1537 01-02-2014 18:35:00 6.1 C 90 % 4.59 C
1538 01-02-2014 18:40:00 6 C 91 % 4.65 C
1539 01-02-2014 18:45:00 6 C 91 % 4.65 C
1540 01-02-2014 18:50:00 6 C 91 % 4.65 C
1541 01-02-2014 18:55:00 5.9 C 91 % 4.55 C
1542 01-02-2014 19:00:00 6 C 91 % 4.65 C
1543 01-02-2014 19:05:00 6 C 91 % 4.65 C
1544 01-02-2014 19:10:00 5.9 C 91 % 4.55 C
1545 01-02-2014 19:15:00 5.8 C 91 % 4.45 C
1546 01-02-2014 19:20:00 5.9 C 91 % 4.55 C
1547 01-02-2014 19:25:00 5.9 C 91 % 4.55 C
1548 01-02-2014 19:30:00 5.9 C 91 % 4.55 C
1549 01-02-2014 19:35:00 5.8 C 91 % 4.45 C
1550 01-02-2014 19:40:00 5.8 C 91 % 4.45 C
Sensor: Nr:Datum:Temp:Feuchte:Taupunkt:
Aussen-T/F 1551 01-02-2014 19:45:00 5.8 C 91 % 4.45 C
1552 01-02-2014 19:50:00 5.9 C 90 % 4.39 C
1553 01-02-2014 19:55:00 5.9 C 91 % 4.55 C
1554 01-02-2014 20:00:00 5.8 C 91 % 4.45 C
1555 01-02-2014 20:05:00 5.8 C 91 % 4.45 C
1556 01-02-2014 20:10:00 5.7 C 92 % 4.5 C
1557 01-02-2014 20:15:00 5.7 C 92 % 4.5 C
1558 01-02-2014 20:20:00 5.6 C 92 % 4.41 C
1559 01-02-2014 20:25:00 5.7 C 91 % 4.35 C
1560 01-02-2014 20:30:00 5.7 C 91 % 4.35 C
1561 01-02-2014 20:35:00 5.7 C 92 % 4.5 C
1562 01-02-2014 20:40:00 5.7 C 92 % 4.5 C
1563 01-02-2014 20:45:00 5.6 C 92 % 4.41 C
1564 01-02-2014 20:50:00 5.5 C 92 % 4.31 C
1565 01-02-2014 20:55:00 5.4 C 92 % 4.21 C
1566 01-02-2014 21:00:00 5.4 C 92 % 4.21 C
1567 01-02-2014 21:05:00 5.3 C 92 % 4.11 C
1568 01-02-2014 21:10:00 5.3 C 92 % 4.11 C
1569 01-02-2014 21:15:00 5.3 C 92 % 4.11 C
1570 01-02-2014 21:20:00 5.3 C 92 % 4.11 C
1571 01-02-2014 21:25:00 5.2 C 92 % 4.01 C
1572 01-02-2014 21:30:00 5.2 C 92 % 4.01 C
1573 01-02-2014 21:35:00 5.1 C 92 % 3.91 C
1574 01-02-2014 21:40:00 5 C 92 % 3.81 C
1575 01-02-2014 21:45:00 4.9 C 92 % 3.71 C
Sensor: Nr:Datum:Temp:Feuchte:Taupunkt:
Aussen-T/F 1576 01-02-2014 21:50:00 4.8 C 93 % 3.77 C
1577 01-02-2014 21:55:00 4.7 C 93 % 3.67 C
1578 01-02-2014 22:00:00 4.7 C 93 % 3.67 C
1579 01-02-2014 22:05:00 4.6 C 93 % 3.57 C
1580 01-02-2014 22:10:00 4.7 C 93 % 3.67 C
1581 01-02-2014 22:15:00 4.8 C 92 % 3.61 C
1582 01-02-2014 22:20:00 4.9 C 92 % 3.71 C
1583 01-02-2014 22:25:00 4.9 C 91 % 3.56 C
1584 01-02-2014 22:30:00 4.8 C 91 % 3.46 C
1585 01-02-2014 22:35:00 4.8 C 91 % 3.46 C
1586 01-02-2014 22:40:00 4.8 C 91 % 3.46 C
1587 01-02-2014 22:45:00 4.7 C 91 % 3.36 C
1588 01-02-2014 22:50:00 4.5 C 91 % 3.16 C
1589 01-02-2014 22:55:00 4.3 C 92 % 3.12 C
1590 01-02-2014 23:00:00 4.3 C 93 % 3.27 C
1591 01-02-2014 23:05:00 4.3 C 93 % 3.27 C
1592 01-02-2014 23:10:00 4.2 C 93 % 3.17 C
1593 01-02-2014 23:15:00 4.2 C 93 % 3.17 C
1594 01-02-2014 23:20:00 4.2 C 93 % 3.17 C
1595 01-02-2014 23:25:00 4.2 C 93 % 3.17 C
1596 01-02-2014 23:30:00 4.2 C 93 % 3.17 C
1597 01-02-2014 23:35:00 4.1 C 93 % 3.07 C
1598 01-02-2014 23:40:00 4.1 C 94 % 3.22 C
1599 01-02-2014 23:45:00 4.1 C 94 % 3.22 C
1600 01-02-2014 23:50:00 4.1 C 93 % 3.07 C
Sensor: Nr:Datum:Temp:Feuchte:Taupunkt:
Aussen-T/F 1601 01-02-2014 23:55:00 4.1 C 94 % 3.22 C
1602 02-02-2014 00:00:00 4.1 C 93 % 3.07 C
1603 02-02-2014 00:05:00 4 C 94 % 3.12 C
1604 02-02-2014 00:10:00 4 C 94 % 3.12 C
1605 02-02-2014 00:15:00 3.9 C 94 % 3.02 C
1606 02-02-2014 00:20:00 3.9 C 93 % 2.87 C
1607 02-02-2014 00:25:00 3.8 C 94 % 2.93 C
1608 02-02-2014 00:30:00 3.8 C 94 % 2.93 C
1609 02-02-2014 00:35:00 3.7 C 94 % 2.83 C
1610 02-02-2014 00:40:00 3.7 C 94 % 2.83 C
1611 02-02-2014 00:45:00 3.6 C 94 % 2.73 C
1612 02-02-2014 00:50:00 3.6 C 94 % 2.73 C
1613 02-02-2014 00:55:00 3.6 C 95 % 2.88 C
1614 02-02-2014 01:00:00 3.7 C 95 % 2.98 C
1615 02-02-2014 01:05:00 3.7 C 95 % 2.98 C
1616 02-02-2014 01:10:00 3.8 C 95 % 3.07 C
1617 02-02-2014 01:15:00 3.8 C 95 % 3.07 C
1618 02-02-2014 01:20:00 3.8 C 95 % 3.07 C
1619 02-02-2014 01:25:00 3.8 C 95 % 3.07 C
1620 02-02-2014 01:30:00 3.8 C 95 % 3.07 C
1621 02-02-2014 01:35:00 3.8 C 95 % 3.07 C
1622 02-02-2014 01:40:00 3.8 C 95 % 3.07 C
1623 02-02-2014 01:45:00 3.8 C 95 % 3.07 C
1624 02-02-2014 01:50:00 3.9 C 95 % 3.17 C
1625 02-02-2014 01:55:00 3.8 C 95 % 3.07 C
Sensor: Nr:Datum:Temp:Feuchte:Taupunkt:
Aussen-T/F 1626 02-02-2014 02:00:00 3.8 C 95 % 3.07 C
1627 02-02-2014 02:05:00 3.8 C 95 % 3.07 C
1628 02-02-2014 02:10:00 3.8 C 95 % 3.07 C
1629 02-02-2014 02:15:00 3.8 C 95 % 3.07 C
1630 02-02-2014 02:20:00 3.7 C 95 % 2.98 C
1631 02-02-2014 02:25:00 3.7 C 95 % 2.98 C
1632 02-02-2014 02:30:00 3.7 C 95 % 2.98 C
1633 02-02-2014 02:35:00 3.7 C 95 % 2.98 C
1634 02-02-2014 02:40:00 3.7 C 95 % 2.98 C
1635 02-02-2014 02:45:00 3.6 C 95 % 2.88 C
1636 02-02-2014 02:50:00 3.6 C 95 % 2.88 C
1637 02-02-2014 02:55:00 3.6 C 95 % 2.88 C
1638 02-02-2014 03:00:00 3.6 C 95 % 2.88 C
1639 02-02-2014 03:05:00 3.6 C 95 % 2.88 C
1640 02-02-2014 03:10:00 3.6 C 95 % 2.88 C
1641 02-02-2014 03:15:00 3.7 C 96 % 3.12 C
1642 02-02-2014 03:20:00 3.7 C 96 % 3.12 C
1643 02-02-2014 03:25:00 3.7 C 95 % 2.98 C
1644 02-02-2014 03:30:00 3.7 C 95 % 2.98 C
1645 02-02-2014 03:35:00 3.7 C 95 % 2.98 C
1646 02-02-2014 03:40:00 3.8 C 96 % 3.22 C
1647 02-02-2014 03:45:00 3.8 C 96 % 3.22 C
1648 02-02-2014 03:50:00 3.8 C 95 % 3.07 C
1649 02-02-2014 03:55:00 3.8 C 95 % 3.07 C
1650 02-02-2014 04:00:00 3.8 C 96 % 3.22 C
Sensor: Nr:Datum:Temp:Feuchte:Taupunkt:
Aussen-T/F 1651 02-02-2014 04:05:00 4 C 95 % 3.27 C
1652 02-02-2014 04:10:00 4 C 95 % 3.27 C
1653 02-02-2014 04:15:00 3.9 C 95 % 3.17 C
1654 02-02-2014 04:20:00 3.9 C 95 % 3.17 C
1655 02-02-2014 04:25:00 3.8 C 95 % 3.07 C
1656 02-02-2014 04:30:00 3.8 C 95 % 3.07 C
1657 02-02-2014 04:35:00 3.8 C 95 % 3.07 C
1658 02-02-2014 04:40:00 3.8 C 95 % 3.07 C
1659 02-02-2014 04:45:00 3.8 C 95 % 3.07 C
1660 02-02-2014 04:50:00 3.9 C 95 % 3.17 C
1661 02-02-2014 04:55:00 3.9 C 95 % 3.17 C
1662 02-02-2014 05:00:00 4 C 95 % 3.27 C
1663 02-02-2014 05:05:00 4.1 C 95 % 3.37 C
1664 02-02-2014 05:10:00 4.2 C 95 % 3.47 C
1665 02-02-2014 05:15:00 4.3 C 95 % 3.57 C
1666 02-02-2014 05:20:00 4.4 C 95 % 3.67 C
1667 02-02-2014 05:25:00 4.6 C 95 % 3.87 C
1668 02-02-2014 05:30:00 4.8 C 94 % 3.92 C
1669 02-02-2014 05:35:00 4.9 C 93 % 3.87 C
1670 02-02-2014 05:40:00 5.2 C 92 % 4.01 C
1671 02-02-2014 05:45:00 5.3 C 91 % 3.95 C
1672 02-02-2014 05:50:00 5.3 C 91 % 3.95 C
1673 02-02-2014 05:55:00 5.4 C 90 % 3.89 C
1674 02-02-2014 06:00:00 5.4 C 90 % 3.89 C
1675 02-02-2014 06:05:00 5.4 C 90 % 3.89 C
Sensor: Nr:Datum:Temp:Feuchte:Taupunkt:
Aussen-T/F 1676 02-02-2014 06:10:00 5.3 C 90 % 3.8 C
1677 02-02-2014 06:15:00 5.3 C 91 % 3.95 C
1678 02-02-2014 06:20:00 5.2 C 91 % 3.85 C
1679 02-02-2014 06:25:00 5.2 C 91 % 3.85 C
1680 02-02-2014 06:30:00 5.2 C 91 % 3.85 C
1681 02-02-2014 06:35:00 5.2 C 91 % 3.85 C
1682 02-02-2014 06:40:00 5.2 C 91 % 3.85 C
1683 02-02-2014 06:45:00 5.1 C 91 % 3.76 C
1684 02-02-2014 06:50:00 5 C 92 % 3.81 C
1685 02-02-2014 06:55:00 4.9 C 92 % 3.71 C
1686 02-02-2014 07:00:00 4.9 C 92 % 3.71 C
1687 02-02-2014 07:05:00 4.8 C 93 % 3.77 C
1688 02-02-2014 07:10:00 4.8 C 93 % 3.77 C
1689 02-02-2014 07:15:00 4.8 C 93 % 3.77 C
1690 02-02-2014 07:20:00 4.7 C 93 % 3.67 C
1691 02-02-2014 07:25:00 4.6 C 92 % 3.42 C
1692 02-02-2014 07:30:00 4.4 C 92 % 3.22 C
1693 02-02-2014 07:35:00 4.3 C 93 % 3.27 C
1694 02-02-2014 07:40:00 4.2 C 93 % 3.17 C
1695 02-02-2014 07:45:00 4.1 C 93 % 3.07 C
1696 02-02-2014 07:50:00 3.9 C 93 % 2.87 C
1697 02-02-2014 07:55:00 3.8 C 93 % 2.77 C
1698 02-02-2014 08:00:00 3.7 C 93 % 2.68 C
1699 02-02-2014 08:05:00 3.6 C 94 % 2.73 C
1700 02-02-2014 08:10:00 3.4 C 94 % 2.53 C
Sensor: Nr:Datum:Temp:Feuchte:Taupunkt:
Aussen-T/F 1701 02-02-2014 08:15:00 3.4 C 94 % 2.53 C
1702 02-02-2014 08:20:00 3.3 C 94 % 2.43 C
1703 02-02-2014 08:25:00 3.2 C 94 % 2.33 C
1704 02-02-2014 08:30:00 3.1 C 95 % 2.38 C
1705 02-02-2014 08:35:00 3.1 C 95 % 2.38 C
1706 02-02-2014 08:40:00 3.1 C 95 % 2.38 C
1707 02-02-2014 08:45:00 3.2 C 95 % 2.48 C
1708 02-02-2014 08:50:00 3.2 C 95 % 2.48 C
1709 02-02-2014 08:55:00 3.3 C 95 % 2.58 C
1710 02-02-2014 09:00:00 3.4 C 96 % 2.82 C
1711 02-02-2014 09:05:00 3.6 C 96 % 3.02 C
1712 02-02-2014 09:10:00 3.7 C 96 % 3.12 C
1713 02-02-2014 09:15:00 3.8 C 96 % 3.22 C
1714 02-02-2014 09:20:00 3.9 C 96 % 3.32 C
1715 02-02-2014 09:25:00 4 C 95 % 3.27 C
1716 02-02-2014 09:30:00 4.1 C 95 % 3.37 C
1717 02-02-2014 09:35:00 4.1 C 95 % 3.37 C
1718 02-02-2014 09:40:00 4.1 C 95 % 3.37 C
1719 02-02-2014 09:45:00 4.2 C 95 % 3.47 C
1720 02-02-2014 09:50:00 4.3 C 95 % 3.57 C
1721 02-02-2014 09:55:00 4.4 C 95 % 3.67 C
1722 02-02-2014 10:00:00 4.5 C 95 % 3.77 C
1723 02-02-2014 10:05:00 4.5 C 95 % 3.77 C
1724 02-02-2014 10:10:00 4.5 C 94 % 3.62 C
1725 02-02-2014 10:15:00 4.5 C 94 % 3.62 C
Sensor: Nr:Datum:Temp:Feuchte:Taupunkt:
Aussen-T/F 1726 02-02-2014 10:20:00 4.4 C 94 % 3.52 C
1727 02-02-2014 10:25:00 4.4 C 94 % 3.52 C
1728 02-02-2014 10:30:00 4.4 C 94 % 3.52 C
1729 02-02-2014 10:35:00 4.5 C 93 % 3.47 C
1730 02-02-2014 10:40:00 4.4 C 93 % 3.37 C
1731 02-02-2014 10:45:00 4.4 C 93 % 3.37 C
1732 02-02-2014 10:50:00 4.3 C 93 % 3.27 C
1733 02-02-2014 10:55:00 4.2 C 93 % 3.17 C
1734 02-02-2014 11:00:00 4.2 C 92 % 3.02 C
1735 02-02-2014 11:05:00 4.3 C 93 % 3.27 C
1736 02-02-2014 11:10:00 4.4 C 93 % 3.37 C
1737 02-02-2014 11:15:00 4.8 C 92 % 3.61 C
1738 02-02-2014 11:20:00 5.4 C 89 % 3.74 C
1739 02-02-2014 11:25:00 5.8 C 87 % 3.81 C
1740 02-02-2014 11:30:00 6 C 85 % 3.67 C
1741 02-02-2014 11:35:00 6.1 C 85 % 3.77 C
1742 02-02-2014 11:40:00 6.3 C 83 % 3.63 C
1743 02-02-2014 11:45:00 6.3 C 83 % 3.63 C
1744 02-02-2014 11:50:00 6.4 C 82 % 3.56 C
1745 02-02-2014 11:55:00 6.4 C 82 % 3.56 C
1746 02-02-2014 12:00:00 6.3 C 82 % 3.46 C
1747 02-02-2014 12:05:00 6.2 C 82 % 3.36 C
1748 02-02-2014 12:10:00 6.1 C 84 % 3.61 C
1749 02-02-2014 12:15:00 5.9 C 84 % 3.41 C
1750 02-02-2014 12:20:00 5.8 C 85 % 3.48 C
Sensor: Nr:Datum:Temp:Feuchte:Taupunkt:
Aussen-T/F 1751 02-02-2014 12:25:00 5.8 C 85 % 3.48 C
1752 02-02-2014 12:30:00 5.8 C 86 % 3.64 C
1753 02-02-2014 12:35:00 5.6 C 86 % 3.45 C
1754 02-02-2014 12:40:00 5.6 C 86 % 3.45 C
1755 02-02-2014 12:45:00 5.6 C 86 % 3.45 C
1756 02-02-2014 12:50:00 5.7 C 86 % 3.55 C
1757 02-02-2014 12:55:00 5.7 C 86 % 3.55 C
1758 02-02-2014 13:00:00 5.7 C 86 % 3.55 C
1759 02-02-2014 13:05:00 5.7 C 86 % 3.55 C
1760 02-02-2014 13:10:00 5.7 C 87 % 3.71 C
1761 02-02-2014 13:15:00 5.7 C 86 % 3.55 C
1762 02-02-2014 13:20:00 6.1 C 84 % 3.61 C
1763 02-02-2014 13:25:00 6.3 C 83 % 3.63 C
1764 02-02-2014 13:30:00 6.3 C 82 % 3.46 C
1765 02-02-2014 13:35:00 6.3 C 83 % 3.63 C
1766 02-02-2014 13:40:00 6.3 C 84 % 3.8 C
1767 02-02-2014 13:45:00 6.4 C 81 % 3.38 C
1768 02-02-2014 13:50:00 6.7 C 79 % 3.32 C
1769 02-02-2014 13:55:00 7 C 80 % 3.79 C
1770 02-02-2014 14:00:00 7.1 C 79 % 3.71 C
1771 02-02-2014 14:05:00 7.4 C 78 % 3.82 C
1772 02-02-2014 14:10:00 7.4 C 77 % 3.64 C
1773 02-02-2014 14:15:00 7.3 C 79 % 3.91 C
1774 02-02-2014 14:20:00 7.2 C 80 % 3.99 C
1775 02-02-2014 14:25:00 7.2 C 79 % 3.81 C
Sensor: Nr:Datum:Temp:Feuchte:Taupunkt:
Aussen-T/F 1776 02-02-2014 14:30:00 7.2 C 77 % 3.45 C
1777 02-02-2014 14:35:00 7.6 C 75 % 3.46 C
1778 02-02-2014 14:40:00 7.7 C 76 % 3.75 C
1779 02-02-2014 14:45:00 7.8 C 74 % 3.46 C
1780 02-02-2014 14:50:00 7.9 C 74 % 3.56 C
1781 02-02-2014 14:55:00 8 C 73 % 3.46 C
1782 02-02-2014 15:00:00 8 C 74 % 3.66 C
1783 02-02-2014 15:05:00 8 C 74 % 3.66 C
1784 02-02-2014 15:10:00 8.1 C 73 % 3.56 C
1785 02-02-2014 15:15:00 8.1 C 74 % 3.75 C
1786 02-02-2014 15:20:00 8 C 73 % 3.46 C
1787 02-02-2014 15:25:00 8 C 74 % 3.66 C
1788 02-02-2014 15:30:00 8.1 C 75 % 3.94 C
1789 02-02-2014 15:35:00 7.9 C 74 % 3.56 C
1790 02-02-2014 15:40:00 7.7 C 75 % 3.56 C
1791 02-02-2014 15:45:00 7.6 C 74 % 3.27 C
1792 02-02-2014 15:50:00 7.4 C 76 % 3.45 C
1793 02-02-2014 15:55:00 7.2 C 76 % 3.26 C
1794 02-02-2014 16:00:00 6.9 C 79 % 3.52 C
1795 02-02-2014 16:05:00 6.7 C 79 % 3.32 C
1796 02-02-2014 16:10:00 6.7 C 78 % 3.14 C
1797 02-02-2014 16:15:00 6.8 C 78 % 3.24 C
1798 02-02-2014 16:20:00 6.8 C 78 % 3.24 C
1799 02-02-2014 16:25:00 6.6 C 79 % 3.23 C
1800 02-02-2014 16:30:00 6.4 C 79 % 3.03 C
Sensor: Nr:Datum:Temp:Feuchte:Taupunkt:
Aussen-T/F 1801 02-02-2014 16:35:00 6.3 C 80 % 3.11 C
1802 02-02-2014 16:40:00 6.2 C 79 % 2.84 C
1803 02-02-2014 16:45:00 6.1 C 80 % 2.92 C
1804 02-02-2014 16:50:00 6 C 81 % 2.99 C
1805 02-02-2014 16:55:00 5.7 C 82 % 2.87 C
1806 02-02-2014 17:00:00 5.6 C 82 % 2.78 C
1807 02-02-2014 17:05:00 5.3 C 82 % 2.48 C
1808 02-02-2014 17:10:00 5.2 C 82 % 2.39 C
1809 02-02-2014 17:15:00 4.9 C 84 % 2.43 C
1810 02-02-2014 17:20:00 4.6 C 85 % 2.3 C
1811 02-02-2014 17:25:00 4.3 C 86 % 2.17 C
1812 02-02-2014 17:30:00 4.2 C 87 % 2.23 C
1813 02-02-2014 17:35:00 4.1 C 87 % 2.14 C
1814 02-02-2014 17:40:00 3.9 C 88 % 2.1 C
1815 02-02-2014 17:45:00 3.9 C 87 % 1.94 C
1816 02-02-2014 17:50:00 4 C 87 % 2.04 C
1817 02-02-2014 17:55:00 3.8 C 87 % 1.84 C
1818 02-02-2014 18:00:00 3.7 C 88 % 1.9 C
1819 02-02-2014 18:05:00 3.7 C 88 % 1.9 C
1820 02-02-2014 18:10:00 3.6 C 88 % 1.8 C
1821 02-02-2014 18:15:00 3.6 C 87 % 1.64 C
1822 02-02-2014 18:20:00 3.4 C 88 % 1.61 C
1823 02-02-2014 18:25:00 3.2 C 89 % 1.57 C
1824 02-02-2014 18:30:00 3.1 C 89 % 1.47 C
1825 02-02-2014 18:35:00 2.9 C 90 % 1.43 C
Sensor: Nr:Datum:Temp:Feuchte:Taupunkt:
Aussen-T/F 1826 02-02-2014 18:40:00 2.9 C 90 % 1.43 C
1827 02-02-2014 18:45:00 2.8 C 90 % 1.33 C
1828 02-02-2014 18:50:00 2.8 C 91 % 1.48 C
1829 02-02-2014 18:55:00 2.8 C 91 % 1.48 C
1830 02-02-2014 19:00:00 2.8 C 91 % 1.48 C
1831 02-02-2014 19:05:00 2.8 C 91 % 1.48 C
1832 02-02-2014 19:10:00 2.8 C 91 % 1.48 C
1833 02-02-2014 19:15:00 2.7 C 91 % 1.38 C
1834 02-02-2014 19:20:00 2.6 C 91 % 1.28 C
1835 02-02-2014 19:25:00 2.5 C 91 % 1.18 C
1836 02-02-2014 19:30:00 2.5 C 91 % 1.18 C
1837 02-02-2014 19:35:00 2.4 C 92 % 1.24 C
1838 02-02-2014 19:40:00 2.4 C 92 % 1.24 C
1839 02-02-2014 19:45:00 2.3 C 92 % 1.14 C
1840 02-02-2014 19:50:00 2.3 C 92 % 1.14 C
1841 02-02-2014 19:55:00 2.3 C 92 % 1.14 C
1842 02-02-2014 20:00:00 2.2 C 92 % 1.04 C
1843 02-02-2014 20:05:00 2.2 C 93 % 1.19 C
1844 02-02-2014 20:10:00 2.1 C 92 % 0.94 C
1845 02-02-2014 20:15:00 2.1 C 92 % 0.94 C
1846 02-02-2014 20:20:00 2 C 92 % 0.84 C
1847 02-02-2014 20:25:00 2 C 93 % 0.99 C
1848 02-02-2014 20:30:00 1.9 C 93 % 0.89 C
1849 02-02-2014 20:35:00 1.9 C 93 % 0.89 C
1850 02-02-2014 20:40:00 1.9 C 93 % 0.89 C
Sensor: Nr:Datum:Temp:Feuchte:Taupunkt:
Aussen-T/F 1851 02-02-2014 20:45:00 1.8 C 93 % 0.79 C
1852 02-02-2014 20:50:00 1.8 C 94 % 0.94 C
1853 02-02-2014 20:55:00 1.8 C 94 % 0.94 C
1854 02-02-2014 21:00:00 1.8 C 94 % 0.94 C
1855 02-02-2014 21:05:00 1.8 C 93 % 0.79 C
1856 02-02-2014 21:10:00 1.8 C 94 % 0.94 C
1857 02-02-2014 21:15:00 1.9 C 94 % 1.04 C
1858 02-02-2014 21:20:00 1.9 C 94 % 1.04 C
1859 02-02-2014 21:25:00 1.8 C 93 % 0.79 C
1860 02-02-2014 21:30:00 1.7 C 93 % 0.69 C
1861 02-02-2014 21:35:00 1.6 C 93 % 0.59 C
1862 02-02-2014 21:40:00 1.6 C 94 % 0.74 C
1863 02-02-2014 21:45:00 1.6 C 94 % 0.74 C
1864 02-02-2014 21:50:00 1.4 C 93 % 0.4 C
1865 02-02-2014 21:55:00 1.4 C 94 % 0.54 C
1866 02-02-2014 22:00:00 1.3 C 94 % 0.44 C
1867 02-02-2014 22:05:00 1.3 C 94 % 0.44 C
1868 02-02-2014 22:10:00 1.2 C 94 % 0.34 C
1869 02-02-2014 22:15:00 1.1 C 94 % 0.24 C
1870 02-02-2014 22:20:00 1.1 C 94 % 0.24 C
1871 02-02-2014 22:25:00 1.1 C 94 % 0.24 C
1872 02-02-2014 22:30:00 1 C 94 % 0.15 C
1873 02-02-2014 22:35:00 0.9 C 94 % 0.05 C
1874 02-02-2014 22:40:00 0.9 C 94 % 0.05 C
1875 02-02-2014 22:45:00 0.8 C 94 % -0.05 C
Sensor: Nr:Datum:Temp:Feuchte:Taupunkt:
Aussen-T/F 1876 02-02-2014 22:50:00 0.7 C 94 % -0.15 C
1877 02-02-2014 22:55:00 0.7 C 94 % -0.15 C
1878 02-02-2014 23:00:00 0.6 C 94 % -0.25 C
1879 02-02-2014 23:05:00 0.5 C 94 % -0.35 C
1880 02-02-2014 23:10:00 0.4 C 94 % -0.45 C
1881 02-02-2014 23:15:00 0.4 C 95 % -0.31 C
1882 02-02-2014 23:20:00 0.4 C 95 % -0.31 C
1883 02-02-2014 23:25:00 0.4 C 95 % -0.31 C
1884 02-02-2014 23:30:00 0.4 C 95 % -0.31 C
1885 02-02-2014 23:35:00 0.3 C 95 % -0.4 C
1886 02-02-2014 23:40:00 0.2 C 95 % -0.5 C
1887 02-02-2014 23:45:00 0.1 C 94 % -0.75 C
1888 02-02-2014 23:50:00 0 C 95 % -0.7 C
1889 02-02-2014 23:55:00 -0.1 C 95 % -0.8 C
1890 03-02-2014 00:00:00 0 C 95 % -0.7 C
1891 03-02-2014 00:05:00 0.1 C 95 % -0.6 C
1892 03-02-2014 00:10:00 0.1 C 95 % -0.6 C
1893 03-02-2014 00:15:00 0.1 C 95 % -0.6 C
1894 03-02-2014 00:20:00 0.1 C 95 % -0.6 C
1895 03-02-2014 00:25:00 0.1 C 95 % -0.6 C
1896 03-02-2014 00:30:00 0 C 95 % -0.7 C
1897 03-02-2014 00:35:00 -0.1 C 95 % -0.8 C
1898 03-02-2014 00:40:00 -0.2 C 95 % -0.9 C
1899 03-02-2014 00:45:00 -0.2 C 95 % -0.9 C
1900 03-02-2014 00:50:00 -0.2 C 95 % -0.9 C
Sensor: Nr:Datum:Temp:Feuchte:Taupunkt:
Aussen-T/F 1901 03-02-2014 00:55:00 -0.2 C 95 % -0.9 C
1902 03-02-2014 01:00:00 -0.2 C 96 % -0.76 C
1903 03-02-2014 01:05:00 -0.3 C 95 % -1 C
1904 03-02-2014 01:10:00 -0.3 C 95 % -1 C
1905 03-02-2014 01:15:00 -0.4 C 95 % -1.1 C
1906 03-02-2014 01:20:00 -0.4 C 95 % -1.1 C
1907 03-02-2014 01:25:00 -0.5 C 95 % -1.2 C
1908 03-02-2014 01:30:00 -0.6 C 95 % -1.3 C
1909 03-02-2014 01:35:00 -0.6 C 96 % -1.16 C
1910 03-02-2014 01:40:00 -0.6 C 96 % -1.16 C
1911 03-02-2014 01:45:00 -0.6 C 96 % -1.16 C
1912 03-02-2014 01:50:00 -0.7 C 96 % -1.26 C
1913 03-02-2014 01:55:00 -0.7 C 96 % -1.26 C
1914 03-02-2014 02:00:00 -0.8 C 95 % -1.5 C
1915 03-02-2014 02:05:00 -0.8 C 96 % -1.36 C
1916 03-02-2014 02:10:00 -0.8 C 96 % -1.36 C
1917 03-02-2014 02:15:00 -0.9 C 96 % -1.46 C
1918 03-02-2014 02:20:00 -0.9 C 96 % -1.46 C
1919 03-02-2014 02:25:00 -1 C 96 % -1.56 C
1920 03-02-2014 02:30:00 -1.1 C 96 % -1.66 C
1921 03-02-2014 02:35:00 -1.1 C 96 % -1.66 C
1922 03-02-2014 02:40:00 -1.1 C 96 % -1.66 C
1923 03-02-2014 02:45:00 -1.1 C 96 % -1.66 C
1924 03-02-2014 02:50:00 -1.1 C 96 % -1.66 C
1925 03-02-2014 02:55:00 -1.2 C 96 % -1.75 C
Sensor: Nr:Datum:Temp:Feuchte:Taupunkt:
Aussen-T/F 1926 03-02-2014 03:00:00 -1.2 C 96 % -1.75 C
1927 03-02-2014 03:05:00 -1.2 C 96 % -1.75 C
1928 03-02-2014 03:10:00 -1.2 C 96 % -1.75 C
1929 03-02-2014 03:15:00 -1.2 C 96 % -1.75 C
1930 03-02-2014 03:20:00 -1.2 C 96 % -1.75 C
1931 03-02-2014 03:25:00 -1.2 C 96 % -1.75 C
1932 03-02-2014 03:30:00 -1.2 C 96 % -1.75 C
1933 03-02-2014 03:35:00 -1.3 C 96 % -1.85 C
1934 03-02-2014 03:40:00 -1.3 C 96 % -1.85 C
1935 03-02-2014 03:45:00 -1.3 C 96 % -1.85 C
1936 03-02-2014 03:50:00 -1.3 C 96 % -1.85 C
1937 03-02-2014 03:55:00 -1.3 C 96 % -1.85 C
1938 03-02-2014 04:00:00 -1.4 C 96 % -1.95 C
1939 03-02-2014 04:05:00 -1.4 C 96 % -1.95 C
1940 03-02-2014 04:10:00 -1.4 C 96 % -1.95 C
1941 03-02-2014 04:15:00 -1.4 C 96 % -1.95 C
1942 03-02-2014 04:20:00 -1.4 C 96 % -1.95 C
1943 03-02-2014 04:25:00 -1.4 C 96 % -1.95 C
1944 03-02-2014 04:30:00 -1.4 C 96 % -1.95 C
1945 03-02-2014 04:35:00 -1.4 C 96 % -1.95 C
1946 03-02-2014 04:40:00 -1.4 C 96 % -1.95 C
1947 03-02-2014 04:45:00 -1.5 C 96 % -2.05 C
1948 03-02-2014 04:50:00 -1.4 C 96 % -1.95 C
1949 03-02-2014 04:55:00 -1.4 C 96 % -1.95 C
1950 03-02-2014 05:00:00 -1.4 C 96 % -1.95 C
Sensor: Nr:Datum:Temp:Feuchte:Taupunkt:
Aussen-T/F 1951 03-02-2014 05:05:00 -1.5 C 96 % -2.05 C
1952 03-02-2014 05:10:00 -1.6 C 96 % -2.15 C
1953 03-02-2014 05:15:00 -1.7 C 96 % -2.25 C
1954 03-02-2014 05:20:00 -1.7 C 96 % -2.25 C
1955 03-02-2014 05:25:00 -1.8 C 96 % -2.35 C
1956 03-02-2014 05:30:00 -1.8 C 96 % -2.35 C
1957 03-02-2014 05:35:00 -1.8 C 96 % -2.35 C
1958 03-02-2014 05:40:00 -1.8 C 96 % -2.35 C
1959 03-02-2014 05:45:00 -1.8 C 97 % -2.21 C
1960 03-02-2014 05:50:00 -1.8 C 97 % -2.21 C
1961 03-02-2014 05:55:00 -1.8 C 97 % -2.21 C
1962 03-02-2014 06:00:00 -1.8 C 97 % -2.21 C
1963 03-02-2014 06:05:00 -1.8 C 97 % -2.21 C
1964 03-02-2014 06:10:00 -1.8 C 97 % -2.21 C
1965 03-02-2014 06:15:00 -1.8 C 97 % -2.21 C
1966 03-02-2014 06:20:00 -1.8 C 97 % -2.21 C
1967 03-02-2014 06:25:00 -1.8 C 97 % -2.21 C
1968 03-02-2014 06:30:00 -1.8 C 97 % -2.21 C
1969 03-02-2014 06:35:00 -1.8 C 97 % -2.21 C
1970 03-02-2014 06:40:00 -1.8 C 97 % -2.21 C
1971 03-02-2014 06:45:00 -1.8 C 97 % -2.21 C
1972 03-02-2014 06:50:00 -1.8 C 97 % -2.21 C
1973 03-02-2014 06:55:00 -1.8 C 97 % -2.21 C
1974 03-02-2014 07:00:00 -1.8 C 97 % -2.21 C
1975 03-02-2014 07:05:00 -1.8 C 97 % -2.21 C
Sensor: Nr:Datum:Temp:Feuchte:Taupunkt:
Aussen-T/F 1976 03-02-2014 07:10:00 -1.8 C 97 % -2.21 C
1977 03-02-2014 07:15:00 -1.8 C 97 % -2.21 C
1978 03-02-2014 07:20:00 -1.9 C 97 % -2.31 C
1979 03-02-2014 07:25:00 -1.8 C 97 % -2.21 C
1980 03-02-2014 07:30:00 -1.8 C 97 % -2.21 C
1981 03-02-2014 07:35:00 -1.8 C 97 % -2.21 C
1982 03-02-2014 07:40:00 -1.8 C 97 % -2.21 C
1983 03-02-2014 07:45:00 -1.8 C 97 % -2.21 C
1984 03-02-2014 07:50:00 -1.8 C 97 % -2.21 C
1985 03-02-2014 07:55:00 -1.8 C 97 % -2.21 C
1986 03-02-2014 08:00:00 -1.9 C 97 % -2.31 C
1987 03-02-2014 08:05:00 -1.9 C 97 % -2.31 C
1988 03-02-2014 08:10:00 -1.9 C 97 % -2.31 C
1989 03-02-2014 08:15:00 -1.9 C 97 % -2.31 C
1990 03-02-2014 08:20:00 -1.9 C 97 % -2.31 C
1991 03-02-2014 08:25:00 -2 C 97 % -2.41 C
1992 03-02-2014 08:30:00 -2 C 97 % -2.41 C
1993 03-02-2014 08:35:00 -1.9 C 97 % -2.31 C
1994 03-02-2014 08:40:00 -1.9 C 97 % -2.31 C
1995 03-02-2014 08:45:00 -1.8 C 97 % -2.21 C
1996 03-02-2014 08:50:00 -1.7 C 97 % -2.11 C
1997 03-02-2014 08:55:00 -1.6 C 97 % -2.01 C
1998 03-02-2014 09:00:00 -1.5 C 97 % -1.91 C
1999 03-02-2014 09:05:00 -1.4 C 97 % -1.81 C
2000 03-02-2014 09:10:00 -1.2 C 97 % -1.61 C
Sensor: Nr:Datum:Temp:Feuchte:Taupunkt:
Aussen-T/F 2001 03-02-2014 09:15:00 -1.1 C 97 % -1.51 C
2002 03-02-2014 09:20:00 -1.1 C 97 % -1.51 C
2003 03-02-2014 09:25:00 -0.9 C 98 % -1.18 C
2004 03-02-2014 09:30:00 -0.8 C 98 % -1.08 C
2005 03-02-2014 09:35:00 -0.7 C 97 % -1.12 C
2006 03-02-2014 09:40:00 -0.6 C 98 % -0.88 C
2007 03-02-2014 09:45:00 -0.4 C 98 % -0.68 C
2008 03-02-2014 09:50:00 -0.3 C 98 % -0.58 C
2009 03-02-2014 09:55:00 -0.1 C 98 % -0.38 C
2010 03-02-2014 10:00:00 0 C 98 % -0.28 C
2011 03-02-2014 10:05:00 0.1 C 98 % -0.18 C
2012 03-02-2014 10:10:00 0.1 C 98 % -0.18 C
2013 03-02-2014 10:15:00 0.2 C 98 % -0.08 C
2014 03-02-2014 10:20:00 0.2 C 97 % -0.22 C
2015 03-02-2014 10:25:00 0.3 C 98 % 0.02 C
2016 03-02-2014 10:30:00 0.3 C 98 % 0.02 C
2017 03-02-2014 10:35:00 0.3 C 98 % 0.02 C
2018 03-02-2014 10:40:00 0.4 C 98 % 0.12 C
2019 03-02-2014 10:45:00 0.5 C 98 % 0.22 C
2020 03-02-2014 10:50:00 0.6 C 98 % 0.32 C
2021 03-02-2014 10:55:00 0.6 C 98 % 0.32 C
2022 03-02-2014 11:00:00 0.7 C 98 % 0.42 C
2023 03-02-2014 11:05:00 0.7 C 98 % 0.42 C
2024 03-02-2014 11:10:00 0.7 C 98 % 0.42 C
2025 03-02-2014 11:15:00 0.8 C 98 % 0.52 C
Sensor: Nr:Datum:Temp:Feuchte:Taupunkt:
Aussen-T/F 2026 03-02-2014 11:20:00 0.8 C 98 % 0.52 C
2027 03-02-2014 11:25:00 0.8 C 98 % 0.52 C
2028 03-02-2014 11:30:00 0.9 C 98 % 0.62 C
2029 03-02-2014 11:35:00 0.9 C 97 % 0.48 C
2030 03-02-2014 11:40:00 0.9 C 98 % 0.62 C
2031 03-02-2014 11:45:00 1.1 C 98 % 0.82 C
2032 03-02-2014 11:50:00 1.2 C 98 % 0.92 C
2033 03-02-2014 11:55:00 1.3 C 98 % 1.02 C
2034 03-02-2014 12:00:00 1.3 C 98 % 1.02 C
2035 03-02-2014 12:05:00 1.4 C 98 % 1.12 C
2036 03-02-2014 12:10:00 1.6 C 98 % 1.32 C
2037 03-02-2014 12:15:00 1.7 C 98 % 1.42 C
2038 03-02-2014 12:20:00 1.8 C 98 % 1.52 C
2039 03-02-2014 12:25:00 1.9 C 98 % 1.62 C
2040 03-02-2014 12:30:00 1.9 C 98 % 1.62 C
2041 03-02-2014 12:35:00 1.9 C 98 % 1.62 C
2042 03-02-2014 12:40:00 2 C 98 % 1.72 C
2043 03-02-2014 12:45:00 2 C 98 % 1.72 C
2044 03-02-2014 12:50:00 2.1 C 98 % 1.82 C
2045 03-02-2014 12:55:00 2.1 C 98 % 1.82 C
2046 03-02-2014 13:00:00 2.2 C 98 % 1.92 C
2047 03-02-2014 13:05:00 2.2 C 98 % 1.92 C
2048 03-02-2014 13:10:00 2.3 C 98 % 2.02 C
2049 03-02-2014 13:15:00 2.4 C 98 % 2.12 C
2050 03-02-2014 13:20:00 2.4 C 98 % 2.12 C
Sensor: Nr:Datum:Temp:Feuchte:Taupunkt:
Aussen-T/F 2051 03-02-2014 13:25:00 2.6 C 98 % 2.32 C
2052 03-02-2014 13:30:00 2.6 C 98 % 2.32 C
2053 03-02-2014 13:35:00 2.6 C 97 % 2.17 C
2054 03-02-2014 13:40:00 2.7 C 97 % 2.27 C
2055 03-02-2014 13:45:00 2.7 C 97 % 2.27 C
2056 03-02-2014 13:50:00 2.8 C 97 % 2.37 C
2057 03-02-2014 13:55:00 2.8 C 97 % 2.37 C
2058 03-02-2014 14:00:00 2.8 C 97 % 2.37 C
2059 03-02-2014 14:05:00 2.8 C 97 % 2.37 C
2060 03-02-2014 14:10:00 2.8 C 97 % 2.37 C
2061 03-02-2014 14:15:00 2.8 C 97 % 2.37 C
2062 03-02-2014 14:20:00 2.9 C 96 % 2.33 C
2063 03-02-2014 14:25:00 2.9 C 96 % 2.33 C
2064 03-02-2014 14:30:00 2.9 C 96 % 2.33 C
2065 03-02-2014 14:35:00 2.9 C 96 % 2.33 C
2066 03-02-2014 14:40:00 3 C 96 % 2.43 C
2067 03-02-2014 14:45:00 3 C 95 % 2.28 C
2068 03-02-2014 14:50:00 3.1 C 95 % 2.38 C
2069 03-02-2014 14:55:00 3.1 C 95 % 2.38 C
2070 03-02-2014 15:00:00 3.1 C 95 % 2.38 C
2071 03-02-2014 15:05:00 3.1 C 95 % 2.38 C
2072 03-02-2014 15:10:00 3.2 C 95 % 2.48 C
2073 03-02-2014 15:15:00 3.2 C 95 % 2.48 C
2074 03-02-2014 15:20:00 3.2 C 95 % 2.48 C
2075 03-02-2014 15:25:00 3.2 C 94 % 2.33 C
Sensor: Nr:Datum:Temp:Feuchte:Taupunkt:
Aussen-T/F 2076 03-02-2014 15:30:00 3.3 C 94 % 2.43 C
2077 03-02-2014 15:35:00 3.3 C 94 % 2.43 C
2078 03-02-2014 15:40:00 3.3 C 94 % 2.43 C
2079 03-02-2014 15:45:00 3.3 C 94 % 2.43 C
2080 03-02-2014 15:50:00 3.3 C 94 % 2.43 C
2081 03-02-2014 15:55:00 3.3 C 94 % 2.43 C
2082 03-02-2014 16:00:00 3.3 C 94 % 2.43 C
2083 03-02-2014 16:05:00 3.3 C 94 % 2.43 C
2084 03-02-2014 16:10:00 3.3 C 94 % 2.43 C
2085 03-02-2014 16:15:00 3.3 C 94 % 2.43 C
2086 03-02-2014 16:20:00 3.4 C 94 % 2.53 C
2087 03-02-2014 16:25:00 3.4 C 94 % 2.53 C
2088 03-02-2014 16:30:00 3.4 C 94 % 2.53 C
2089 03-02-2014 16:35:00 3.4 C 94 % 2.53 C
2090 03-02-2014 16:40:00 3.4 C 94 % 2.53 C
2091 03-02-2014 16:45:00 3.3 C 94 % 2.43 C
2092 03-02-2014 16:50:00 3.3 C 94 % 2.43 C
2093 03-02-2014 16:55:00 3.3 C 94 % 2.43 C
2094 03-02-2014 17:00:00 3.3 C 94 % 2.43 C
2095 03-02-2014 17:05:00 3.3 C 94 % 2.43 C
2096 03-02-2014 17:10:00 3.3 C 94 % 2.43 C
2097 03-02-2014 17:15:00 3.3 C 94 % 2.43 C
2098 03-02-2014 17:20:00 3.3 C 94 % 2.43 C
2099 03-02-2014 17:25:00 3.3 C 95 % 2.58 C
2100 03-02-2014 17:30:00 3.2 C 95 % 2.48 C
Sensor: Nr:Datum:Temp:Feuchte:Taupunkt:
Aussen-T/F 2101 03-02-2014 17:35:00 3.2 C 95 % 2.48 C
2102 03-02-2014 17:40:00 3.2 C 95 % 2.48 C
2103 03-02-2014 17:45:00 3.2 C 95 % 2.48 C
2104 03-02-2014 17:50:00 3.2 C 95 % 2.48 C
2105 03-02-2014 17:55:00 3.2 C 95 % 2.48 C
2106 03-02-2014 18:00:00 3.2 C 95 % 2.48 C
2107 03-02-2014 18:05:00 3.2 C 95 % 2.48 C
2108 03-02-2014 18:10:00 3.2 C 95 % 2.48 C
2109 03-02-2014 18:15:00 3.2 C 95 % 2.48 C
2110 03-02-2014 18:20:00 3.2 C 95 % 2.48 C
2111 03-02-2014 18:25:00 3.2 C 95 % 2.48 C
2112 03-02-2014 18:30:00 3.3 C 95 % 2.58 C
2113 03-02-2014 18:35:00 3.3 C 95 % 2.58 C
2114 03-02-2014 18:40:00 3.3 C 95 % 2.58 C
2115 03-02-2014 18:45:00 3.3 C 95 % 2.58 C
2116 03-02-2014 18:50:00 3.3 C 95 % 2.58 C
2117 03-02-2014 18:55:00 3.3 C 95 % 2.58 C
2118 03-02-2014 19:00:00 3.3 C 95 % 2.58 C
2119 03-02-2014 19:05:00 3.3 C 95 % 2.58 C
2120 03-02-2014 19:10:00 3.3 C 95 % 2.58 C
2121 03-02-2014 19:15:00 3.3 C 95 % 2.58 C
2122 03-02-2014 19:20:00 3.3 C 95 % 2.58 C
2123 03-02-2014 19:25:00 3.4 C 95 % 2.68 C
2124 03-02-2014 19:30:00 3.4 C 95 % 2.68 C
2125 03-02-2014 19:35:00 3.4 C 95 % 2.68 C
Sensor: Nr:Datum:Temp:Feuchte:Taupunkt:
Aussen-T/F 2126 03-02-2014 19:40:00 3.4 C 94 % 2.53 C
2127 03-02-2014 19:45:00 3.4 C 94 % 2.53 C
2128 03-02-2014 19:50:00 3.4 C 94 % 2.53 C
2129 03-02-2014 19:55:00 3.4 C 94 % 2.53 C
2130 03-02-2014 20:00:00 3.3 C 94 % 2.43 C
2131 03-02-2014 20:05:00 3.2 C 93 % 2.18 C
2132 03-02-2014 20:10:00 3.1 C 93 % 2.08 C
2133 03-02-2014 20:15:00 2.9 C 93 % 1.88 C
2134 03-02-2014 20:20:00 2.7 C 93 % 1.68 C
2135 03-02-2014 20:25:00 2.6 C 94 % 1.73 C
2136 03-02-2014 20:30:00 2.6 C 94 % 1.73 C
2137 03-02-2014 20:35:00 2.5 C 94 % 1.63 C
2138 03-02-2014 20:40:00 2.5 C 94 % 1.63 C
2139 03-02-2014 20:45:00 2.5 C 94 % 1.63 C
2140 03-02-2014 20:50:00 2.5 C 94 % 1.63 C
2141 03-02-2014 20:55:00 2.5 C 94 % 1.63 C
2142 03-02-2014 21:00:00 2.4 C 94 % 1.54 C
2143 03-02-2014 21:05:00 2.3 C 94 % 1.44 C
2144 03-02-2014 21:10:00 2.3 C 94 % 1.44 C
2145 03-02-2014 21:15:00 2.4 C 94 % 1.54 C
2146 03-02-2014 21:20:00 2.3 C 94 % 1.44 C
2147 03-02-2014 21:25:00 2.3 C 94 % 1.44 C
2148 03-02-2014 21:30:00 2.3 C 94 % 1.44 C
2149 03-02-2014 21:35:00 2.4 C 94 % 1.54 C
2150 03-02-2014 21:40:00 2.4 C 94 % 1.54 C
Sensor: Nr:Datum:Temp:Feuchte:Taupunkt:
Aussen-T/F 2151 03-02-2014 21:45:00 2.5 C 94 % 1.63 C
2152 03-02-2014 21:50:00 2.6 C 94 % 1.73 C
2153 03-02-2014 21:55:00 2.8 C 94 % 1.93 C
2154 03-02-2014 22:00:00 2.8 C 94 % 1.93 C
2155 03-02-2014 22:05:00 2.9 C 94 % 2.03 C
2156 03-02-2014 22:10:00 3.1 C 93 % 2.08 C
2157 03-02-2014 22:15:00 3.3 C 92 % 2.13 C
2158 03-02-2014 22:20:00 3.6 C 91 % 2.27 C
2159 03-02-2014 22:25:00 3.5 C 91 % 2.17 C
2160 03-02-2014 22:30:00 3.6 C 90 % 2.12 C
2161 03-02-2014 22:35:00 3.6 C 90 % 2.12 C
2162 03-02-2014 22:40:00 3.7 C 90 % 2.22 C
2163 03-02-2014 22:45:00 3.8 C 89 % 2.16 C
2164 03-02-2014 22:50:00 3.7 C 89 % 2.06 C
2165 03-02-2014 22:55:00 3.6 C 90 % 2.12 C
2166 03-02-2014 23:00:00 3.4 C 90 % 1.92 C
2167 03-02-2014 23:05:00 3.3 C 90 % 1.82 C
2168 03-02-2014 23:10:00 3.3 C 91 % 1.98 C
2169 03-02-2014 23:15:00 3.2 C 90 % 1.72 C
2170 03-02-2014 23:20:00 3.1 C 90 % 1.62 C
2171 03-02-2014 23:25:00 3 C 91 % 1.68 C
2172 03-02-2014 23:30:00 3 C 91 % 1.68 C
2173 03-02-2014 23:35:00 2.9 C 92 % 1.73 C
2174 03-02-2014 23:40:00 2.8 C 91 % 1.48 C
2175 03-02-2014 23:45:00 2.6 C 92 % 1.43 C
Sensor: Nr:Datum:Temp:Feuchte:Taupunkt:
Aussen-T/F 2176 03-02-2014 23:50:00 2.4 C 92 % 1.24 C
2177 03-02-2014 23:55:00 2.3 C 93 % 1.29 C
2178 04-02-2014 00:00:00 2.4 C 93 % 1.39 C
2179 04-02-2014 00:05:00 2.4 C 93 % 1.39 C
2180 04-02-2014 00:10:00 2.6 C 94 % 1.73 C
2181 04-02-2014 00:15:00 2.7 C 93 % 1.68 C
2182 04-02-2014 00:20:00 2.8 C 93 % 1.78 C
2183 04-02-2014 00:25:00 3 C 93 % 1.98 C
2184 04-02-2014 00:30:00 3 C 92 % 1.83 C
2185 04-02-2014 00:35:00 3.1 C 92 % 1.93 C
2186 04-02-2014 00:40:00 2.9 C 91 % 1.58 C
2187 04-02-2014 00:45:00 2.8 C 91 % 1.48 C
2188 04-02-2014 00:50:00 2.6 C 92 % 1.43 C
2189 04-02-2014 00:55:00 2.5 C 92 % 1.34 C
2190 04-02-2014 01:00:00 2.4 C 92 % 1.24 C
2191 04-02-2014 01:05:00 2.4 C 93 % 1.39 C
2192 04-02-2014 01:10:00 2.3 C 93 % 1.29 C
2193 04-02-2014 01:15:00 2.4 C 93 % 1.39 C
2194 04-02-2014 01:20:00 2.6 C 93 % 1.59 C
2195 04-02-2014 01:25:00 2.8 C 93 % 1.78 C
2196 04-02-2014 01:30:00 2.8 C 92 % 1.63 C
2197 04-02-2014 01:35:00 2.8 C 92 % 1.63 C
2198 04-02-2014 01:40:00 2.8 C 92 % 1.63 C
2199 04-02-2014 01:45:00 2.7 C 92 % 1.53 C
2200 04-02-2014 01:50:00 2.5 C 92 % 1.34 C
Sensor: Nr:Datum:Temp:Feuchte:Taupunkt:
Aussen-T/F 2201 04-02-2014 01:55:00 2.4 C 93 % 1.39 C
2202 04-02-2014 02:00:00 2.3 C 93 % 1.29 C
2203 04-02-2014 02:05:00 2.3 C 93 % 1.29 C
2204 04-02-2014 02:10:00 2.3 C 94 % 1.44 C
2205 04-02-2014 02:15:00 2.4 C 94 % 1.54 C
2206 04-02-2014 02:20:00 2.4 C 94 % 1.54 C
2207 04-02-2014 02:25:00 2.4 C 93 % 1.39 C
2208 04-02-2014 02:30:00 2.4 C 93 % 1.39 C
2209 04-02-2014 02:35:00 2.4 C 93 % 1.39 C
2210 04-02-2014 02:40:00 2.4 C 94 % 1.54 C
2211 04-02-2014 02:45:00 2.4 C 94 % 1.54 C
2212 04-02-2014 02:50:00 2.5 C 94 % 1.63 C
2213 04-02-2014 02:55:00 2.6 C 94 % 1.73 C
2214 04-02-2014 03:00:00 2.6 C 94 % 1.73 C
2215 04-02-2014 03:05:00 2.6 C 93 % 1.59 C
2216 04-02-2014 03:10:00 2.6 C 94 % 1.73 C
2217 04-02-2014 03:15:00 2.7 C 93 % 1.68 C
2218 04-02-2014 03:20:00 2.7 C 93 % 1.68 C
2219 04-02-2014 03:25:00 2.6 C 93 % 1.59 C
2220 04-02-2014 03:30:00 2.5 C 93 % 1.49 C
2221 04-02-2014 03:35:00 2.4 C 93 % 1.39 C
2222 04-02-2014 03:40:00 2.3 C 93 % 1.29 C
2223 04-02-2014 03:45:00 2.2 C 94 % 1.34 C
2224 04-02-2014 03:50:00 2.1 C 93 % 1.09 C
2225 04-02-2014 03:55:00 2 C 94 % 1.14 C
Sensor: Nr:Datum:Temp:Feuchte:Taupunkt:
Aussen-T/F 2226 04-02-2014 04:00:00 1.9 C 94 % 1.04 C
2227 04-02-2014 04:05:00 2 C 94 % 1.14 C
2228 04-02-2014 04:10:00 2 C 94 % 1.14 C
2229 04-02-2014 04:15:00 2.1 C 94 % 1.24 C
2230 04-02-2014 04:20:00 2.2 C 95 % 1.48 C
2231 04-02-2014 04:25:00 2.1 C 94 % 1.24 C
2232 04-02-2014 04:30:00 2.1 C 94 % 1.24 C
2233 04-02-2014 04:35:00 2 C 94 % 1.14 C
2234 04-02-2014 04:40:00 1.9 C 94 % 1.04 C
2235 04-02-2014 04:45:00 1.8 C 94 % 0.94 C
2236 04-02-2014 04:50:00 1.8 C 94 % 0.94 C
2237 04-02-2014 04:55:00 1.7 C 94 % 0.84 C
2238 04-02-2014 05:00:00 1.6 C 94 % 0.74 C
2239 04-02-2014 05:05:00 1.6 C 95 % 0.89 C
2240 04-02-2014 05:10:00 1.5 C 95 % 0.79 C
2241 04-02-2014 05:15:00 1.5 C 95 % 0.79 C
2242 04-02-2014 05:20:00 1.6 C 95 % 0.89 C
2243 04-02-2014 05:25:00 1.6 C 95 % 0.89 C
2244 04-02-2014 05:30:00 1.6 C 95 % 0.89 C
2245 04-02-2014 05:35:00 1.7 C 95 % 0.99 C
2246 04-02-2014 05:40:00 1.8 C 95 % 1.09 C
2247 04-02-2014 05:45:00 1.8 C 95 % 1.09 C
2248 04-02-2014 05:50:00 1.9 C 96 % 1.33 C
2249 04-02-2014 05:55:00 1.9 C 96 % 1.33 C
2250 04-02-2014 06:00:00 1.9 C 96 % 1.33 C
Sensor: Nr:Datum:Temp:Feuchte:Taupunkt:
Aussen-T/F 2251 04-02-2014 06:05:00 2.2 C 96 % 1.63 C
2252 04-02-2014 06:10:00 2.3 C 96 % 1.73 C
2253 04-02-2014 06:15:00 2.3 C 95 % 1.58 C
2254 04-02-2014 06:20:00 2.5 C 95 % 1.78 C
2255 04-02-2014 06:25:00 2.5 C 95 % 1.78 C
2256 04-02-2014 06:30:00 2.5 C 95 % 1.78 C
2257 04-02-2014 06:35:00 2.4 C 95 % 1.68 C
2258 04-02-2014 06:40:00 2.4 C 95 % 1.68 C
2259 04-02-2014 06:45:00 2.4 C 95 % 1.68 C
2260 04-02-2014 06:50:00 2.5 C 95 % 1.78 C
2261 04-02-2014 06:55:00 2.5 C 95 % 1.78 C
2262 04-02-2014 07:00:00 2.6 C 95 % 1.88 C
2263 04-02-2014 07:05:00 2.6 C 95 % 1.88 C
2264 04-02-2014 07:10:00 2.7 C 95 % 1.98 C
2265 04-02-2014 07:15:00 2.7 C 95 % 1.98 C
2266 04-02-2014 07:20:00 2.7 C 95 % 1.98 C
2267 04-02-2014 07:25:00 2.8 C 95 % 2.08 C
2268 04-02-2014 07:30:00 2.9 C 95 % 2.18 C
2269 04-02-2014 07:35:00 2.9 C 95 % 2.18 C
2270 04-02-2014 07:40:00 2.9 C 95 % 2.18 C
2271 04-02-2014 07:45:00 3 C 95 % 2.28 C
2272 04-02-2014 07:50:00 3 C 95 % 2.28 C
2273 04-02-2014 07:55:00 3.1 C 95 % 2.38 C
2274 04-02-2014 08:00:00 3.1 C 95 % 2.38 C
2275 04-02-2014 08:05:00 3.2 C 95 % 2.48 C
Sensor: Nr:Datum:Temp:Feuchte:Taupunkt:
Aussen-T/F 2276 04-02-2014 08:10:00 3.2 C 94 % 2.33 C
2277 04-02-2014 08:15:00 3.2 C 94 % 2.33 C
2278 04-02-2014 08:20:00 3.2 C 94 % 2.33 C
2279 04-02-2014 08:25:00 3.2 C 94 % 2.33 C
2280 04-02-2014 08:30:00 3.2 C 94 % 2.33 C
2281 04-02-2014 08:35:00 3.3 C 94 % 2.43 C
2282 04-02-2014 08:40:00 3.3 C 94 % 2.43 C
2283 04-02-2014 08:45:00 3.4 C 94 % 2.53 C
2284 04-02-2014 08:50:00 3.5 C 94 % 2.63 C
2285 04-02-2014 08:55:00 3.8 C 92 % 2.62 C
2286 04-02-2014 09:00:00 4 C 91 % 2.67 C
2287 04-02-2014 09:05:00 4.2 C 90 % 2.71 C
2288 04-02-2014 09:10:00 4.5 C 89 % 2.85 C
2289 04-02-2014 09:15:00 4.7 C 88 % 2.89 C
2290 04-02-2014 09:20:00 4.9 C 86 % 2.76 C
2291 04-02-2014 09:25:00 5.2 C 86 % 3.05 C
2292 04-02-2014 09:30:00 5.2 C 85 % 2.89 C
2293 04-02-2014 09:35:00 5.2 C 85 % 2.89 C
2294 04-02-2014 09:40:00 5.3 C 85 % 2.99 C
2295 04-02-2014 09:45:00 5.4 C 85 % 3.09 C
2296 04-02-2014 09:50:00 5.4 C 85 % 3.09 C
2297 04-02-2014 09:55:00 5.4 C 85 % 3.09 C
2298 04-02-2014 10:00:00 5.5 C 85 % 3.18 C
2299 04-02-2014 10:05:00 5.6 C 84 % 3.12 C
2300 04-02-2014 10:10:00 5.7 C 84 % 3.21 C
Sensor: Nr:Datum:Temp:Feuchte:Taupunkt:
Aussen-T/F 2301 04-02-2014 10:15:00 5.7 C 84 % 3.21 C
2302 04-02-2014 10:20:00 5.8 C 84 % 3.31 C
2303 04-02-2014 10:25:00 6 C 83 % 3.34 C
2304 04-02-2014 10:30:00 6.1 C 83 % 3.44 C
2305 04-02-2014 10:35:00 6.2 C 82 % 3.36 C
2306 04-02-2014 10:40:00 6.2 C 82 % 3.36 C
2307 04-02-2014 10:45:00 6.2 C 82 % 3.36 C
2308 04-02-2014 10:50:00 6.2 C 82 % 3.36 C
2309 04-02-2014 10:55:00 6.3 C 82 % 3.46 C
2310 04-02-2014 11:00:00 6.3 C 82 % 3.46 C
2311 04-02-2014 11:05:00 6.2 C 82 % 3.36 C
2312 04-02-2014 11:10:00 6.2 C 82 % 3.36 C
2313 04-02-2014 11:15:00 6.2 C 82 % 3.36 C
2314 04-02-2014 11:20:00 6.2 C 82 % 3.36 C
2315 04-02-2014 11:25:00 6.2 C 82 % 3.36 C
2316 04-02-2014 11:30:00 6.2 C 83 % 3.53 C
2317 04-02-2014 11:35:00 6.2 C 83 % 3.53 C
2318 04-02-2014 11:40:00 6.2 C 83 % 3.53 C
2319 04-02-2014 11:45:00 6.3 C 83 % 3.63 C
2320 04-02-2014 11:50:00 6.3 C 83 % 3.63 C
2321 04-02-2014 11:55:00 6.4 C 82 % 3.56 C
2322 04-02-2014 12:00:00 6.5 C 82 % 3.66 C
2323 04-02-2014 12:05:00 6.6 C 82 % 3.75 C
2324 04-02-2014 12:10:00 6.6 C 82 % 3.75 C
2325 04-02-2014 12:15:00 6.6 C 82 % 3.75 C
Sensor: Nr:Datum:Temp:Feuchte:Taupunkt:
Aussen-T/F 2326 04-02-2014 12:20:00 6.7 C 82 % 3.85 C
2327 04-02-2014 12:25:00 6.7 C 81 % 3.68 C
2328 04-02-2014 12:30:00 6.8 C 81 % 3.77 C
2329 04-02-2014 12:35:00 6.9 C 81 % 3.87 C
2330 04-02-2014 12:40:00 7.1 C 81 % 4.07 C
2331 04-02-2014 12:45:00 7.1 C 80 % 3.89 C
2332 04-02-2014 12:50:00 7.2 C 80 % 3.99 C
2333 04-02-2014 12:55:00 7.3 C 80 % 4.09 C
2334 04-02-2014 13:00:00 7.3 C 79 % 3.91 C
2335 04-02-2014 13:05:00 7.3 C 80 % 4.09 C
2336 04-02-2014 13:10:00 7.3 C 81 % 4.26 C
2337 04-02-2014 13:15:00 7.3 C 80 % 4.09 C
2338 04-02-2014 13:20:00 7.3 C 80 % 4.09 C
2339 04-02-2014 13:25:00 7.4 C 79 % 4 C
2340 04-02-2014 13:30:00 7.5 C 78 % 3.92 C
2341 04-02-2014 13:35:00 7.6 C 80 % 4.38 C
2342 04-02-2014 13:40:00 7.7 C 80 % 4.47 C
2343 04-02-2014 13:45:00 7.7 C 79 % 4.3 C
2344 04-02-2014 13:50:00 7.8 C 78 % 4.21 C
2345 04-02-2014 13:55:00 7.8 C 79 % 4.39 C
2346 04-02-2014 14:00:00 7.8 C 80 % 4.57 C
2347 04-02-2014 14:05:00 7.9 C 79 % 4.49 C
2348 04-02-2014 14:10:00 8.1 C 79 % 4.68 C
2349 04-02-2014 14:15:00 8.2 C 79 % 4.78 C
2350 04-02-2014 14:20:00 8.2 C 77 % 4.42 C
Sensor: Nr:Datum:Temp:Feuchte:Taupunkt:
Aussen-T/F 2351 04-02-2014 14:25:00 8.2 C 79 % 4.78 C
2352 04-02-2014 14:30:00 8.2 C 78 % 4.6 C
2353 04-02-2014 14:35:00 8.3 C 78 % 4.7 C
2354 04-02-2014 14:40:00 8.4 C 76 % 4.42 C
2355 04-02-2014 14:45:00 8.4 C 78 % 4.79 C
2356 04-02-2014 14:50:00 8.3 C 79 % 4.88 C
2357 04-02-2014 14:55:00 7.7 C 81 % 4.65 C
2358 04-02-2014 15:00:00 7.3 C 82 % 4.44 C
2359 04-02-2014 15:05:00 7.1 C 85 % 4.75 C
2360 04-02-2014 15:10:00 7.1 C 86 % 4.92 C
2361 04-02-2014 15:15:00 7.1 C 85 % 4.75 C
2362 04-02-2014 15:20:00 7 C 86 % 4.82 C
2363 04-02-2014 15:25:00 7.1 C 86 % 4.92 C
2364 04-02-2014 15:30:00 7.1 C 86 % 4.92 C
2365 04-02-2014 15:35:00 7.2 C 87 % 5.19 C
2366 04-02-2014 15:40:00 7.3 C 86 % 5.12 C
2367 04-02-2014 15:45:00 7.5 C 86 % 5.31 C
2368 04-02-2014 15:50:00 7.7 C 85 % 5.34 C
2369 04-02-2014 15:55:00 7.7 C 84 % 5.17 C
2370 04-02-2014 16:00:00 7.6 C 83 % 4.9 C
2371 04-02-2014 16:05:00 7.5 C 83 % 4.81 C
2372 04-02-2014 16:10:00 7.3 C 84 % 4.78 C
2373 04-02-2014 16:15:00 7.2 C 84 % 4.68 C
2374 04-02-2014 16:20:00 7.2 C 83 % 4.51 C
2375 04-02-2014 16:25:00 7.2 C 83 % 4.51 C
Sensor: Nr:Datum:Temp:Feuchte:Taupunkt:
Aussen-T/F 2376 04-02-2014 16:30:00 7.2 C 85 % 4.85 C
2377 04-02-2014 16:35:00 7.1 C 85 % 4.75 C
2378 04-02-2014 16:40:00 7.1 C 86 % 4.92 C
2379 04-02-2014 16:45:00 7 C 86 % 4.82 C
2380 04-02-2014 16:50:00 6.9 C 86 % 4.72 C
2381 04-02-2014 16:55:00 6.8 C 87 % 4.79 C
2382 04-02-2014 17:00:00 6.5 C 86 % 4.33 C
2383 04-02-2014 17:05:00 6.2 C 87 % 4.2 C
2384 04-02-2014 17:10:00 6 C 87 % 4 C
2385 04-02-2014 17:15:00 5.9 C 88 % 4.07 C
2386 04-02-2014 17:20:00 5.7 C 88 % 3.87 C
2387 04-02-2014 17:25:00 5.7 C 88 % 3.87 C
2388 04-02-2014 17:30:00 5.6 C 89 % 3.93 C
2389 04-02-2014 17:35:00 5.6 C 89 % 3.93 C
2390 04-02-2014 17:40:00 5.7 C 88 % 3.87 C
2391 04-02-2014 17:45:00 5.7 C 87 % 3.71 C
2392 04-02-2014 17:50:00 5.6 C 87 % 3.61 C
2393 04-02-2014 17:55:00 5.4 C 88 % 3.58 C
2394 04-02-2014 18:00:00 5.4 C 88 % 3.58 C
2395 04-02-2014 18:05:00 5.3 C 89 % 3.64 C
2396 04-02-2014 18:10:00 5.4 C 89 % 3.74 C
2397 04-02-2014 18:15:00 5.3 C 90 % 3.8 C
2398 04-02-2014 18:20:00 5.3 C 90 % 3.8 C
2399 04-02-2014 18:25:00 5.3 C 90 % 3.8 C
2400 04-02-2014 18:30:00 5.3 C 90 % 3.8 C
Sensor: Nr:Datum:Temp:Feuchte:Taupunkt:
Aussen-T/F 2401 04-02-2014 18:35:00 5.3 C 90 % 3.8 C
2402 04-02-2014 18:40:00 5.2 C 91 % 3.85 C
2403 04-02-2014 18:45:00 5.2 C 91 % 3.85 C
2404 04-02-2014 18:50:00 5.1 C 90 % 3.6 C
2405 04-02-2014 18:55:00 5.1 C 90 % 3.6 C
2406 04-02-2014 19:00:00 5 C 90 % 3.5 C
2407 04-02-2014 19:05:00 4.9 C 90 % 3.4 C
2408 04-02-2014 19:10:00 4.7 C 89 % 3.05 C
2409 04-02-2014 19:15:00 4.5 C 90 % 3.01 C
2410 04-02-2014 19:20:00 4.2 C 90 % 2.71 C
2411 04-02-2014 19:25:00 4.1 C 91 % 2.77 C
2412 04-02-2014 19:30:00 4.2 C 92 % 3.02 C
2413 04-02-2014 19:35:00 4.3 C 91 % 2.96 C
2414 04-02-2014 19:40:00 4.1 C 91 % 2.77 C
2415 04-02-2014 19:45:00 3.9 C 91 % 2.57 C
2416 04-02-2014 19:50:00 3.8 C 92 % 2.62 C
2417 04-02-2014 19:55:00 3.7 C 92 % 2.52 C
2418 04-02-2014 20:00:00 3.6 C 92 % 2.42 C
2419 04-02-2014 20:05:00 3.5 C 93 % 2.48 C
2420 04-02-2014 20:10:00 3.6 C 94 % 2.73 C
2421 04-02-2014 20:15:00 3.7 C 94 % 2.83 C
2422 04-02-2014 20:20:00 3.7 C 93 % 2.68 C
2423 04-02-2014 20:25:00 3.6 C 93 % 2.58 C
2424 04-02-2014 20:30:00 3.5 C 93 % 2.48 C
2425 04-02-2014 20:35:00 3.4 C 93 % 2.38 C
Sensor: Nr:Datum:Temp:Feuchte:Taupunkt:
Aussen-T/F 2426 04-02-2014 20:40:00 3.4 C 93 % 2.38 C
2427 04-02-2014 20:45:00 3.3 C 94 % 2.43 C
2428 04-02-2014 20:50:00 3.3 C 94 % 2.43 C
2429 04-02-2014 20:55:00 3.2 C 94 % 2.33 C
2430 04-02-2014 21:00:00 3.1 C 94 % 2.23 C
2431 04-02-2014 21:05:00 3.2 C 95 % 2.48 C
2432 04-02-2014 21:10:00 3.3 C 94 % 2.43 C
2433 04-02-2014 21:15:00 3.1 C 94 % 2.23 C
2434 04-02-2014 21:20:00 3 C 94 % 2.13 C
2435 04-02-2014 21:25:00 2.9 C 94 % 2.03 C
2436 04-02-2014 21:30:00 2.8 C 94 % 1.93 C
2437 04-02-2014 21:35:00 2.8 C 94 % 1.93 C
2438 04-02-2014 21:40:00 2.8 C 95 % 2.08 C
2439 04-02-2014 21:45:00 2.8 C 94 % 1.93 C
2440 04-02-2014 21:50:00 2.7 C 94 % 1.83 C
2441 04-02-2014 21:55:00 2.6 C 94 % 1.73 C
2442 04-02-2014 22:00:00 2.7 C 95 % 1.98 C
2443 04-02-2014 22:05:00 2.7 C 95 % 1.98 C
2444 04-02-2014 22:10:00 2.5 C 95 % 1.78 C
2445 04-02-2014 22:15:00 2.5 C 95 % 1.78 C
2446 04-02-2014 22:20:00 2.6 C 95 % 1.88 C
2447 04-02-2014 22:25:00 2.6 C 95 % 1.88 C
2448 04-02-2014 22:30:00 2.5 C 95 % 1.78 C
2449 04-02-2014 22:35:00 2.5 C 95 % 1.78 C
2450 04-02-2014 22:40:00 2.4 C 95 % 1.68 C
Sensor: Nr:Datum:Temp:Feuchte:Taupunkt:
Aussen-T/F 2451 04-02-2014 22:45:00 2.4 C 95 % 1.68 C
2452 04-02-2014 22:50:00 2.4 C 95 % 1.68 C
2453 04-02-2014 22:55:00 2.4 C 95 % 1.68 C
2454 04-02-2014 23:00:00 2.4 C 95 % 1.68 C
2455 04-02-2014 23:05:00 2.3 C 95 % 1.58 C
2456 04-02-2014 23:10:00 2.3 C 95 % 1.58 C
2457 04-02-2014 23:15:00 2.2 C 96 % 1.63 C
2458 04-02-2014 23:20:00 2.3 C 96 % 1.73 C
2459 04-02-2014 23:25:00 2.3 C 96 % 1.73 C
2460 04-02-2014 23:30:00 2.3 C 96 % 1.73 C
2461 04-02-2014 23:35:00 2.2 C 96 % 1.63 C
2462 04-02-2014 23:40:00 2.2 C 96 % 1.63 C
2463 04-02-2014 23:45:00 2.2 C 96 % 1.63 C
2464 04-02-2014 23:50:00 2.3 C 96 % 1.73 C
2465 04-02-2014 23:55:00 2.3 C 96 % 1.73 C
2466 05-02-2014 00:00:00 2.3 C 96 % 1.73 C
2467 05-02-2014 00:05:00 2.3 C 96 % 1.73 C
2468 05-02-2014 00:10:00 2.3 C 96 % 1.73 C
2469 05-02-2014 00:15:00 2.3 C 96 % 1.73 C
2470 05-02-2014 00:20:00 2.3 C 96 % 1.73 C
2471 05-02-2014 00:25:00 2.2 C 96 % 1.63 C
2472 05-02-2014 00:30:00 2.2 C 96 % 1.63 C
2473 05-02-2014 00:35:00 2.2 C 96 % 1.63 C
2474 05-02-2014 00:40:00 2.2 C 96 % 1.63 C
2475 05-02-2014 00:45:00 2.3 C 96 % 1.73 C
Sensor: Nr:Datum:Temp:Feuchte:Taupunkt:
Aussen-T/F 2476 05-02-2014 00:50:00 2.2 C 96 % 1.63 C
2477 05-02-2014 00:55:00 2.2 C 96 % 1.63 C
2478 05-02-2014 01:00:00 2.2 C 96 % 1.63 C
2479 05-02-2014 01:05:00 2.2 C 96 % 1.63 C
2480 05-02-2014 01:10:00 2.1 C 96 % 1.53 C
2481 05-02-2014 01:15:00 2 C 96 % 1.43 C
2482 05-02-2014 01:20:00 2.1 C 96 % 1.53 C
2483 05-02-2014 01:25:00 2.1 C 96 % 1.53 C
2484 05-02-2014 01:30:00 2.3 C 96 % 1.73 C
2485 05-02-2014 01:35:00 2.2 C 96 % 1.63 C
2486 05-02-2014 01:40:00 2.2 C 96 % 1.63 C
2487 05-02-2014 01:45:00 2.2 C 96 % 1.63 C
2488 05-02-2014 01:50:00 2.1 C 96 % 1.53 C
2489 05-02-2014 01:55:00 1.9 C 96 % 1.33 C
2490 05-02-2014 02:00:00 1.9 C 96 % 1.33 C
2491 05-02-2014 02:05:00 1.9 C 96 % 1.33 C
2492 05-02-2014 02:10:00 1.9 C 96 % 1.33 C
2493 05-02-2014 02:15:00 2 C 96 % 1.43 C
2494 05-02-2014 02:20:00 2 C 96 % 1.43 C
2495 05-02-2014 02:25:00 2.2 C 96 % 1.63 C
2496 05-02-2014 02:30:00 2.2 C 96 % 1.63 C
2497 05-02-2014 02:35:00 2.2 C 96 % 1.63 C
2498 05-02-2014 02:40:00 2.2 C 96 % 1.63 C
2499 05-02-2014 02:45:00 2.1 C 96 % 1.53 C
2500 05-02-2014 02:50:00 2.2 C 96 % 1.63 C
Sensor: Nr:Datum:Temp:Feuchte:Taupunkt:
Aussen-T/F 2501 05-02-2014 02:55:00 2.4 C 96 % 1.83 C
2502 05-02-2014 03:00:00 2.4 C 96 % 1.83 C
2503 05-02-2014 03:05:00 2.4 C 95 % 1.68 C
2504 05-02-2014 03:10:00 2.4 C 95 % 1.68 C
2505 05-02-2014 03:15:00 2.3 C 95 % 1.58 C
2506 05-02-2014 03:20:00 2.2 C 95 % 1.48 C
2507 05-02-2014 03:25:00 2.4 C 96 % 1.83 C
2508 05-02-2014 03:30:00 2.7 C 96 % 2.13 C
2509 05-02-2014 03:35:00 3.2 C 95 % 2.48 C
2510 05-02-2014 03:40:00 3.2 C 93 % 2.18 C
2511 05-02-2014 03:45:00 2.9 C 93 % 1.88 C
2512 05-02-2014 03:50:00 2.9 C 94 % 2.03 C
2513 05-02-2014 03:55:00 3 C 94 % 2.13 C
2514 05-02-2014 04:00:00 2.9 C 93 % 1.88 C
2515 05-02-2014 04:05:00 2.8 C 93 % 1.78 C
2516 05-02-2014 04:10:00 2.8 C 93 % 1.78 C
2517 05-02-2014 04:15:00 2.6 C 93 % 1.59 C
2518 05-02-2014 04:20:00 2.8 C 94 % 1.93 C
2519 05-02-2014 04:25:00 3 C 94 % 2.13 C
2520 05-02-2014 04:30:00 3 C 93 % 1.98 C
2521 05-02-2014 04:35:00 2.8 C 93 % 1.78 C
2522 05-02-2014 04:40:00 2.8 C 93 % 1.78 C
2523 05-02-2014 04:45:00 2.8 C 93 % 1.78 C
2524 05-02-2014 04:50:00 2.7 C 93 % 1.68 C
2525 05-02-2014 04:55:00 2.6 C 93 % 1.59 C
Sensor: Nr:Datum:Temp:Feuchte:Taupunkt:
Aussen-T/F 2526 05-02-2014 05:00:00 2.5 C 93 % 1.49 C
2527 05-02-2014 05:05:00 2.4 C 93 % 1.39 C
2528 05-02-2014 05:10:00 2.4 C 94 % 1.54 C
2529 05-02-2014 05:15:00 2.7 C 95 % 1.98 C
2530 05-02-2014 05:20:00 2.9 C 94 % 2.03 C
2531 05-02-2014 05:25:00 3 C 93 % 1.98 C
2532 05-02-2014 05:30:00 3.2 C 93 % 2.18 C
2533 05-02-2014 05:35:00 3.2 C 92 % 2.03 C
2534 05-02-2014 05:40:00 3.4 C 92 % 2.23 C
2535 05-02-2014 05:45:00 3.6 C 91 % 2.27 C
2536 05-02-2014 05:50:00 3.7 C 90 % 2.22 C
2537 05-02-2014 05:55:00 3.7 C 89 % 2.06 C
2538 05-02-2014 06:00:00 3.7 C 89 % 2.06 C
2539 05-02-2014 06:05:00 3.7 C 89 % 2.06 C
2540 05-02-2014 06:10:00 3.7 C 89 % 2.06 C
2541 05-02-2014 06:15:00 3.7 C 89 % 2.06 C
2542 05-02-2014 06:20:00 3.6 C 89 % 1.96 C
2543 05-02-2014 06:25:00 3.6 C 89 % 1.96 C
2544 05-02-2014 06:30:00 3.6 C 89 % 1.96 C
2545 05-02-2014 06:35:00 3.5 C 89 % 1.86 C
2546 05-02-2014 06:40:00 3.5 C 89 % 1.86 C
2547 05-02-2014 06:45:00 3.4 C 89 % 1.76 C
2548 05-02-2014 06:50:00 3.4 C 89 % 1.76 C
2549 05-02-2014 06:55:00 3.4 C 89 % 1.76 C
2550 05-02-2014 07:00:00 3.4 C 89 % 1.76 C
Sensor: Nr:Datum:Temp:Feuchte:Taupunkt:
Aussen-T/F 2551 05-02-2014 07:05:00 3.5 C 89 % 1.86 C
2552 05-02-2014 07:10:00 3.5 C 88 % 1.7 C
2553 05-02-2014 07:15:00 3.4 C 88 % 1.61 C
2554 05-02-2014 07:20:00 3.4 C 88 % 1.61 C
2555 05-02-2014 07:25:00 3.4 C 88 % 1.61 C
2556 05-02-2014 07:30:00 3.4 C 88 % 1.61 C
2557 05-02-2014 07:35:00 3.4 C 88 % 1.61 C
2558 05-02-2014 07:40:00 3.4 C 88 % 1.61 C
2559 05-02-2014 07:45:00 3.5 C 88 % 1.7 C
2560 05-02-2014 07:50:00 3.5 C 88 % 1.7 C
2561 05-02-2014 07:55:00 3.5 C 88 % 1.7 C
2562 05-02-2014 08:00:00 3.5 C 88 % 1.7 C
2563 05-02-2014 08:05:00 3.4 C 88 % 1.61 C
2564 05-02-2014 08:10:00 3.4 C 88 % 1.61 C
2565 05-02-2014 08:15:00 3.3 C 88 % 1.51 C
2566 05-02-2014 08:20:00 3.3 C 88 % 1.51 C
2567 05-02-2014 08:25:00 3.3 C 88 % 1.51 C
2568 05-02-2014 08:30:00 3.3 C 88 % 1.51 C
2569 05-02-2014 08:35:00 3.3 C 88 % 1.51 C
2570 05-02-2014 08:40:00 3.3 C 89 % 1.67 C
2571 05-02-2014 08:45:00 3.3 C 89 % 1.67 C
2572 05-02-2014 08:50:00 3.3 C 90 % 1.82 C
2573 05-02-2014 08:55:00 3.2 C 91 % 1.88 C
2574 05-02-2014 09:00:00 3.2 C 91 % 1.88 C
2575 05-02-2014 09:05:00 3.2 C 92 % 2.03 C
Sensor: Nr:Datum:Temp:Feuchte:Taupunkt:
Aussen-T/F 2576 05-02-2014 09:10:00 3.2 C 92 % 2.03 C
2577 05-02-2014 09:15:00 3.2 C 92 % 2.03 C
2578 05-02-2014 09:20:00 3.2 C 92 % 2.03 C
2579 05-02-2014 09:25:00 3.2 C 93 % 2.18 C
2580 05-02-2014 09:30:00 3.2 C 94 % 2.33 C
2581 05-02-2014 09:35:00 3.2 C 94 % 2.33 C
2582 05-02-2014 09:40:00 3.2 C 94 % 2.33 C
2583 05-02-2014 09:45:00 3.2 C 94 % 2.33 C
2584 05-02-2014 09:50:00 3.2 C 94 % 2.33 C
2585 05-02-2014 09:55:00 3.3 C 94 % 2.43 C
2586 05-02-2014 10:00:00 3.4 C 94 % 2.53 C
2587 05-02-2014 10:05:00 3.5 C 94 % 2.63 C
2588 05-02-2014 10:10:00 3.6 C 94 % 2.73 C
2589 05-02-2014 10:15:00 3.7 C 94 % 2.83 C
2590 05-02-2014 10:20:00 3.8 C 94 % 2.93 C
2591 05-02-2014 10:25:00 3.8 C 94 % 2.93 C
2592 05-02-2014 10:30:00 3.9 C 94 % 3.02 C
2593 05-02-2014 10:35:00 4 C 94 % 3.12 C
2594 05-02-2014 10:40:00 4.1 C 94 % 3.22 C
2595 05-02-2014 10:45:00 4.2 C 95 % 3.47 C
2596 05-02-2014 10:50:00 4.3 C 94 % 3.42 C
2597 05-02-2014 10:55:00 4.4 C 94 % 3.52 C
2598 05-02-2014 11:00:00 4.5 C 95 % 3.77 C
2599 05-02-2014 11:05:00 4.6 C 94 % 3.72 C
2600 05-02-2014 11:10:00 4.7 C 94 % 3.82 C
Sensor: Nr:Datum:Temp:Feuchte:Taupunkt:
Aussen-T/F 2601 05-02-2014 11:15:00 4.8 C 94 % 3.92 C
2602 05-02-2014 11:20:00 4.9 C 93 % 3.87 C
2603 05-02-2014 11:25:00 5 C 94 % 4.12 C
2604 05-02-2014 11:30:00 5.1 C 93 % 4.06 C
2605 05-02-2014 11:35:00 5.1 C 93 % 4.06 C
2606 05-02-2014 11:40:00 5.2 C 92 % 4.01 C
2607 05-02-2014 11:45:00 5.1 C 91 % 3.76 C
2608 05-02-2014 11:50:00 5.1 C 92 % 3.91 C
2609 05-02-2014 11:55:00 5.1 C 92 % 3.91 C
2610 05-02-2014 12:00:00 5.1 C 93 % 4.06 C
2611 05-02-2014 12:05:00 5.2 C 93 % 4.16 C
2612 05-02-2014 12:10:00 5.2 C 92 % 4.01 C
2613 05-02-2014 12:15:00 5.3 C 91 % 3.95 C
2614 05-02-2014 12:20:00 5.4 C 90 % 3.89 C
2615 05-02-2014 12:25:00 5.4 C 89 % 3.74 C
2616 05-02-2014 12:30:00 5.4 C 89 % 3.74 C
2617 05-02-2014 12:35:00 5.6 C 89 % 3.93 C
2618 05-02-2014 12:40:00 5.8 C 89 % 4.13 C
2619 05-02-2014 12:45:00 6 C 89 % 4.33 C
2620 05-02-2014 12:50:00 6.2 C 88 % 4.36 C
2621 05-02-2014 12:55:00 6.4 C 88 % 4.56 C
2622 05-02-2014 13:00:00 6.6 C 86 % 4.43 C
2623 05-02-2014 13:05:00 6.7 C 85 % 4.36 C
2624 05-02-2014 13:10:00 6.7 C 85 % 4.36 C
2625 05-02-2014 13:15:00 6.7 C 84 % 4.19 C
Sensor: Nr:Datum:Temp:Feuchte:Taupunkt:
Aussen-T/F 2626 05-02-2014 13:20:00 6.6 C 85 % 4.26 C
2627 05-02-2014 13:25:00 6.6 C 84 % 4.1 C
2628 05-02-2014 13:30:00 6.6 C 85 % 4.26 C
2629 05-02-2014 13:35:00 6.6 C 85 % 4.26 C
2630 05-02-2014 13:40:00 6.7 C 86 % 4.53 C
2631 05-02-2014 13:45:00 6.7 C 86 % 4.53 C
2632 05-02-2014 13:50:00 6.9 C 85 % 4.56 C
2633 05-02-2014 13:55:00 6.9 C 85 % 4.56 C
2634 05-02-2014 14:00:00 7 C 84 % 4.49 C
2635 05-02-2014 14:05:00 7.1 C 85 % 4.75 C
2636 05-02-2014 14:10:00 7.1 C 84 % 4.58 C
2637 05-02-2014 14:15:00 7.1 C 85 % 4.75 C
2638 05-02-2014 14:20:00 7.1 C 85 % 4.75 C
2639 05-02-2014 14:25:00 7.1 C 83 % 4.41 C
2640 05-02-2014 14:30:00 7 C 84 % 4.49 C
2641 05-02-2014 14:35:00 6.9 C 85 % 4.56 C
2642 05-02-2014 14:40:00 6.9 C 85 % 4.56 C
2643 05-02-2014 14:45:00 6.8 C 86 % 4.63 C
2644 05-02-2014 14:50:00 6.7 C 86 % 4.53 C
2645 05-02-2014 14:55:00 6.6 C 86 % 4.43 C
2646 05-02-2014 15:00:00 6.4 C 87 % 4.4 C
2647 05-02-2014 15:05:00 6.3 C 87 % 4.3 C
2648 05-02-2014 15:10:00 6.3 C 88 % 4.46 C
2649 05-02-2014 15:15:00 6.3 C 88 % 4.46 C
2650 05-02-2014 15:20:00 6.2 C 88 % 4.36 C
Sensor: Nr:Datum:Temp:Feuchte:Taupunkt:
Aussen-T/F 2651 05-02-2014 15:25:00 6.2 C 88 % 4.36 C
2652 05-02-2014 15:30:00 6.2 C 88 % 4.36 C
2653 05-02-2014 15:35:00 6.2 C 88 % 4.36 C
2654 05-02-2014 15:40:00 6.2 C 87 % 4.2 C
2655 05-02-2014 15:45:00 6.2 C 87 % 4.2 C
2656 05-02-2014 15:50:00 6.2 C 88 % 4.36 C
2657 05-02-2014 15:55:00 6.3 C 87 % 4.3 C
2658 05-02-2014 16:00:00 6.4 C 86 % 4.23 C
2659 05-02-2014 16:05:00 6.3 C 86 % 4.14 C
2660 05-02-2014 16:10:00 6.3 C 85 % 3.97 C
2661 05-02-2014 16:15:00 6.1 C 86 % 3.94 C
2662 05-02-2014 16:20:00 6.1 C 86 % 3.94 C
2663 05-02-2014 16:25:00 6 C 86 % 3.84 C
2664 05-02-2014 16:30:00 5.9 C 87 % 3.91 C
2665 05-02-2014 16:35:00 5.9 C 87 % 3.91 C
2666 05-02-2014 16:40:00 5.9 C 87 % 3.91 C
2667 05-02-2014 16:45:00 5.8 C 86 % 3.64 C
2668 05-02-2014 16:50:00 5.8 C 87 % 3.81 C
2669 05-02-2014 16:55:00 5.8 C 87 % 3.81 C
2670 05-02-2014 17:00:00 5.8 C 87 % 3.81 C
2671 05-02-2014 17:05:00 5.8 C 87 % 3.81 C
2672 05-02-2014 17:10:00 5.8 C 87 % 3.81 C
2673 05-02-2014 17:15:00 5.8 C 87 % 3.81 C
2674 05-02-2014 17:20:00 5.8 C 88 % 3.97 C
2675 05-02-2014 17:25:00 5.8 C 88 % 3.97 C
Sensor: Nr:Datum:Temp:Feuchte:Taupunkt:
Aussen-T/F 2676 05-02-2014 17:30:00 5.8 C 88 % 3.97 C
2677 05-02-2014 17:35:00 5.8 C 88 % 3.97 C
2678 05-02-2014 17:40:00 5.7 C 89 % 4.03 C
2679 05-02-2014 17:45:00 5.8 C 89 % 4.13 C
2680 05-02-2014 17:50:00 5.9 C 90 % 4.39 C
2681 05-02-2014 17:55:00 5.9 C 90 % 4.39 C
2682 05-02-2014 18:00:00 6.1 C 89 % 4.43 C
2683 05-02-2014 18:05:00 6.2 C 89 % 4.53 C
2684 05-02-2014 18:10:00 6.2 C 89 % 4.53 C
2685 05-02-2014 18:15:00 6.1 C 90 % 4.59 C
2686 05-02-2014 18:20:00 6 C 91 % 4.65 C
2687 05-02-2014 18:25:00 5.9 C 91 % 4.55 C
2688 05-02-2014 18:30:00 5.9 C 91 % 4.55 C
2689 05-02-2014 18:35:00 5.9 C 90 % 4.39 C
2690 05-02-2014 18:40:00 5.9 C 90 % 4.39 C
2691 05-02-2014 18:45:00 5.8 C 90 % 4.29 C
2692 05-02-2014 18:50:00 5.7 C 90 % 4.19 C
2693 05-02-2014 18:55:00 5.7 C 90 % 4.19 C
2694 05-02-2014 19:00:00 5.6 C 90 % 4.09 C
2695 05-02-2014 19:05:00 5.6 C 91 % 4.25 C
2696 05-02-2014 19:10:00 5.6 C 90 % 4.09 C
2697 05-02-2014 19:15:00 5.6 C 90 % 4.09 C
2698 05-02-2014 19:20:00 5.8 C 90 % 4.29 C
2699 05-02-2014 19:25:00 5.8 C 90 % 4.29 C
2700 05-02-2014 19:30:00 5.7 C 91 % 4.35 C
Sensor: Nr:Datum:Temp:Feuchte:Taupunkt:
Aussen-T/F 2701 05-02-2014 19:35:00 5.6 C 91 % 4.25 C
2702 05-02-2014 19:40:00 5.6 C 91 % 4.25 C
2703 05-02-2014 19:45:00 5.6 C 91 % 4.25 C
2704 05-02-2014 19:50:00 5.6 C 91 % 4.25 C
2705 05-02-2014 19:55:00 5.6 C 91 % 4.25 C
2706 05-02-2014 20:00:00 5.5 C 91 % 4.15 C
2707 05-02-2014 20:05:00 5.4 C 91 % 4.05 C
2708 05-02-2014 20:10:00 5.4 C 91 % 4.05 C
2709 05-02-2014 20:15:00 5.4 C 91 % 4.05 C
2710 05-02-2014 20:20:00 5.5 C 91 % 4.15 C
2711 05-02-2014 20:25:00 5.5 C 92 % 4.31 C
2712 05-02-2014 20:30:00 5.4 C 91 % 4.05 C
2713 05-02-2014 20:35:00 5.3 C 91 % 3.95 C
2714 05-02-2014 20:40:00 5.3 C 92 % 4.11 C
2715 05-02-2014 20:45:00 5.4 C 92 % 4.21 C
2716 05-02-2014 20:50:00 5.5 C 92 % 4.31 C
2717 05-02-2014 20:55:00 5.6 C 91 % 4.25 C
2718 05-02-2014 21:00:00 5.6 C 92 % 4.41 C
2719 05-02-2014 21:05:00 5.8 C 91 % 4.45 C
2720 05-02-2014 21:10:00 5.8 C 91 % 4.45 C
2721 05-02-2014 21:15:00 5.9 C 91 % 4.55 C
2722 05-02-2014 21:20:00 6.1 C 89 % 4.43 C
2723 05-02-2014 21:25:00 6.4 C 86 % 4.23 C
2724 05-02-2014 21:30:00 6.8 C 85 % 4.46 C
2725 05-02-2014 21:35:00 6.6 C 86 % 4.43 C
Sensor: Nr:Datum:Temp:Feuchte:Taupunkt:
Aussen-T/F 2726 05-02-2014 21:40:00 6.6 C 85 % 4.26 C
2727 05-02-2014 21:45:00 7 C 83 % 4.32 C
2728 05-02-2014 21:50:00 7.3 C 81 % 4.26 C
2729 05-02-2014 21:55:00 7.4 C 82 % 4.53 C
2730 05-02-2014 22:00:00 7.3 C 81 % 4.26 C
2731 05-02-2014 22:05:00 7.4 C 81 % 4.36 C
2732 05-02-2014 22:10:00 7.6 C 79 % 4.2 C
2733 05-02-2014 22:15:00 7.6 C 80 % 4.38 C
2734 05-02-2014 22:20:00 7.7 C 79 % 4.3 C
2735 05-02-2014 22:25:00 7.9 C 78 % 4.31 C
2736 05-02-2014 22:30:00 8 C 78 % 4.41 C
2737 05-02-2014 22:35:00 7.9 C 78 % 4.31 C
2738 05-02-2014 22:40:00 7.9 C 78 % 4.31 C
2739 05-02-2014 22:45:00 8.1 C 78 % 4.5 C
2740 05-02-2014 22:50:00 8.1 C 78 % 4.5 C
2741 05-02-2014 22:55:00 8.1 C 78 % 4.5 C
2742 05-02-2014 23:00:00 8.1 C 78 % 4.5 C
2743 05-02-2014 23:05:00 8 C 78 % 4.41 C
2744 05-02-2014 23:10:00 8 C 78 % 4.41 C
2745 05-02-2014 23:15:00 7.9 C 79 % 4.49 C
2746 05-02-2014 23:20:00 7.8 C 79 % 4.39 C
2747 05-02-2014 23:25:00 7.8 C 79 % 4.39 C
2748 05-02-2014 23:30:00 7.8 C 79 % 4.39 C
2749 05-02-2014 23:35:00 7.8 C 79 % 4.39 C
2750 05-02-2014 23:40:00 7.8 C 80 % 4.57 C
Sensor: Nr:Datum:Temp:Feuchte:Taupunkt:
Aussen-T/F 2751 05-02-2014 23:45:00 7.8 C 80 % 4.57 C
2752 05-02-2014 23:50:00 7.8 C 80 % 4.57 C
2753 05-02-2014 23:55:00 7.8 C 80 % 4.57 C
2754 06-02-2014 00:00:00 7.8 C 80 % 4.57 C
2755 06-02-2014 00:05:00 7.8 C 80 % 4.57 C
2756 06-02-2014 00:10:00 7.7 C 81 % 4.65 C
2757 06-02-2014 00:15:00 7.8 C 81 % 4.75 C
2758 06-02-2014 00:20:00 7.7 C 81 % 4.65 C
2759 06-02-2014 00:25:00 7.7 C 81 % 4.65 C
2760 06-02-2014 00:30:00 7.7 C 82 % 4.83 C
2761 06-02-2014 00:35:00 7.7 C 82 % 4.83 C
2762 06-02-2014 00:40:00 7.7 C 82 % 4.83 C
2763 06-02-2014 00:45:00 7.7 C 82 % 4.83 C
2764 06-02-2014 00:50:00 7.7 C 83 % 5 C
2765 06-02-2014 00:55:00 7.7 C 83 % 5 C
2766 06-02-2014 01:00:00 7.7 C 83 % 5 C
2767 06-02-2014 01:05:00 7.7 C 83 % 5 C
2768 06-02-2014 01:10:00 7.7 C 83 % 5 C
2769 06-02-2014 01:15:00 7.8 C 83 % 5.1 C
2770 06-02-2014 01:20:00 7.8 C 83 % 5.1 C
2771 06-02-2014 01:25:00 7.8 C 83 % 5.1 C
2772 06-02-2014 01:30:00 7.8 C 83 % 5.1 C
2773 06-02-2014 01:35:00 7.8 C 83 % 5.1 C
2774 06-02-2014 01:40:00 7.8 C 83 % 5.1 C
2775 06-02-2014 01:45:00 7.8 C 83 % 5.1 C
Sensor: Nr:Datum:Temp:Feuchte:Taupunkt:
Aussen-T/F 2776 06-02-2014 01:50:00 7.9 C 83 % 5.2 C
2777 06-02-2014 01:55:00 7.9 C 83 % 5.2 C
2778 06-02-2014 02:00:00 7.9 C 83 % 5.2 C
2779 06-02-2014 02:05:00 8.1 C 83 % 5.39 C
2780 06-02-2014 02:10:00 8.1 C 82 % 5.22 C
2781 06-02-2014 02:15:00 8.1 C 82 % 5.22 C
2782 06-02-2014 02:20:00 8.2 C 82 % 5.32 C
2783 06-02-2014 02:25:00 8.2 C 82 % 5.32 C
2784 06-02-2014 02:30:00 8.2 C 82 % 5.32 C
2785 06-02-2014 02:35:00 8.1 C 83 % 5.39 C
2786 06-02-2014 02:40:00 8.1 C 83 % 5.39 C
2787 06-02-2014 02:45:00 8.1 C 82 % 5.22 C
2788 06-02-2014 02:50:00 8.2 C 82 % 5.32 C
2789 06-02-2014 02:55:00 8.2 C 82 % 5.32 C
2790 06-02-2014 03:00:00 8.2 C 82 % 5.32 C
2791 06-02-2014 03:05:00 8.2 C 82 % 5.32 C
2792 06-02-2014 03:10:00 8.3 C 82 % 5.41 C
2793 06-02-2014 03:15:00 8.3 C 82 % 5.41 C
2794 06-02-2014 03:20:00 8.3 C 81 % 5.24 C
2795 06-02-2014 03:25:00 8.3 C 81 % 5.24 C
2796 06-02-2014 03:30:00 8.3 C 81 % 5.24 C
2797 06-02-2014 03:35:00 8.3 C 81 % 5.24 C
2798 06-02-2014 03:40:00 8.3 C 81 % 5.24 C
2799 06-02-2014 03:45:00 8.3 C 81 % 5.24 C
2800 06-02-2014 03:50:00 8.3 C 81 % 5.24 C
Sensor: Nr:Datum:Temp:Feuchte:Taupunkt:
Aussen-T/F 2801 06-02-2014 03:55:00 8.4 C 80 % 5.16 C
2802 06-02-2014 04:00:00 8.3 C 80 % 5.06 C
2803 06-02-2014 04:05:00 8.3 C 81 % 5.24 C
2804 06-02-2014 04:10:00 8.3 C 82 % 5.41 C
2805 06-02-2014 04:15:00 8.3 C 82 % 5.41 C
2806 06-02-2014 04:20:00 8.2 C 82 % 5.32 C
2807 06-02-2014 04:25:00 8.2 C 82 % 5.32 C
2808 06-02-2014 04:30:00 8.2 C 81 % 5.14 C
2809 06-02-2014 04:35:00 8.3 C 81 % 5.24 C
2810 06-02-2014 04:40:00 8.2 C 81 % 5.14 C
2811 06-02-2014 04:45:00 8.3 C 81 % 5.24 C
2812 06-02-2014 04:50:00 8.3 C 81 % 5.24 C
2813 06-02-2014 04:55:00 8.3 C 82 % 5.41 C
2814 06-02-2014 05:00:00 8.2 C 82 % 5.32 C
2815 06-02-2014 05:05:00 8.1 C 82 % 5.22 C
2816 06-02-2014 05:10:00 8.2 C 82 % 5.32 C
2817 06-02-2014 05:15:00 8.1 C 81 % 5.04 C
2818 06-02-2014 05:20:00 8.1 C 81 % 5.04 C
2819 06-02-2014 05:25:00 8 C 81 % 4.94 C
2820 06-02-2014 05:30:00 8.1 C 81 % 5.04 C
2821 06-02-2014 05:35:00 8.1 C 81 % 5.04 C
2822 06-02-2014 05:40:00 8.1 C 81 % 5.04 C
2823 06-02-2014 05:45:00 8 C 81 % 4.94 C
2824 06-02-2014 05:50:00 7.9 C 80 % 4.67 C
2825 06-02-2014 05:55:00 7.8 C 80 % 4.57 C
Sensor: Nr:Datum:Temp:Feuchte:Taupunkt:
Aussen-T/F 2826 06-02-2014 06:00:00 7.8 C 80 % 4.57 C
2827 06-02-2014 06:05:00 7.8 C 80 % 4.57 C
2828 06-02-2014 06:10:00 7.8 C 80 % 4.57 C
2829 06-02-2014 06:15:00 7.8 C 80 % 4.57 C
2830 06-02-2014 06:20:00 7.8 C 79 % 4.39 C
2831 06-02-2014 06:25:00 7.8 C 79 % 4.39 C
2832 06-02-2014 06:30:00 7.7 C 79 % 4.3 C
2833 06-02-2014 06:35:00 7.7 C 80 % 4.47 C
2834 06-02-2014 06:40:00 7.5 C 80 % 4.28 C
2835 06-02-2014 06:45:00 7.4 C 80 % 4.18 C
2836 06-02-2014 06:50:00 7.5 C 80 % 4.28 C
2837 06-02-2014 06:55:00 7.4 C 80 % 4.18 C
2838 06-02-2014 07:00:00 7.2 C 81 % 4.16 C
2839 06-02-2014 07:05:00 7.1 C 81 % 4.07 C
2840 06-02-2014 07:10:00 7.1 C 81 % 4.07 C
2841 06-02-2014 07:15:00 7.1 C 81 % 4.07 C
2842 06-02-2014 07:20:00 6.9 C 82 % 4.05 C
2843 06-02-2014 07:25:00 6.9 C 82 % 4.05 C
2844 06-02-2014 07:30:00 7.1 C 81 % 4.07 C
2845 06-02-2014 07:35:00 7.1 C 81 % 4.07 C
2846 06-02-2014 07:40:00 7.1 C 80 % 3.89 C
2847 06-02-2014 07:45:00 7.1 C 80 % 3.89 C
2848 06-02-2014 07:50:00 6.9 C 80 % 3.7 C
2849 06-02-2014 07:55:00 7 C 80 % 3.79 C
2850 06-02-2014 08:00:00 7 C 80 % 3.79 C
Sensor: Nr:Datum:Temp:Feuchte:Taupunkt:
Aussen-T/F 2851 06-02-2014 08:05:00 6.7 C 80 % 3.5 C
2852 06-02-2014 08:10:00 6.9 C 80 % 3.7 C
2853 06-02-2014 08:15:00 6.8 C 80 % 3.6 C
2854 06-02-2014 08:20:00 6.8 C 80 % 3.6 C
2855 06-02-2014 08:25:00 6.7 C 81 % 3.68 C
2856 06-02-2014 08:30:00 6.8 C 81 % 3.77 C
2857 06-02-2014 08:35:00 6.7 C 82 % 3.85 C
2858 06-02-2014 08:40:00 6.4 C 83 % 3.73 C
2859 06-02-2014 08:45:00 6.4 C 84 % 3.9 C
2860 06-02-2014 08:50:00 6.7 C 82 % 3.85 C
2861 06-02-2014 08:55:00 6.9 C 81 % 3.87 C
2862 06-02-2014 09:00:00 7.2 C 81 % 4.16 C
2863 06-02-2014 09:05:00 7.3 C 81 % 4.26 C
2864 06-02-2014 09:10:00 7.4 C 80 % 4.18 C
2865 06-02-2014 09:15:00 7.6 C 79 % 4.2 C
2866 06-02-2014 09:20:00 7.7 C 79 % 4.3 C
2867 06-02-2014 09:25:00 7.8 C 77 % 4.03 C
2868 06-02-2014 09:30:00 8 C 77 % 4.22 C
2869 06-02-2014 09:35:00 8.1 C 77 % 4.32 C
2870 06-02-2014 09:40:00 8.1 C 77 % 4.32 C
2871 06-02-2014 09:45:00 8.1 C 76 % 4.13 C
2872 06-02-2014 09:50:00 8.1 C 77 % 4.32 C
2873 06-02-2014 09:55:00 8.1 C 77 % 4.32 C
2874 06-02-2014 10:00:00 8.1 C 77 % 4.32 C
2875 06-02-2014 10:05:00 8.2 C 77 % 4.42 C
Sensor: Nr:Datum:Temp:Feuchte:Taupunkt:
Aussen-T/F 2876 06-02-2014 10:10:00 8.2 C 77 % 4.42 C
2877 06-02-2014 10:15:00 8.3 C 77 % 4.51 C
2878 06-02-2014 10:20:00 8.3 C 77 % 4.51 C
2879 06-02-2014 10:25:00 8.4 C 78 % 4.79 C
2880 06-02-2014 10:30:00 8.5 C 77 % 4.71 C
2881 06-02-2014 10:35:00 8.6 C 76 % 4.62 C
2882 06-02-2014 10:40:00 8.6 C 76 % 4.62 C
2883 06-02-2014 10:45:00 8.7 C 76 % 4.71 C
2884 06-02-2014 10:50:00 8.7 C 76 % 4.71 C
2885 06-02-2014 10:55:00 8.7 C 75 % 4.52 C
2886 06-02-2014 11:00:00 8.8 C 75 % 4.62 C
2887 06-02-2014 11:05:00 8.8 C 75 % 4.62 C
2888 06-02-2014 11:10:00 8.8 C 75 % 4.62 C
2889 06-02-2014 11:15:00 8.8 C 74 % 4.43 C
2890 06-02-2014 11:20:00 8.9 C 75 % 4.72 C
2891 06-02-2014 11:25:00 8.9 C 75 % 4.72 C
2892 06-02-2014 11:30:00 9 C 74 % 4.62 C
2893 06-02-2014 11:35:00 8.9 C 74 % 4.53 C
2894 06-02-2014 11:40:00 8.8 C 74 % 4.43 C
2895 06-02-2014 11:45:00 8.8 C 74 % 4.43 C
2896 06-02-2014 11:50:00 8.8 C 75 % 4.62 C
2897 06-02-2014 11:55:00 8.9 C 75 % 4.72 C
2898 06-02-2014 12:00:00 8.9 C 75 % 4.72 C
2899 06-02-2014 12:05:00 9 C 74 % 4.62 C
2900 06-02-2014 12:10:00 9 C 74 % 4.62 C
Sensor: Nr:Datum:Temp:Feuchte:Taupunkt:
Aussen-T/F 2901 06-02-2014 12:15:00 9 C 73 % 4.43 C
2902 06-02-2014 12:20:00 9 C 73 % 4.43 C
2903 06-02-2014 12:25:00 9.1 C 72 % 4.33 C
2904 06-02-2014 12:30:00 9.2 C 72 % 4.42 C
2905 06-02-2014 12:35:00 9.3 C 71 % 4.32 C
2906 06-02-2014 12:40:00 9.5 C 71 % 4.51 C
2907 06-02-2014 12:45:00 9.6 C 71 % 4.61 C
2908 06-02-2014 12:50:00 9.6 C 70 % 4.41 C
2909 06-02-2014 12:55:00 9.7 C 72 % 4.9 C
2910 06-02-2014 13:00:00 9.7 C 70 % 4.5 C
2911 06-02-2014 13:05:00 9.7 C 70 % 4.5 C
2912 06-02-2014 13:10:00 9.8 C 71 % 4.8 C
2913 06-02-2014 13:15:00 9.8 C 71 % 4.8 C
2914 06-02-2014 13:20:00 9.9 C 70 % 4.69 C
2915 06-02-2014 13:25:00 9.9 C 68 % 4.28 C
2916 06-02-2014 13:30:00 9.9 C 67 % 4.07 C
2917 06-02-2014 13:35:00 9.9 C 67 % 4.07 C
2918 06-02-2014 13:40:00 10.1 C 67 % 4.26 C
2919 06-02-2014 13:45:00 10.1 C 67 % 4.26 C
2920 06-02-2014 13:50:00 10.2 C 67 % 4.36 C
2921 06-02-2014 13:55:00 10.2 C 66 % 4.14 C
2922 06-02-2014 14:00:00 10.2 C 66 % 4.14 C
2923 06-02-2014 14:05:00 10.2 C 67 % 4.36 C
2924 06-02-2014 14:10:00 10.3 C 67 % 4.45 C
2925 06-02-2014 14:15:00 10.3 C 67 % 4.45 C
Sensor: Nr:Datum:Temp:Feuchte:Taupunkt:
Aussen-T/F 2926 06-02-2014 14:20:00 10.3 C 69 % 4.87 C
2927 06-02-2014 14:25:00 10.3 C 68 % 4.66 C
2928 06-02-2014 14:30:00 10.4 C 67 % 4.55 C
2929 06-02-2014 14:35:00 10.4 C 68 % 4.76 C
2930 06-02-2014 14:40:00 10.6 C 68 % 4.95 C
2931 06-02-2014 14:45:00 10.7 C 66 % 4.62 C
2932 06-02-2014 14:50:00 10.7 C 65 % 4.4 C
2933 06-02-2014 14:55:00 10.6 C 65 % 4.3 C
2934 06-02-2014 15:00:00 10.6 C 65 % 4.3 C
2935 06-02-2014 15:05:00 10.4 C 65 % 4.11 C
2936 06-02-2014 15:10:00 10.4 C 65 % 4.11 C
2937 06-02-2014 15:15:00 10.4 C 64 % 3.89 C
2938 06-02-2014 15:20:00 10.3 C 65 % 4.02 C
2939 06-02-2014 15:25:00 10.3 C 65 % 4.02 C
2940 06-02-2014 15:30:00 10.2 C 66 % 4.14 C
2941 06-02-2014 15:35:00 10.2 C 67 % 4.36 C
2942 06-02-2014 15:40:00 10.1 C 67 % 4.26 C
2943 06-02-2014 15:45:00 9.9 C 67 % 4.07 C
2944 06-02-2014 15:50:00 9.9 C 69 % 4.49 C
2945 06-02-2014 15:55:00 9.8 C 71 % 4.8 C
2946 06-02-2014 16:00:00 9.7 C 68 % 4.09 C
2947 06-02-2014 16:05:00 9.7 C 68 % 4.09 C
2948 06-02-2014 16:10:00 9.7 C 69 % 4.3 C
2949 06-02-2014 16:15:00 9.6 C 70 % 4.41 C
2950 06-02-2014 16:20:00 9.3 C 74 % 4.91 C
Sensor: Nr:Datum:Temp:Feuchte:Taupunkt:
Aussen-T/F 2951 06-02-2014 16:25:00 9.1 C 73 % 4.52 C
2952 06-02-2014 16:30:00 8.9 C 75 % 4.72 C
2953 06-02-2014 16:35:00 8.7 C 77 % 4.9 C
2954 06-02-2014 16:40:00 8.6 C 78 % 4.99 C
2955 06-02-2014 16:45:00 8.6 C 77 % 4.8 C
2956 06-02-2014 16:50:00 8.4 C 77 % 4.61 C
2957 06-02-2014 16:55:00 8.5 C 76 % 4.52 C
2958 06-02-2014 17:00:00 8.6 C 78 % 4.99 C
2959 06-02-2014 17:05:00 8.6 C 74 % 4.24 C
2960 06-02-2014 17:10:00 8.7 C 76 % 4.71 C
2961 06-02-2014 17:15:00 8.6 C 75 % 4.43 C
2962 06-02-2014 17:20:00 8.6 C 78 % 4.99 C
2963 06-02-2014 17:25:00 8.5 C 74 % 4.14 C
2964 06-02-2014 17:30:00 8.7 C 74 % 4.33 C
2965 06-02-2014 17:35:00 8.8 C 73 % 4.24 C
2966 06-02-2014 17:40:00 8.8 C 73 % 4.24 C
2967 06-02-2014 17:45:00 8.8 C 75 % 4.62 C
2968 06-02-2014 17:50:00 8.7 C 76 % 4.71 C
2969 06-02-2014 17:55:00 8.6 C 74 % 4.24 C
2970 06-02-2014 18:00:00 8.6 C 77 % 4.8 C
2971 06-02-2014 18:05:00 8.4 C 78 % 4.79 C
2972 06-02-2014 18:10:00 8.2 C 78 % 4.6 C
2973 06-02-2014 18:15:00 8.2 C 78 % 4.6 C
2974 06-02-2014 18:20:00 8.2 C 79 % 4.78 C
2975 06-02-2014 18:25:00 8.3 C 77 % 4.51 C
Sensor: Nr:Datum:Temp:Feuchte:Taupunkt:
Aussen-T/F 2976 06-02-2014 18:30:00 8.4 C 78 % 4.79 C
2977 06-02-2014 18:35:00 8.3 C 79 % 4.88 C
2978 06-02-2014 18:40:00 8.3 C 77 % 4.51 C
2979 06-02-2014 18:45:00 8.6 C 74 % 4.24 C
2980 06-02-2014 18:50:00 8.7 C 75 % 4.52 C
2981 06-02-2014 18:55:00 8.7 C 74 % 4.33 C
2982 06-02-2014 19:00:00 8.8 C 73 % 4.24 C
2983 06-02-2014 19:05:00 8.9 C 73 % 4.33 C
2984 06-02-2014 19:10:00 9.1 C 73 % 4.52 C
2985 06-02-2014 19:15:00 9 C 73 % 4.43 C
2986 06-02-2014 19:20:00 8.9 C 72 % 4.14 C
2987 06-02-2014 19:25:00 8.9 C 73 % 4.33 C
2988 06-02-2014 19:30:00 8.8 C 76 % 4.81 C
2989 06-02-2014 19:35:00 8.7 C 75 % 4.52 C
2990 06-02-2014 19:40:00 8.6 C 74 % 4.24 C
2991 06-02-2014 19:45:00 8.6 C 76 % 4.62 C
2992 06-02-2014 19:50:00 8.4 C 79 % 4.98 C
2993 06-02-2014 19:55:00 8.3 C 77 % 4.51 C
2994 06-02-2014 20:00:00 8.3 C 78 % 4.7 C
2995 06-02-2014 20:05:00 8.3 C 79 % 4.88 C
2996 06-02-2014 20:10:00 8.2 C 80 % 4.96 C
2997 06-02-2014 20:15:00 8.1 C 81 % 5.04 C
2998 06-02-2014 20:20:00 8.1 C 80 % 4.86 C
2999 06-02-2014 20:25:00 8.1 C 78 % 4.5 C
3000 06-02-2014 20:30:00 8.1 C 81 % 5.04 C
Sensor: Nr:Datum:Temp:Feuchte:Taupunkt:
Aussen-T/F 3001 06-02-2014 20:35:00 7.9 C 81 % 4.85 C
3002 06-02-2014 20:40:00 7.8 C 80 % 4.57 C
3003 06-02-2014 20:45:00 7.9 C 76 % 3.94 C
3004 06-02-2014 20:50:00 7.9 C 79 % 4.49 C
3005 06-02-2014 20:55:00 7.9 C 78 % 4.31 C
3006 06-02-2014 21:00:00 7.8 C 79 % 4.39 C
3007 06-02-2014 21:05:00 7.9 C 76 % 3.94 C
3008 06-02-2014 21:10:00 8.2 C 74 % 3.85 C
3009 06-02-2014 21:15:00 8.3 C 74 % 3.95 C
3010 06-02-2014 21:20:00 8.4 C 72 % 3.65 C
3011 06-02-2014 21:25:00 8.6 C 73 % 4.04 C
3012 06-02-2014 21:30:00 8.6 C 71 % 3.65 C
3013 06-02-2014 21:35:00 8.8 C 70 % 3.64 C
3014 06-02-2014 21:40:00 8.8 C 71 % 3.84 C
3015 06-02-2014 21:45:00 8.7 C 72 % 3.94 C
3016 06-02-2014 21:50:00 8.7 C 71 % 3.74 C
3017 06-02-2014 21:55:00 8.6 C 70 % 3.45 C
3018 06-02-2014 22:00:00 8.7 C 71 % 3.74 C
3019 06-02-2014 22:05:00 8.6 C 71 % 3.65 C
3020 06-02-2014 22:10:00 8.4 C 73 % 3.85 C
3021 06-02-2014 22:15:00 8.3 C 72 % 3.56 C
3022 06-02-2014 22:20:00 8.2 C 74 % 3.85 C
3023 06-02-2014 22:25:00 8 C 75 % 3.85 C
3024 06-02-2014 22:30:00 7.7 C 76 % 3.75 C
3025 06-02-2014 22:35:00 7.6 C 76 % 3.65 C
Sensor: Nr:Datum:Temp:Feuchte:Taupunkt:
Aussen-T/F 3026 06-02-2014 22:40:00 7.7 C 75 % 3.56 C
3027 06-02-2014 22:45:00 7.7 C 76 % 3.75 C
3028 06-02-2014 22:50:00 7.8 C 74 % 3.46 C
3029 06-02-2014 22:55:00 7.8 C 75 % 3.65 C
3030 06-02-2014 23:00:00 8.1 C 72 % 3.37 C
3031 06-02-2014 23:05:00 8.3 C 72 % 3.56 C
3032 06-02-2014 23:10:00 8.4 C 73 % 3.85 C
3033 06-02-2014 23:15:00 8.4 C 72 % 3.65 C
3034 06-02-2014 23:20:00 8.4 C 72 % 3.65 C
3035 06-02-2014 23:25:00 8.3 C 75 % 4.14 C
3036 06-02-2014 23:30:00 8.2 C 76 % 4.23 C
3037 06-02-2014 23:35:00 8.2 C 76 % 4.23 C
3038 06-02-2014 23:40:00 8.2 C 84 % 5.66 C
3039 06-02-2014 23:45:00 8 C 84 % 5.47 C
3040 06-02-2014 23:50:00 7.8 C 85 % 5.44 C
3041 06-02-2014 23:55:00 7.6 C 86 % 5.41 C
3042 07-02-2014 00:00:00 7.5 C 86 % 5.31 C
3043 07-02-2014 00:05:00 7.6 C 86 % 5.41 C
3044 07-02-2014 00:10:00 7.6 C 85 % 5.24 C
3045 07-02-2014 00:15:00 7.7 C 84 % 5.17 C
3046 07-02-2014 00:20:00 7.8 C 85 % 5.44 C
3047 07-02-2014 00:25:00 7.8 C 85 % 5.44 C
3048 07-02-2014 00:30:00 7.7 C 85 % 5.34 C
3049 07-02-2014 00:35:00 7.6 C 86 % 5.41 C
3050 07-02-2014 00:40:00 7.6 C 85 % 5.24 C
Sensor: Nr:Datum:Temp:Feuchte:Taupunkt:
Aussen-T/F 3051 07-02-2014 00:45:00 7.6 C 86 % 5.41 C
3052 07-02-2014 00:50:00 7.6 C 86 % 5.41 C
3053 07-02-2014 00:55:00 7.6 C 86 % 5.41 C
3054 07-02-2014 01:00:00 7.7 C 84 % 5.17 C
3055 07-02-2014 01:05:00 7.9 C 82 % 5.02 C
3056 07-02-2014 01:10:00 7.9 C 84 % 5.37 C
3057 07-02-2014 01:15:00 7.9 C 85 % 5.54 C
3058 07-02-2014 01:20:00 7.8 C 84 % 5.27 C
3059 07-02-2014 01:25:00 7.7 C 85 % 5.34 C
3060 07-02-2014 01:30:00 7.7 C 86 % 5.51 C
3061 07-02-2014 01:35:00 7.7 C 85 % 5.34 C
3062 07-02-2014 01:40:00 7.7 C 85 % 5.34 C
3063 07-02-2014 01:45:00 7.8 C 86 % 5.61 C
3064 07-02-2014 01:50:00 7.7 C 86 % 5.51 C
3065 07-02-2014 01:55:00 7.7 C 86 % 5.51 C
3066 07-02-2014 02:00:00 7.7 C 86 % 5.51 C
3067 07-02-2014 02:05:00 7.6 C 86 % 5.41 C
3068 07-02-2014 02:10:00 7.7 C 86 % 5.51 C
3069 07-02-2014 02:15:00 7.6 C 86 % 5.41 C
3070 07-02-2014 02:20:00 7.7 C 85 % 5.34 C
3071 07-02-2014 02:25:00 7.7 C 84 % 5.17 C
3072 07-02-2014 02:30:00 7.8 C 84 % 5.27 C
3073 07-02-2014 02:35:00 8.5 C 74 % 4.14 C
3074 07-02-2014 02:40:00 8.7 C 79 % 5.27 C
3075 07-02-2014 02:45:00 8.6 C 78 % 4.99 C
Sensor: Nr:Datum:Temp:Feuchte:Taupunkt:
Aussen-T/F 3076 07-02-2014 02:50:00 8.4 C 80 % 5.16 C
3077 07-02-2014 02:55:00 8.3 C 80 % 5.06 C
3078 07-02-2014 03:00:00 8.3 C 79 % 4.88 C
3079 07-02-2014 03:05:00 8.3 C 82 % 5.41 C
3080 07-02-2014 03:10:00 8.2 C 83 % 5.49 C
3081 07-02-2014 03:15:00 8.2 C 76 % 4.23 C
3082 07-02-2014 03:20:00 8.3 C 80 % 5.06 C
3083 07-02-2014 03:25:00 8.3 C 78 % 4.7 C
3084 07-02-2014 03:30:00 8.4 C 80 % 5.16 C
3085 07-02-2014 03:35:00 8.3 C 80 % 5.06 C
3086 07-02-2014 03:40:00 8.2 C 85 % 5.83 C
3087 07-02-2014 03:45:00 8.1 C 86 % 5.9 C
3088 07-02-2014 03:50:00 7.9 C 85 % 5.54 C
3089 07-02-2014 03:55:00 7.9 C 86 % 5.71 C
3090 07-02-2014 04:00:00 8.1 C 85 % 5.73 C
3091 07-02-2014 04:05:00 8 C 82 % 5.12 C
3092 07-02-2014 04:10:00 8.1 C 84 % 5.56 C
3093 07-02-2014 04:15:00 7.9 C 84 % 5.37 C
3094 07-02-2014 04:20:00 7.8 C 85 % 5.44 C
3095 07-02-2014 04:25:00 7.7 C 86 % 5.51 C
3096 07-02-2014 04:30:00 7.7 C 86 % 5.51 C
3097 07-02-2014 04:35:00 7.7 C 84 % 5.17 C
3098 07-02-2014 04:40:00 7.8 C 86 % 5.61 C
3099 07-02-2014 04:45:00 7.8 C 86 % 5.61 C
3100 07-02-2014 04:50:00 7.7 C 86 % 5.51 C
Sensor: Nr:Datum:Temp:Feuchte:Taupunkt:
Aussen-T/F 3101 07-02-2014 04:55:00 7.7 C 87 % 5.68 C
3102 07-02-2014 05:00:00 7.5 C 87 % 5.48 C
3103 07-02-2014 05:05:00 7.4 C 88 % 5.55 C
3104 07-02-2014 05:10:00 7.4 C 87 % 5.38 C
3105 07-02-2014 05:15:00 7.4 C 87 % 5.38 C
3106 07-02-2014 05:20:00 7.4 C 86 % 5.22 C
3107 07-02-2014 05:25:00 7.6 C 86 % 5.41 C
3108 07-02-2014 05:30:00 7.6 C 86 % 5.41 C
3109 07-02-2014 05:35:00 7.7 C 85 % 5.34 C
3110 07-02-2014 05:40:00 7.9 C 84 % 5.37 C
3111 07-02-2014 05:45:00 8.1 C 84 % 5.56 C
3112 07-02-2014 05:50:00 8.2 C 84 % 5.66 C
3113 07-02-2014 05:55:00 8.4 C 86 % 6.2 C
3114 07-02-2014 06:00:00 8.4 C 88 % 6.53 C
3115 07-02-2014 06:05:00 8.4 C 86 % 6.2 C
3116 07-02-2014 06:10:00 8.8 C 85 % 6.42 C
3117 07-02-2014 06:15:00 8.9 C 85 % 6.52 C
3118 07-02-2014 06:20:00 8.9 C 85 % 6.52 C
3119 07-02-2014 06:25:00 8.9 C 83 % 6.17 C
3120 07-02-2014 06:30:00 9.3 C 82 % 6.39 C
3121 07-02-2014 06:35:00 9.5 C 81 % 6.41 C
3122 07-02-2014 06:40:00 9.4 C 81 % 6.31 C
3123 07-02-2014 06:45:00 9.4 C 80 % 6.13 C
3124 07-02-2014 06:50:00 9.8 C 79 % 6.34 C
3125 07-02-2014 06:55:00 9.9 C 78 % 6.25 C
Sensor: Nr:Datum:Temp:Feuchte:Taupunkt:
Aussen-T/F 3126 07-02-2014 07:00:00 10.4 C 77 % 6.55 C
3127 07-02-2014 07:05:00 10.6 C 76 % 6.55 C
3128 07-02-2014 07:10:00 10.7 C 76 % 6.65 C
3129 07-02-2014 07:15:00 10.5 C 77 % 6.64 C
3130 07-02-2014 07:20:00 10.4 C 77 % 6.55 C
3131 07-02-2014 07:25:00 10.4 C 76 % 6.36 C
3132 07-02-2014 07:30:00 10.8 C 75 % 6.55 C
3133 07-02-2014 07:35:00 10.8 C 75 % 6.55 C
3134 07-02-2014 07:40:00 10.8 C 75 % 6.55 C
3135 07-02-2014 07:45:00 10.8 C 76 % 6.75 C
3136 07-02-2014 07:50:00 10.7 C 76 % 6.65 C
3137 07-02-2014 07:55:00 10.7 C 76 % 6.65 C
3138 07-02-2014 08:00:00 11.3 C 74 % 6.84 C
3139 07-02-2014 08:05:00 11.4 C 73 % 6.74 C
3140 07-02-2014 08:10:00 11.4 C 73 % 6.74 C
3141 07-02-2014 08:15:00 11.4 C 73 % 6.74 C
3142 07-02-2014 08:20:00 11.3 C 73 % 6.64 C
3143 07-02-2014 08:25:00 11.3 C 74 % 6.84 C
3144 07-02-2014 08:30:00 11.3 C 73 % 6.64 C
3145 07-02-2014 08:35:00 11.3 C 73 % 6.64 C
3146 07-02-2014 08:40:00 11.4 C 72 % 6.54 C
3147 07-02-2014 08:45:00 11.4 C 72 % 6.54 C
3148 07-02-2014 08:50:00 11.4 C 73 % 6.74 C
3149 07-02-2014 08:55:00 11.4 C 72 % 6.54 C
3150 07-02-2014 09:00:00 11.6 C 72 % 6.73 C
Sensor: Nr:Datum:Temp:Feuchte:Taupunkt:
Aussen-T/F 3151 07-02-2014 09:05:00 11.7 C 71 % 6.62 C
3152 07-02-2014 09:10:00 11.8 C 70 % 6.51 C
3153 07-02-2014 09:15:00 12.1 C 69 % 6.59 C
3154 07-02-2014 09:20:00 12.2 C 69 % 6.69 C
3155 07-02-2014 09:25:00 12.4 C 69 % 6.88 C
3156 07-02-2014 09:30:00 12.6 C 69 % 7.07 C
3157 07-02-2014 09:35:00 12.8 C 67 % 6.83 C
3158 07-02-2014 09:40:00 13.1 C 67 % 7.12 C
3159 07-02-2014 09:45:00 13.2 C 65 % 6.77 C
3160 07-02-2014 09:50:00 13.2 C 66 % 7 C
3161 07-02-2014 09:55:00 13.1 C 66 % 6.9 C
3162 07-02-2014 10:00:00 13.1 C 66 % 6.9 C
3163 07-02-2014 10:05:00 13.1 C 65 % 6.68 C
3164 07-02-2014 10:10:00 13.1 C 66 % 6.9 C
3165 07-02-2014 10:15:00 13.1 C 66 % 6.9 C
3166 07-02-2014 10:20:00 13.2 C 66 % 7 C
3167 07-02-2014 10:25:00 13.2 C 65 % 6.77 C
3168 07-02-2014 10:30:00 13.3 C 64 % 6.64 C
3169 07-02-2014 10:35:00 13.3 C 65 % 6.87 C
3170 07-02-2014 10:40:00 13.2 C 65 % 6.77 C
3171 07-02-2014 10:45:00 13.1 C 68 % 7.34 C
3172 07-02-2014 10:50:00 12.7 C 69 % 7.17 C
3173 07-02-2014 10:55:00 12.4 C 70 % 7.09 C
3174 07-02-2014 11:00:00 12.4 C 70 % 7.09 C
3175 07-02-2014 11:05:00 12.3 C 70 % 6.99 C
Sensor: Nr:Datum:Temp:Feuchte:Taupunkt:
Aussen-T/F 3176 07-02-2014 11:10:00 12.4 C 70 % 7.09 C
3177 07-02-2014 11:15:00 12.3 C 73 % 7.61 C
3178 07-02-2014 11:20:00 11.8 C 75 % 7.52 C
3179 07-02-2014 11:25:00 11.5 C 77 % 7.61 C
3180 07-02-2014 11:30:00 11.3 C 78 % 7.61 C
3181 07-02-2014 11:35:00 11.2 C 77 % 7.32 C
3182 07-02-2014 11:40:00 11.2 C 75 % 6.94 C
3183 07-02-2014 11:45:00 11.2 C 73 % 6.55 C
3184 07-02-2014 11:50:00 11.2 C 71 % 6.14 C
3185 07-02-2014 11:55:00 11.1 C 70 % 5.84 C
3186 07-02-2014 12:00:00 11.1 C 69 % 5.64 C
3187 07-02-2014 12:05:00 11 C 69 % 5.54 C
3188 07-02-2014 12:10:00 10.9 C 69 % 5.44 C
3189 07-02-2014 12:15:00 10.8 C 70 % 5.56 C
3190 07-02-2014 12:20:00 10.9 C 69 % 5.44 C
3191 07-02-2014 12:25:00 10.8 C 69 % 5.35 C
3192 07-02-2014 12:30:00 10.8 C 69 % 5.35 C
3193 07-02-2014 12:35:00 10.8 C 70 % 5.56 C
3194 07-02-2014 12:40:00 10.7 C 70 % 5.46 C
3195 07-02-2014 12:45:00 10.6 C 71 % 5.57 C
3196 07-02-2014 12:50:00 10.4 C 72 % 5.58 C
3197 07-02-2014 12:55:00 10.4 C 71 % 5.38 C
3198 07-02-2014 13:00:00 10.5 C 71 % 5.47 C
3199 07-02-2014 13:05:00 10.6 C 70 % 5.36 C
3200 07-02-2014 13:10:00 10.6 C 69 % 5.16 C
Sensor: Nr:Datum:Temp:Feuchte:Taupunkt:
Aussen-T/F 3201 07-02-2014 13:15:00 10.6 C 70 % 5.36 C
3202 07-02-2014 13:20:00 10.4 C 73 % 5.78 C
3203 07-02-2014 13:25:00 10.2 C 72 % 5.39 C
3204 07-02-2014 13:30:00 10.2 C 72 % 5.39 C
3205 07-02-2014 13:35:00 10.2 C 72 % 5.39 C
3206 07-02-2014 13:40:00 10.2 C 72 % 5.39 C
3207 07-02-2014 13:45:00 10.2 C 72 % 5.39 C
3208 07-02-2014 13:50:00 10.3 C 72 % 5.48 C
3209 07-02-2014 13:55:00 10.3 C 72 % 5.48 C
3210 07-02-2014 14:00:00 10.5 C 71 % 5.47 C
3211 07-02-2014 14:05:00 10.6 C 69 % 5.16 C
3212 07-02-2014 14:10:00 10.5 C 69 % 5.06 C
3213 07-02-2014 14:15:00 10.5 C 68 % 4.85 C
3214 07-02-2014 14:20:00 10.6 C 67 % 4.74 C
3215 07-02-2014 14:25:00 10.6 C 67 % 4.74 C
3216 07-02-2014 14:30:00 10.7 C 66 % 4.62 C
3217 07-02-2014 14:35:00 10.6 C 67 % 4.74 C
3218 07-02-2014 14:40:00 10.5 C 68 % 4.85 C
3219 07-02-2014 14:45:00 10.5 C 67 % 4.64 C
3220 07-02-2014 14:50:00 10.4 C 67 % 4.55 C
3221 07-02-2014 14:55:00 10.5 C 68 % 4.85 C
3222 07-02-2014 15:00:00 10.5 C 69 % 5.06 C
3223 07-02-2014 15:05:00 10.3 C 70 % 5.08 C
3224 07-02-2014 15:10:00 10 C 71 % 4.99 C
3225 07-02-2014 15:15:00 9.9 C 72 % 5.1 C
Sensor: Nr:Datum:Temp:Feuchte:Taupunkt:
Aussen-T/F 3226 07-02-2014 15:20:00 9.8 C 72 % 5 C
3227 07-02-2014 15:25:00 9.8 C 72 % 5 C
3228 07-02-2014 15:30:00 9.7 C 72 % 4.9 C
3229 07-02-2014 15:35:00 9.7 C 72 % 4.9 C
3230 07-02-2014 15:40:00 9.8 C 72 % 5 C
3231 07-02-2014 15:45:00 9.7 C 72 % 4.9 C
3232 07-02-2014 15:50:00 9.6 C 72 % 4.81 C
3233 07-02-2014 15:55:00 9.5 C 71 % 4.51 C
3234 07-02-2014 16:00:00 9.4 C 71 % 4.42 C
3235 07-02-2014 16:05:00 9.4 C 71 % 4.42 C
3236 07-02-2014 16:10:00 9.4 C 72 % 4.62 C
3237 07-02-2014 16:15:00 9.3 C 73 % 4.72 C
3238 07-02-2014 16:20:00 9.3 C 73 % 4.72 C
3239 07-02-2014 16:25:00 9.3 C 73 % 4.72 C
3240 07-02-2014 16:30:00 9.3 C 73 % 4.72 C
3241 07-02-2014 16:35:00 9.2 C 73 % 4.62 C
3242 07-02-2014 16:40:00 9.2 C 73 % 4.62 C
3243 07-02-2014 16:45:00 9.2 C 74 % 4.81 C
3244 07-02-2014 16:50:00 9.1 C 74 % 4.72 C
3245 07-02-2014 16:55:00 9 C 74 % 4.62 C
3246 07-02-2014 17:00:00 8.9 C 75 % 4.72 C
3247 07-02-2014 17:05:00 8.9 C 76 % 4.91 C
3248 07-02-2014 17:10:00 8.8 C 76 % 4.81 C
3249 07-02-2014 17:15:00 8.8 C 76 % 4.81 C
3250 07-02-2014 17:20:00 8.7 C 77 % 4.9 C
Sensor: Nr:Datum:Temp:Feuchte:Taupunkt:
Aussen-T/F 3251 07-02-2014 17:25:00 8.7 C 76 % 4.71 C
3252 07-02-2014 17:30:00 8.7 C 77 % 4.9 C
3253 07-02-2014 17:35:00 8.6 C 77 % 4.8 C
3254 07-02-2014 17:40:00 8.5 C 77 % 4.71 C
3255 07-02-2014 17:45:00 8.4 C 77 % 4.61 C
3256 07-02-2014 17:50:00 8.4 C 78 % 4.79 C
3257 07-02-2014 17:55:00 8.3 C 78 % 4.7 C
3258 07-02-2014 18:00:00 8.2 C 79 % 4.78 C
3259 07-02-2014 18:05:00 8.1 C 79 % 4.68 C
3260 07-02-2014 18:10:00 8 C 79 % 4.59 C
3261 07-02-2014 18:15:00 7.9 C 79 % 4.49 C
3262 07-02-2014 18:20:00 7.8 C 81 % 4.75 C
3263 07-02-2014 18:25:00 7.7 C 82 % 4.83 C
3264 07-02-2014 18:30:00 7.4 C 83 % 4.71 C
3265 07-02-2014 18:35:00 7.3 C 84 % 4.78 C
3266 07-02-2014 18:40:00 7.2 C 84 % 4.68 C
3267 07-02-2014 18:45:00 7.2 C 84 % 4.68 C
3268 07-02-2014 18:50:00 7.2 C 84 % 4.68 C
3269 07-02-2014 18:55:00 7.3 C 84 % 4.78 C
3270 07-02-2014 19:00:00 7.2 C 84 % 4.68 C
3271 07-02-2014 19:05:00 7.2 C 84 % 4.68 C
3272 07-02-2014 19:10:00 7.2 C 83 % 4.51 C
3273 07-02-2014 19:15:00 7.1 C 83 % 4.41 C
3274 07-02-2014 19:20:00 7.1 C 82 % 4.24 C
3275 07-02-2014 19:25:00 7 C 82 % 4.14 C
Sensor: Nr:Datum:Temp:Feuchte:Taupunkt:
Aussen-T/F 3276 07-02-2014 19:30:00 6.9 C 82 % 4.05 C
3277 07-02-2014 19:35:00 6.9 C 82 % 4.05 C
3278 07-02-2014 19:40:00 6.9 C 81 % 3.87 C
3279 07-02-2014 19:45:00 6.8 C 81 % 3.77 C
3280 07-02-2014 19:50:00 6.8 C 81 % 3.77 C
3281 07-02-2014 19:55:00 6.8 C 80 % 3.6 C
3282 07-02-2014 20:00:00 6.8 C 81 % 3.77 C
3283 07-02-2014 20:05:00 6.7 C 81 % 3.68 C
3284 07-02-2014 20:10:00 6.7 C 82 % 3.85 C
3285 07-02-2014 20:15:00 6.7 C 82 % 3.85 C
3286 07-02-2014 20:20:00 6.7 C 82 % 3.85 C
3287 07-02-2014 20:25:00 6.7 C 82 % 3.85 C
3288 07-02-2014 20:30:00 6.7 C 82 % 3.85 C
3289 07-02-2014 20:35:00 6.7 C 82 % 3.85 C
3290 07-02-2014 20:40:00 6.7 C 82 % 3.85 C
3291 07-02-2014 20:45:00 6.6 C 83 % 3.92 C
3292 07-02-2014 20:50:00 6.4 C 83 % 3.73 C
3293 07-02-2014 20:55:00 6.3 C 84 % 3.8 C
3294 07-02-2014 21:00:00 6.3 C 84 % 3.8 C
3295 07-02-2014 21:05:00 6.2 C 84 % 3.7 C
3296 07-02-2014 21:10:00 6.2 C 84 % 3.7 C
3297 07-02-2014 21:15:00 6.2 C 84 % 3.7 C
3298 07-02-2014 21:20:00 6.2 C 84 % 3.7 C
3299 07-02-2014 21:25:00 6.1 C 84 % 3.61 C
3300 07-02-2014 21:30:00 6.1 C 84 % 3.61 C
Sensor: Nr:Datum:Temp:Feuchte:Taupunkt:
Aussen-T/F 3301 07-02-2014 21:35:00 5.9 C 85 % 3.58 C
3302 07-02-2014 21:40:00 5.9 C 85 % 3.58 C
3303 07-02-2014 21:45:00 5.7 C 85 % 3.38 C
3304 07-02-2014 21:50:00 5.6 C 86 % 3.45 C
3305 07-02-2014 21:55:00 5.5 C 86 % 3.35 C
3306 07-02-2014 22:00:00 5.3 C 86 % 3.15 C
3307 07-02-2014 22:05:00 5.2 C 87 % 3.22 C
3308 07-02-2014 22:10:00 5.1 C 87 % 3.12 C
3309 07-02-2014 22:15:00 5.2 C 87 % 3.22 C
3310 07-02-2014 22:20:00 5.2 C 87 % 3.22 C
3311 07-02-2014 22:25:00 5.2 C 87 % 3.22 C
3312 07-02-2014 22:30:00 5.1 C 87 % 3.12 C
3313 07-02-2014 22:35:00 5.1 C 87 % 3.12 C
3314 07-02-2014 22:40:00 5.1 C 87 % 3.12 C
3315 07-02-2014 22:45:00 4.9 C 87 % 2.92 C
3316 07-02-2014 22:50:00 4.8 C 88 % 2.99 C
3317 07-02-2014 22:55:00 4.7 C 87 % 2.73 C
3318 07-02-2014 23:00:00 4.4 C 88 % 2.59 C
3319 07-02-2014 23:05:00 4.2 C 89 % 2.55 C
3320 07-02-2014 23:10:00 4.1 C 89 % 2.45 C
3321 07-02-2014 23:15:00 3.9 C 90 % 2.41 C
3322 07-02-2014 23:20:00 3.8 C 90 % 2.31 C
3323 07-02-2014 23:25:00 3.7 C 90 % 2.22 C
3324 07-02-2014 23:30:00 3.6 C 91 % 2.27 C
3325 07-02-2014 23:35:00 3.6 C 91 % 2.27 C
Sensor: Nr:Datum:Temp:Feuchte:Taupunkt:
Aussen-T/F 3326 07-02-2014 23:40:00 3.5 C 91 % 2.17 C
3327 07-02-2014 23:45:00 3.4 C 91 % 2.07 C
3328 07-02-2014 23:50:00 3.4 C 92 % 2.23 C
3329 07-02-2014 23:55:00 3.3 C 91 % 1.98 C
3330 08-02-2014 00:00:00 3.1 C 91 % 1.78 C
3331 08-02-2014 00:05:00 2.9 C 92 % 1.73 C
3332 08-02-2014 00:10:00 3 C 93 % 1.98 C
3333 08-02-2014 00:15:00 3 C 93 % 1.98 C
3334 08-02-2014 00:20:00 3 C 93 % 1.98 C
3335 08-02-2014 00:25:00 2.9 C 93 % 1.88 C
3336 08-02-2014 00:30:00 2.8 C 93 % 1.78 C
3337 08-02-2014 00:35:00 2.8 C 93 % 1.78 C
3338 08-02-2014 00:40:00 2.8 C 93 % 1.78 C
3339 08-02-2014 00:45:00 2.8 C 93 % 1.78 C
3340 08-02-2014 00:50:00 2.7 C 92 % 1.53 C
3341 08-02-2014 00:55:00 2.6 C 93 % 1.59 C
3342 08-02-2014 01:00:00 2.5 C 93 % 1.49 C
3343 08-02-2014 01:05:00 2.4 C 93 % 1.39 C
3344 08-02-2014 01:10:00 2.3 C 93 % 1.29 C
3345 08-02-2014 01:15:00 2.3 C 93 % 1.29 C
3346 08-02-2014 01:20:00 2.3 C 93 % 1.29 C
3347 08-02-2014 01:25:00 2.3 C 93 % 1.29 C
3348 08-02-2014 01:30:00 2.2 C 93 % 1.19 C
3349 08-02-2014 01:35:00 2.2 C 93 % 1.19 C
3350 08-02-2014 01:40:00 2.2 C 93 % 1.19 C
Sensor: Nr:Datum:Temp:Feuchte:Taupunkt:
Aussen-T/F 3351 08-02-2014 01:45:00 2.2 C 93 % 1.19 C
3352 08-02-2014 01:50:00 2.2 C 93 % 1.19 C
3353 08-02-2014 01:55:00 2.2 C 93 % 1.19 C
3354 08-02-2014 02:00:00 2.2 C 93 % 1.19 C
3355 08-02-2014 02:05:00 2.2 C 93 % 1.19 C
3356 08-02-2014 02:10:00 2.2 C 93 % 1.19 C
3357 08-02-2014 02:15:00 2.3 C 93 % 1.29 C
3358 08-02-2014 02:20:00 2.4 C 93 % 1.39 C
3359 08-02-2014 02:25:00 2.5 C 93 % 1.49 C
3360 08-02-2014 02:30:00 2.6 C 92 % 1.43 C
3361 08-02-2014 02:35:00 2.6 C 92 % 1.43 C
3362 08-02-2014 02:40:00 2.7 C 92 % 1.53 C
3363 08-02-2014 02:45:00 2.6 C 92 % 1.43 C
3364 08-02-2014 02:50:00 2.6 C 91 % 1.28 C
3365 08-02-2014 02:55:00 2.6 C 92 % 1.43 C
3366 08-02-2014 03:00:00 2.6 C 91 % 1.28 C
3367 08-02-2014 03:05:00 2.6 C 91 % 1.28 C
3368 08-02-2014 03:10:00 2.6 C 92 % 1.43 C
3369 08-02-2014 03:15:00 2.8 C 92 % 1.63 C
3370 08-02-2014 03:20:00 3.1 C 92 % 1.93 C
3371 08-02-2014 03:25:00 3.4 C 91 % 2.07 C
3372 08-02-2014 03:30:00 3.7 C 90 % 2.22 C
3373 08-02-2014 03:35:00 4.1 C 88 % 2.3 C
3374 08-02-2014 03:40:00 4.3 C 88 % 2.49 C
3375 08-02-2014 03:45:00 4.4 C 87 % 2.43 C
Sensor: Nr:Datum:Temp:Feuchte:Taupunkt:
Aussen-T/F 3376 08-02-2014 03:50:00 4.5 C 87 % 2.53 C
3377 08-02-2014 03:55:00 4.5 C 87 % 2.53 C
3378 08-02-2014 04:00:00 4.6 C 87 % 2.63 C
3379 08-02-2014 04:05:00 4.6 C 86 % 2.47 C
3380 08-02-2014 04:10:00 4.7 C 86 % 2.56 C
3381 08-02-2014 04:15:00 5 C 86 % 2.86 C
3382 08-02-2014 04:20:00 5.2 C 85 % 2.89 C
3383 08-02-2014 04:25:00 5.4 C 84 % 2.92 C
3384 08-02-2014 04:30:00 5.6 C 83 % 2.95 C
3385 08-02-2014 04:35:00 5.7 C 83 % 3.04 C
3386 08-02-2014 04:40:00 5.8 C 83 % 3.14 C
3387 08-02-2014 04:45:00 5.8 C 83 % 3.14 C
3388 08-02-2014 04:50:00 5.8 C 83 % 3.14 C
3389 08-02-2014 04:55:00 5.8 C 83 % 3.14 C
3390 08-02-2014 05:00:00 5.9 C 83 % 3.24 C
3391 08-02-2014 05:05:00 5.9 C 82 % 3.07 C
3392 08-02-2014 05:10:00 5.9 C 83 % 3.24 C
3393 08-02-2014 05:15:00 5.9 C 82 % 3.07 C
3394 08-02-2014 05:20:00 6 C 82 % 3.17 C
3395 08-02-2014 05:25:00 6 C 83 % 3.34 C
3396 08-02-2014 05:30:00 5.9 C 83 % 3.24 C
3397 08-02-2014 05:35:00 5.9 C 83 % 3.24 C
3398 08-02-2014 05:40:00 5.9 C 83 % 3.24 C
3399 08-02-2014 05:45:00 6 C 83 % 3.34 C
3400 08-02-2014 05:50:00 5.9 C 83 % 3.24 C
Sensor: Nr:Datum:Temp:Feuchte:Taupunkt:
Aussen-T/F 3401 08-02-2014 05:55:00 5.9 C 83 % 3.24 C
3402 08-02-2014 06:00:00 5.9 C 84 % 3.41 C
3403 08-02-2014 06:05:00 5.9 C 84 % 3.41 C
3404 08-02-2014 06:10:00 5.9 C 84 % 3.41 C
3405 08-02-2014 06:15:00 5.9 C 84 % 3.41 C
3406 08-02-2014 06:20:00 5.9 C 84 % 3.41 C
3407 08-02-2014 06:25:00 5.8 C 84 % 3.31 C
3408 08-02-2014 06:30:00 6.1 C 83 % 3.44 C
3409 08-02-2014 06:35:00 6.1 C 83 % 3.44 C
3410 08-02-2014 06:40:00 6.2 C 83 % 3.53 C
3411 08-02-2014 06:45:00 6.2 C 83 % 3.53 C
3412 08-02-2014 06:50:00 6.2 C 83 % 3.53 C
3413 08-02-2014 06:55:00 6.2 C 83 % 3.53 C
3414 08-02-2014 07:00:00 6.2 C 83 % 3.53 C
3415 08-02-2014 07:05:00 6.2 C 83 % 3.53 C
3416 08-02-2014 07:10:00 6.2 C 83 % 3.53 C
3417 08-02-2014 07:15:00 6.3 C 82 % 3.46 C
3418 08-02-2014 07:20:00 6.4 C 82 % 3.56 C
3419 08-02-2014 07:25:00 6.6 C 81 % 3.58 C
3420 08-02-2014 07:30:00 6.7 C 80 % 3.5 C
3421 08-02-2014 07:35:00 6.7 C 80 % 3.5 C
3422 08-02-2014 07:40:00 6.7 C 80 % 3.5 C
3423 08-02-2014 07:45:00 6.8 C 80 % 3.6 C
3424 08-02-2014 07:50:00 6.8 C 79 % 3.42 C
3425 08-02-2014 07:55:00 6.8 C 79 % 3.42 C
Sensor: Nr:Datum:Temp:Feuchte:Taupunkt:
Aussen-T/F 3426 08-02-2014 08:00:00 6.9 C 79 % 3.52 C
3427 08-02-2014 08:05:00 6.9 C 79 % 3.52 C
3428 08-02-2014 08:10:00 6.9 C 79 % 3.52 C
3429 08-02-2014 08:15:00 7 C 79 % 3.61 C
3430 08-02-2014 08:20:00 7.1 C 78 % 3.53 C
3431 08-02-2014 08:25:00 7.3 C 77 % 3.54 C
3432 08-02-2014 08:30:00 7.3 C 76 % 3.36 C
3433 08-02-2014 08:35:00 7.4 C 76 % 3.45 C
3434 08-02-2014 08:40:00 7.4 C 76 % 3.45 C
3435 08-02-2014 08:45:00 7.4 C 76 % 3.45 C
3436 08-02-2014 08:50:00 7.4 C 76 % 3.45 C
3437 08-02-2014 08:55:00 7.4 C 76 % 3.45 C
3438 08-02-2014 09:00:00 7.6 C 75 % 3.46 C
3439 08-02-2014 09:05:00 7.6 C 75 % 3.46 C
3440 08-02-2014 09:10:00 7.7 C 75 % 3.56 C
3441 08-02-2014 09:15:00 7.7 C 75 % 3.56 C
3442 08-02-2014 09:20:00 7.7 C 75 % 3.56 C
3443 08-02-2014 09:25:00 7.8 C 74 % 3.46 C
3444 08-02-2014 09:30:00 7.8 C 74 % 3.46 C
3445 08-02-2014 09:35:00 7.8 C 73 % 3.27 C
3446 08-02-2014 09:40:00 7.9 C 73 % 3.37 C
3447 08-02-2014 09:45:00 7.9 C 73 % 3.37 C
3448 08-02-2014 09:50:00 7.9 C 74 % 3.56 C
3449 08-02-2014 09:55:00 8 C 74 % 3.66 C
3450 08-02-2014 10:00:00 8 C 74 % 3.66 C
Sensor: Nr:Datum:Temp:Feuchte:Taupunkt:
Aussen-T/F 3451 08-02-2014 10:05:00 8 C 74 % 3.66 C
3452 08-02-2014 10:10:00 8 C 74 % 3.66 C
3453 08-02-2014 10:15:00 8.1 C 74 % 3.75 C
3454 08-02-2014 10:20:00 8.2 C 73 % 3.66 C
3455 08-02-2014 10:25:00 8.2 C 73 % 3.66 C
3456 08-02-2014 10:30:00 8.3 C 73 % 3.75 C
3457 08-02-2014 10:35:00 8.3 C 72 % 3.56 C
3458 08-02-2014 10:40:00 8.4 C 73 % 3.85 C
3459 08-02-2014 10:45:00 8.5 C 72 % 3.75 C
3460 08-02-2014 10:50:00 8.6 C 72 % 3.85 C
3461 08-02-2014 10:55:00 8.7 C 71 % 3.74 C
3462 08-02-2014 11:00:00 8.8 C 73 % 4.24 C
3463 08-02-2014 11:05:00 8.9 C 71 % 3.94 C
3464 08-02-2014 11:10:00 9.1 C 70 % 3.93 C
3465 08-02-2014 11:15:00 9.2 C 71 % 4.22 C
3466 08-02-2014 11:20:00 9.2 C 71 % 4.22 C
3467 08-02-2014 11:25:00 9.3 C 70 % 4.12 C
3468 08-02-2014 11:30:00 9.4 C 69 % 4.01 C
3469 08-02-2014 11:35:00 9.4 C 69 % 4.01 C
3470 08-02-2014 11:40:00 9.4 C 68 % 3.8 C
3471 08-02-2014 11:45:00 9.4 C 69 % 4.01 C
3472 08-02-2014 11:50:00 9.4 C 68 % 3.8 C
3473 08-02-2014 11:55:00 9.5 C 68 % 3.9 C
3474 08-02-2014 12:00:00 9.5 C 68 % 3.9 C
3475 08-02-2014 12:05:00 9.6 C 70 % 4.41 C
Sensor: Nr:Datum:Temp:Feuchte:Taupunkt:
Aussen-T/F 3476 08-02-2014 12:10:00 9.6 C 69 % 4.2 C
3477 08-02-2014 12:15:00 9.7 C 68 % 4.09 C
3478 08-02-2014 12:20:00 9.8 C 69 % 4.39 C
3479 08-02-2014 12:25:00 9.8 C 71 % 4.8 C
3480 08-02-2014 12:30:00 9.8 C 73 % 5.2 C
3481 08-02-2014 12:35:00 9.8 C 72 % 5 C
3482 08-02-2014 12:40:00 9.6 C 73 % 5.01 C
3483 08-02-2014 12:45:00 9.4 C 74 % 5.01 C
3484 08-02-2014 12:50:00 9.3 C 76 % 5.29 C
3485 08-02-2014 12:55:00 9.2 C 76 % 5.2 C
3486 08-02-2014 13:00:00 9 C 78 % 5.38 C
3487 08-02-2014 13:05:00 8.8 C 78 % 5.18 C
3488 08-02-2014 13:10:00 8.7 C 80 % 5.45 C
3489 08-02-2014 13:15:00 8.7 C 81 % 5.63 C
3490 08-02-2014 13:20:00 8.7 C 81 % 5.63 C
3491 08-02-2014 13:25:00 8.7 C 79 % 5.27 C
3492 08-02-2014 13:30:00 8.7 C 79 % 5.27 C
3493 08-02-2014 13:35:00 8.7 C 81 % 5.63 C
3494 08-02-2014 13:40:00 8.8 C 79 % 5.36 C
3495 08-02-2014 13:45:00 8.9 C 79 % 5.46 C
3496 08-02-2014 13:50:00 8.9 C 79 % 5.46 C
3497 08-02-2014 13:55:00 8.9 C 79 % 5.46 C
3498 08-02-2014 14:00:00 8.8 C 79 % 5.36 C
3499 08-02-2014 14:05:00 8.8 C 80 % 5.55 C
3500 08-02-2014 14:10:00 8.8 C 80 % 5.55 C
Sensor: Nr:Datum:Temp:Feuchte:Taupunkt:
Aussen-T/F 3501 08-02-2014 14:15:00 8.7 C 79 % 5.27 C
3502 08-02-2014 14:20:00 8.7 C 80 % 5.45 C
3503 08-02-2014 14:25:00 8.6 C 81 % 5.53 C
3504 08-02-2014 14:30:00 8.4 C 82 % 5.51 C
3505 08-02-2014 14:35:00 8.3 C 82 % 5.41 C
3506 08-02-2014 14:40:00 8.2 C 83 % 5.49 C
3507 08-02-2014 14:45:00 8.2 C 84 % 5.66 C
3508 08-02-2014 14:50:00 8.1 C 84 % 5.56 C
3509 08-02-2014 14:55:00 8 C 85 % 5.64 C
3510 08-02-2014 15:00:00 7.9 C 85 % 5.54 C
3511 08-02-2014 15:05:00 7.8 C 86 % 5.61 C
3512 08-02-2014 15:10:00 7.8 C 86 % 5.61 C
3513 08-02-2014 15:15:00 7.8 C 87 % 5.78 C
3514 08-02-2014 15:20:00 7.7 C 86 % 5.51 C
3515 08-02-2014 15:25:00 7.7 C 86 % 5.51 C
3516 08-02-2014 15:30:00 7.7 C 87 % 5.68 C
3517 08-02-2014 15:35:00 7.7 C 87 % 5.68 C
3518 08-02-2014 15:40:00 7.7 C 87 % 5.68 C
3519 08-02-2014 15:45:00 7.6 C 88 % 5.74 C
3520 08-02-2014 15:50:00 7.6 C 89 % 5.91 C
3521 08-02-2014 15:55:00 7.6 C 88 % 5.74 C
3522 08-02-2014 16:00:00 7.6 C 89 % 5.91 C
3523 08-02-2014 16:05:00 7.4 C 89 % 5.71 C
3524 08-02-2014 16:10:00 7.4 C 90 % 5.87 C
3525 08-02-2014 16:15:00 7.3 C 89 % 5.61 C
Sensor: Nr:Datum:Temp:Feuchte:Taupunkt:
Aussen-T/F 3526 08-02-2014 16:20:00 7.3 C 90 % 5.77 C
3527 08-02-2014 16:25:00 7.2 C 91 % 5.83 C
3528 08-02-2014 16:30:00 7.1 C 91 % 5.73 C
3529 08-02-2014 16:35:00 7.1 C 92 % 5.89 C
3530 08-02-2014 16:40:00 7 C 92 % 5.79 C
3531 08-02-2014 16:45:00 6.9 C 92 % 5.69 C
3532 08-02-2014 16:50:00 6.9 C 92 % 5.69 C
3533 08-02-2014 16:55:00 6.8 C 91 % 5.44 C
3534 08-02-2014 17:00:00 6.8 C 92 % 5.59 C
3535 08-02-2014 17:05:00 6.8 C 92 % 5.59 C
3536 08-02-2014 17:10:00 6.7 C 92 % 5.49 C
3537 08-02-2014 17:15:00 6.7 C 92 % 5.49 C
3538 08-02-2014 17:20:00 6.6 C 92 % 5.4 C
3539 08-02-2014 17:25:00 6.5 C 92 % 5.3 C
3540 08-02-2014 17:30:00 6.4 C 93 % 5.35 C
3541 08-02-2014 17:35:00 6.3 C 92 % 5.1 C
3542 08-02-2014 17:40:00 6.3 C 92 % 5.1 C
3543 08-02-2014 17:45:00 6.3 C 92 % 5.1 C
3544 08-02-2014 17:50:00 6.2 C 93 % 5.15 C
3545 08-02-2014 17:55:00 6.1 C 93 % 5.06 C
3546 08-02-2014 18:00:00 6 C 94 % 5.11 C
3547 08-02-2014 18:05:00 5.9 C 94 % 5.01 C
3548 08-02-2014 18:10:00 5.9 C 94 % 5.01 C
3549 08-02-2014 18:15:00 5.9 C 94 % 5.01 C
3550 08-02-2014 18:20:00 5.9 C 94 % 5.01 C
Sensor: Nr:Datum:Temp:Feuchte:Taupunkt:
Aussen-T/F 3551 08-02-2014 18:25:00 5.9 C 94 % 5.01 C
3552 08-02-2014 18:30:00 6 C 94 % 5.11 C
3553 08-02-2014 18:35:00 6 C 94 % 5.11 C
3554 08-02-2014 18:40:00 6.1 C 93 % 5.06 C
3555 08-02-2014 18:45:00 6.3 C 92 % 5.1 C
3556 08-02-2014 18:50:00 6.3 C 91 % 4.94 C
3557 08-02-2014 18:55:00 6.4 C 91 % 5.04 C
3558 08-02-2014 19:00:00 6.6 C 90 % 5.08 C
3559 08-02-2014 19:05:00 6.7 C 89 % 5.02 C
3560 08-02-2014 19:10:00 6.8 C 89 % 5.12 C
3561 08-02-2014 19:15:00 6.8 C 89 % 5.12 C
3562 08-02-2014 19:20:00 6.8 C 89 % 5.12 C
3563 08-02-2014 19:25:00 6.8 C 89 % 5.12 C
3564 08-02-2014 19:30:00 6.8 C 89 % 5.12 C
3565 08-02-2014 19:35:00 6.8 C 90 % 5.28 C
3566 08-02-2014 19:40:00 6.8 C 90 % 5.28 C
3567 08-02-2014 19:45:00 6.8 C 90 % 5.28 C
3568 08-02-2014 19:50:00 6.8 C 90 % 5.28 C
3569 08-02-2014 19:55:00 6.9 C 89 % 5.22 C
3570 08-02-2014 20:00:00 6.9 C 89 % 5.22 C
3571 08-02-2014 20:05:00 7 C 89 % 5.31 C
3572 08-02-2014 20:10:00 7.1 C 88 % 5.25 C
3573 08-02-2014 20:15:00 7.1 C 88 % 5.25 C
3574 08-02-2014 20:20:00 7.1 C 88 % 5.25 C
3575 08-02-2014 20:25:00 7.1 C 88 % 5.25 C
Sensor: Nr:Datum:Temp:Feuchte:Taupunkt:
Aussen-T/F 3576 08-02-2014 20:30:00 7.1 C 87 % 5.09 C
3577 08-02-2014 20:35:00 7.2 C 87 % 5.19 C
3578 08-02-2014 20:40:00 7.2 C 86 % 5.02 C
3579 08-02-2014 20:45:00 7.2 C 87 % 5.19 C
3580 08-02-2014 20:50:00 7.1 C 86 % 4.92 C
3581 08-02-2014 20:55:00 7.1 C 86 % 4.92 C
3582 08-02-2014 21:00:00 7.1 C 86 % 4.92 C
3583 08-02-2014 21:05:00 7.1 C 85 % 4.75 C
3584 08-02-2014 21:10:00 7.1 C 85 % 4.75 C
3585 08-02-2014 21:15:00 7.2 C 84 % 4.68 C
3586 08-02-2014 21:20:00 7.2 C 84 % 4.68 C
3587 08-02-2014 21:25:00 7.2 C 84 % 4.68 C
3588 08-02-2014 21:30:00 7.2 C 83 % 4.51 C
3589 08-02-2014 21:35:00 7.2 C 82 % 4.34 C
3590 08-02-2014 21:40:00 7.2 C 82 % 4.34 C
3591 08-02-2014 21:45:00 7.1 C 81 % 4.07 C
3592 08-02-2014 21:50:00 7.1 C 83 % 4.41 C
3593 08-02-2014 21:55:00 6.8 C 83 % 4.12 C
3594 08-02-2014 22:00:00 6.8 C 84 % 4.29 C
3595 08-02-2014 22:05:00 6.8 C 83 % 4.12 C
3596 08-02-2014 22:10:00 6.8 C 83 % 4.12 C
3597 08-02-2014 22:15:00 6.8 C 83 % 4.12 C
3598 08-02-2014 22:20:00 6.7 C 83 % 4.02 C
3599 08-02-2014 22:25:00 6.7 C 84 % 4.19 C
3600 08-02-2014 22:30:00 6.8 C 82 % 3.95 C
Sensor: Nr:Datum:Temp:Feuchte:Taupunkt:
Aussen-T/F 3601 08-02-2014 22:35:00 7.1 C 81 % 4.07 C
3602 08-02-2014 22:40:00 7.2 C 80 % 3.99 C
3603 08-02-2014 22:45:00 7.4 C 79 % 4 C
3604 08-02-2014 22:50:00 7.5 C 79 % 4.1 C
3605 08-02-2014 22:55:00 7.6 C 79 % 4.2 C
3606 08-02-2014 23:00:00 7.6 C 78 % 4.02 C
3607 08-02-2014 23:05:00 7.4 C 78 % 3.82 C
3608 08-02-2014 23:10:00 7.2 C 78 % 3.63 C
3609 08-02-2014 23:15:00 7 C 79 % 3.61 C
3610 08-02-2014 23:20:00 6.9 C 79 % 3.52 C
3611 08-02-2014 23:25:00 6.9 C 79 % 3.52 C
3612 08-02-2014 23:30:00 6.8 C 79 % 3.42 C
3613 08-02-2014 23:35:00 6.8 C 78 % 3.24 C
3614 08-02-2014 23:40:00 6.8 C 78 % 3.24 C
3615 08-02-2014 23:45:00 6.9 C 78 % 3.34 C
3616 08-02-2014 23:50:00 6.8 C 78 % 3.24 C
3617 08-02-2014 23:55:00 6.7 C 78 % 3.14 C
3618 09-02-2014 00:00:00 6.7 C 78 % 3.14 C
3619 09-02-2014 00:05:00 6.7 C 78 % 3.14 C
3620 09-02-2014 00:10:00 6.7 C 78 % 3.14 C
3621 09-02-2014 00:15:00 6.8 C 77 % 3.06 C
3622 09-02-2014 00:20:00 7 C 76 % 3.07 C
3623 09-02-2014 00:25:00 7.2 C 77 % 3.45 C
3624 09-02-2014 00:30:00 6.8 C 81 % 3.77 C
3625 09-02-2014 00:35:00 6.3 C 83 % 3.63 C
Sensor: Nr:Datum:Temp:Feuchte:Taupunkt:
Aussen-T/F 3626 09-02-2014 00:40:00 5.9 C 84 % 3.41 C
3627 09-02-2014 00:45:00 5.6 C 85 % 3.28 C
3628 09-02-2014 00:50:00 5.4 C 86 % 3.25 C
3629 09-02-2014 00:55:00 5.2 C 87 % 3.22 C
3630 09-02-2014 01:00:00 4.9 C 87 % 2.92 C
3631 09-02-2014 01:05:00 4.8 C 88 % 2.99 C
3632 09-02-2014 01:10:00 4.8 C 88 % 2.99 C
3633 09-02-2014 01:15:00 4.7 C 88 % 2.89 C
3634 09-02-2014 01:20:00 4.6 C 88 % 2.79 C
3635 09-02-2014 01:25:00 4.6 C 89 % 2.95 C
3636 09-02-2014 01:30:00 4.5 C 89 % 2.85 C
3637 09-02-2014 01:35:00 4.4 C 89 % 2.75 C
3638 09-02-2014 01:40:00 4.2 C 90 % 2.71 C
3639 09-02-2014 01:45:00 4.1 C 90 % 2.61 C
3640 09-02-2014 01:50:00 3.9 C 90 % 2.41 C
3641 09-02-2014 01:55:00 3.8 C 91 % 2.47 C
3642 09-02-2014 02:00:00 3.9 C 91 % 2.57 C
3643 09-02-2014 02:05:00 4 C 90 % 2.51 C
3644 09-02-2014 02:10:00 4 C 90 % 2.51 C
3645 09-02-2014 02:15:00 4.1 C 89 % 2.45 C
3646 09-02-2014 02:20:00 4.2 C 89 % 2.55 C
3647 09-02-2014 02:25:00 4.3 C 88 % 2.49 C
3648 09-02-2014 02:30:00 4.4 C 88 % 2.59 C
3649 09-02-2014 02:35:00 4.5 C 88 % 2.69 C
3650 09-02-2014 02:40:00 4.7 C 87 % 2.73 C
Sensor: Nr:Datum:Temp:Feuchte:Taupunkt:
Aussen-T/F 3651 09-02-2014 02:45:00 4.8 C 86 % 2.66 C
3652 09-02-2014 02:50:00 5.1 C 84 % 2.63 C
3653 09-02-2014 02:55:00 5.3 C 83 % 2.65 C
3654 09-02-2014 03:00:00 5.4 C 83 % 2.75 C
3655 09-02-2014 03:05:00 5.6 C 82 % 2.78 C
3656 09-02-2014 03:10:00 5.6 C 82 % 2.78 C
3657 09-02-2014 03:15:00 5.7 C 81 % 2.7 C
3658 09-02-2014 03:20:00 5.8 C 81 % 2.8 C
3659 09-02-2014 03:25:00 5.8 C 81 % 2.8 C
3660 09-02-2014 03:30:00 5.9 C 81 % 2.9 C
3661 09-02-2014 03:35:00 5.9 C 81 % 2.9 C
3662 09-02-2014 03:40:00 5.8 C 81 % 2.8 C
3663 09-02-2014 03:45:00 5.9 C 80 % 2.72 C
3664 09-02-2014 03:50:00 5.8 C 81 % 2.8 C
3665 09-02-2014 03:55:00 5.8 C 81 % 2.8 C
3666 09-02-2014 04:00:00 5.7 C 81 % 2.7 C
3667 09-02-2014 04:05:00 5.7 C 82 % 2.87 C
3668 09-02-2014 04:10:00 5.8 C 81 % 2.8 C
3669 09-02-2014 04:15:00 5.9 C 81 % 2.9 C
3670 09-02-2014 04:20:00 5.9 C 81 % 2.9 C
3671 09-02-2014 04:25:00 5.8 C 82 % 2.97 C
3672 09-02-2014 04:30:00 5.8 C 82 % 2.97 C
3673 09-02-2014 04:35:00 5.7 C 82 % 2.87 C
3674 09-02-2014 04:40:00 5.8 C 81 % 2.8 C
3675 09-02-2014 04:45:00 5.8 C 82 % 2.97 C
Sensor: Nr:Datum:Temp:Feuchte:Taupunkt:
Aussen-T/F 3676 09-02-2014 04:50:00 5.8 C 82 % 2.97 C
3677 09-02-2014 04:55:00 5.8 C 82 % 2.97 C
3678 09-02-2014 05:00:00 5.8 C 82 % 2.97 C
3679 09-02-2014 05:05:00 5.8 C 82 % 2.97 C
3680 09-02-2014 05:10:00 5.8 C 82 % 2.97 C
3681 09-02-2014 05:15:00 5.9 C 82 % 3.07 C
3682 09-02-2014 05:20:00 6 C 81 % 2.99 C
3683 09-02-2014 05:25:00 6 C 82 % 3.17 C
3684 09-02-2014 05:30:00 6 C 81 % 2.99 C
3685 09-02-2014 05:35:00 6 C 81 % 2.99 C
3686 09-02-2014 05:40:00 5.9 C 81 % 2.9 C
3687 09-02-2014 05:45:00 5.9 C 81 % 2.9 C
3688 09-02-2014 05:50:00 5.9 C 81 % 2.9 C
3689 09-02-2014 05:55:00 6 C 81 % 2.99 C
3690 09-02-2014 06:00:00 6 C 81 % 2.99 C
3691 09-02-2014 06:05:00 5.9 C 81 % 2.9 C
3692 09-02-2014 06:10:00 5.9 C 82 % 3.07 C
3693 09-02-2014 06:15:00 5.8 C 82 % 2.97 C
3694 09-02-2014 06:20:00 5.7 C 83 % 3.04 C
3695 09-02-2014 06:25:00 5.7 C 83 % 3.04 C
3696 09-02-2014 06:30:00 5.7 C 82 % 2.87 C
3697 09-02-2014 06:35:00 5.7 C 83 % 3.04 C
3698 09-02-2014 06:40:00 5.6 C 83 % 2.95 C
3699 09-02-2014 06:45:00 5.4 C 83 % 2.75 C
3700 09-02-2014 06:50:00 5.4 C 83 % 2.75 C
Sensor: Nr:Datum:Temp:Feuchte:Taupunkt:
Aussen-T/F 3701 09-02-2014 06:55:00 5.4 C 83 % 2.75 C
3702 09-02-2014 07:00:00 5.4 C 83 % 2.75 C
3703 09-02-2014 07:05:00 5.6 C 83 % 2.95 C
3704 09-02-2014 07:10:00 5.6 C 83 % 2.95 C
3705 09-02-2014 07:15:00 5.7 C 83 % 3.04 C
3706 09-02-2014 07:20:00 5.7 C 83 % 3.04 C
3707 09-02-2014 07:25:00 5.7 C 81 % 2.7 C
3708 09-02-2014 07:30:00 5.7 C 81 % 2.7 C
3709 09-02-2014 07:35:00 5.7 C 81 % 2.7 C
3710 09-02-2014 07:40:00 5.7 C 81 % 2.7 C
3711 09-02-2014 07:45:00 5.7 C 81 % 2.7 C
3712 09-02-2014 07:50:00 5.7 C 81 % 2.7 C
3713 09-02-2014 07:55:00 5.6 C 81 % 2.6 C
3714 09-02-2014 08:00:00 5.6 C 82 % 2.78 C
3715 09-02-2014 08:05:00 5.6 C 82 % 2.78 C
3716 09-02-2014 08:10:00 5.6 C 81 % 2.6 C
3717 09-02-2014 08:15:00 5.7 C 81 % 2.7 C
3718 09-02-2014 08:20:00 5.7 C 81 % 2.7 C
3719 09-02-2014 08:25:00 5.8 C 81 % 2.8 C
3720 09-02-2014 08:30:00 5.8 C 82 % 2.97 C
3721 09-02-2014 08:35:00 5.8 C 81 % 2.8 C
3722 09-02-2014 08:40:00 5.7 C 81 % 2.7 C
3723 09-02-2014 08:45:00 5.8 C 81 % 2.8 C
3724 09-02-2014 08:50:00 5.8 C 80 % 2.62 C
3725 09-02-2014 08:55:00 5.8 C 80 % 2.62 C
Sensor: Nr:Datum:Temp:Feuchte:Taupunkt:
Aussen-T/F 3726 09-02-2014 09:00:00 5.8 C 80 % 2.62 C
3727 09-02-2014 09:05:00 5.8 C 80 % 2.62 C
3728 09-02-2014 09:10:00 5.9 C 79 % 2.54 C
3729 09-02-2014 09:15:00 5.9 C 79 % 2.54 C
3730 09-02-2014 09:20:00 6 C 79 % 2.64 C
3731 09-02-2014 09:25:00 6 C 79 % 2.64 C
3732 09-02-2014 09:30:00 5.9 C 80 % 2.72 C
3733 09-02-2014 09:35:00 5.9 C 81 % 2.9 C
3734 09-02-2014 09:40:00 5.9 C 81 % 2.9 C
3735 09-02-2014 09:45:00 5.9 C 81 % 2.9 C
3736 09-02-2014 09:50:00 5.9 C 82 % 3.07 C
3737 09-02-2014 09:55:00 5.9 C 81 % 2.9 C
3738 09-02-2014 10:00:00 5.8 C 81 % 2.8 C
3739 09-02-2014 10:05:00 5.8 C 80 % 2.62 C
3740 09-02-2014 10:10:00 5.9 C 80 % 2.72 C
3741 09-02-2014 10:15:00 6 C 80 % 2.82 C
3742 09-02-2014 10:20:00 6.2 C 79 % 2.84 C
3743 09-02-2014 10:25:00 6.3 C 78 % 2.75 C
3744 09-02-2014 10:30:00 6.4 C 78 % 2.85 C
3745 09-02-2014 10:35:00 6.6 C 76 % 2.68 C
3746 09-02-2014 10:40:00 6.7 C 76 % 2.78 C
3747 09-02-2014 10:45:00 6.7 C 76 % 2.78 C
3748 09-02-2014 10:50:00 6.7 C 77 % 2.96 C
3749 09-02-2014 10:55:00 6.6 C 77 % 2.86 C
3750 09-02-2014 11:00:00 6.4 C 77 % 2.67 C
Sensor: Nr:Datum:Temp:Feuchte:Taupunkt:
Aussen-T/F 3751 09-02-2014 11:05:00 6.4 C 77 % 2.67 C
3752 09-02-2014 11:10:00 6.6 C 78 % 3.05 C
3753 09-02-2014 11:15:00 6.6 C 78 % 3.05 C
3754 09-02-2014 11:20:00 6.5 C 78 % 2.95 C
3755 09-02-2014 11:25:00 6.6 C 79 % 3.23 C
3756 09-02-2014 11:30:00 6.6 C 78 % 3.05 C
3757 09-02-2014 11:35:00 6.6 C 78 % 3.05 C
3758 09-02-2014 11:40:00 6.6 C 78 % 3.05 C
3759 09-02-2014 11:45:00 6.5 C 76 % 2.58 C
3760 09-02-2014 11:50:00 6.7 C 76 % 2.78 C
3761 09-02-2014 11:55:00 6.8 C 76 % 2.87 C
3762 09-02-2014 12:00:00 6.9 C 75 % 2.78 C
3763 09-02-2014 12:05:00 6.9 C 74 % 2.6 C
3764 09-02-2014 12:10:00 7 C 74 % 2.69 C
3765 09-02-2014 12:15:00 7.1 C 75 % 2.98 C
3766 09-02-2014 12:20:00 7 C 74 % 2.69 C
3767 09-02-2014 12:25:00 6.9 C 75 % 2.78 C
3768 09-02-2014 12:30:00 6.9 C 74 % 2.6 C
3769 09-02-2014 12:35:00 7.1 C 73 % 2.6 C
3770 09-02-2014 12:40:00 7.3 C 72 % 2.6 C
3771 09-02-2014 12:45:00 7.5 C 71 % 2.59 C
3772 09-02-2014 12:50:00 7.6 C 69 % 2.29 C
3773 09-02-2014 12:55:00 7.7 C 68 % 2.18 C
3774 09-02-2014 13:00:00 7.7 C 69 % 2.38 C
3775 09-02-2014 13:05:00 7.7 C 70 % 2.58 C
Sensor: Nr:Datum:Temp:Feuchte:Taupunkt:
Aussen-T/F 3776 09-02-2014 13:10:00 7.7 C 69 % 2.38 C
3777 09-02-2014 13:15:00 7.8 C 69 % 2.48 C
3778 09-02-2014 13:20:00 7.8 C 68 % 2.27 C
3779 09-02-2014 13:25:00 7.9 C 66 % 1.95 C
3780 09-02-2014 13:30:00 7.8 C 66 % 1.86 C
3781 09-02-2014 13:35:00 7.8 C 67 % 2.07 C
3782 09-02-2014 13:40:00 7.8 C 67 % 2.07 C
3783 09-02-2014 13:45:00 7.7 C 69 % 2.38 C
3784 09-02-2014 13:50:00 7.5 C 70 % 2.39 C
3785 09-02-2014 13:55:00 7.5 C 70 % 2.39 C
3786 09-02-2014 14:00:00 7.5 C 70 % 2.39 C
3787 09-02-2014 14:05:00 7.3 C 71 % 2.4 C
3788 09-02-2014 14:10:00 6.9 C 74 % 2.6 C
3789 09-02-2014 14:15:00 6.8 C 75 % 2.69 C
3790 09-02-2014 14:20:00 6.8 C 75 % 2.69 C
3791 09-02-2014 14:25:00 6.8 C 76 % 2.87 C
3792 09-02-2014 14:30:00 6.8 C 76 % 2.87 C
3793 09-02-2014 14:35:00 6.8 C 78 % 3.24 C
3794 09-02-2014 14:40:00 6.7 C 79 % 3.32 C
3795 09-02-2014 14:45:00 6.7 C 77 % 2.96 C
3796 09-02-2014 14:50:00 6.7 C 78 % 3.14 C
3797 09-02-2014 14:55:00 6.7 C 77 % 2.96 C
3798 09-02-2014 15:00:00 6.8 C 75 % 2.69 C
3799 09-02-2014 15:05:00 6.9 C 73 % 2.4 C
3800 09-02-2014 15:10:00 7 C 72 % 2.31 C
Sensor: Nr:Datum:Temp:Feuchte:Taupunkt:
Aussen-T/F 3801 09-02-2014 15:15:00 7.3 C 71 % 2.4 C
3802 09-02-2014 15:20:00 7.6 C 69 % 2.29 C
3803 09-02-2014 15:25:00 7.7 C 67 % 1.97 C
3804 09-02-2014 15:30:00 7.7 C 68 % 2.18 C
3805 09-02-2014 15:35:00 7.7 C 68 % 2.18 C
3806 09-02-2014 15:40:00 7.6 C 69 % 2.29 C
3807 09-02-2014 15:45:00 7.4 C 69 % 2.1 C
3808 09-02-2014 15:50:00 7.1 C 70 % 2.01 C
3809 09-02-2014 15:55:00 7 C 71 % 2.11 C
3810 09-02-2014 16:00:00 6.9 C 71 % 2.02 C
3811 09-02-2014 16:05:00 6.9 C 71 % 2.02 C
3812 09-02-2014 16:10:00 6.9 C 70 % 1.82 C
3813 09-02-2014 16:15:00 6.9 C 71 % 2.02 C
3814 09-02-2014 16:20:00 6.9 C 70 % 1.82 C
3815 09-02-2014 16:25:00 6.8 C 71 % 1.92 C
3816 09-02-2014 16:30:00 6.8 C 71 % 1.92 C
3817 09-02-2014 16:35:00 6.8 C 71 % 1.92 C
3818 09-02-2014 16:40:00 6.7 C 71 % 1.82 C
3819 09-02-2014 16:45:00 6.7 C 71 % 1.82 C
3820 09-02-2014 16:50:00 6.7 C 72 % 2.02 C
3821 09-02-2014 16:55:00 6.7 C 71 % 1.82 C
3822 09-02-2014 17:00:00 6.7 C 70 % 1.63 C
3823 09-02-2014 17:05:00 6.7 C 70 % 1.63 C
3824 09-02-2014 17:10:00 6.5 C 71 % 1.63 C
3825 09-02-2014 17:15:00 6.4 C 72 % 1.73 C
Sensor: Nr:Datum:Temp:Feuchte:Taupunkt:
Aussen-T/F 3826 09-02-2014 17:20:00 6.4 C 71 % 1.54 C
3827 09-02-2014 17:25:00 6.4 C 71 % 1.54 C
3828 09-02-2014 17:30:00 6.4 C 72 % 1.73 C
3829 09-02-2014 17:35:00 6.3 C 73 % 1.83 C
3830 09-02-2014 17:40:00 6.1 C 74 % 1.82 C
3831 09-02-2014 17:45:00 5.8 C 74 % 1.53 C
3832 09-02-2014 17:50:00 5.7 C 74 % 1.44 C
3833 09-02-2014 17:55:00 5.7 C 74 % 1.44 C
3834 09-02-2014 18:00:00 5.6 C 75 % 1.53 C
3835 09-02-2014 18:05:00 5.2 C 77 % 1.51 C
3836 09-02-2014 18:10:00 4.7 C 79 % 1.38 C
3837 09-02-2014 18:15:00 4.4 C 80 % 1.26 C
3838 09-02-2014 18:20:00 4.3 C 81 % 1.34 C
3839 09-02-2014 18:25:00 4.1 C 82 % 1.31 C
3840 09-02-2014 18:30:00 3.9 C 83 % 1.28 C
3841 09-02-2014 18:35:00 3.8 C 83 % 1.19 C
3842 09-02-2014 18:40:00 3.6 C 84 % 1.16 C
3843 09-02-2014 18:45:00 3.4 C 85 % 1.12 C
3844 09-02-2014 18:50:00 3.4 C 86 % 1.29 C
3845 09-02-2014 18:55:00 3.6 C 86 % 1.48 C
3846 09-02-2014 19:00:00 3.9 C 86 % 1.78 C
3847 09-02-2014 19:05:00 3.9 C 86 % 1.78 C
3848 09-02-2014 19:10:00 3.9 C 85 % 1.61 C
3849 09-02-2014 19:15:00 3.9 C 85 % 1.61 C
3850 09-02-2014 19:20:00 4 C 85 % 1.71 C
Sensor: Nr:Datum:Temp:Feuchte:Taupunkt:
Aussen-T/F 3851 09-02-2014 19:25:00 4.1 C 84 % 1.65 C
3852 09-02-2014 19:30:00 4.2 C 83 % 1.58 C
3853 09-02-2014 19:35:00 4.1 C 84 % 1.65 C
3854 09-02-2014 19:40:00 3.7 C 85 % 1.42 C
3855 09-02-2014 19:45:00 3.6 C 85 % 1.32 C
3856 09-02-2014 19:50:00 3.5 C 86 % 1.38 C
3857 09-02-2014 19:55:00 3.3 C 87 % 1.35 C
3858 09-02-2014 20:00:00 3.2 C 87 % 1.25 C
3859 09-02-2014 20:05:00 3.2 C 87 % 1.25 C
3860 09-02-2014 20:10:00 3.1 C 87 % 1.15 C
3861 09-02-2014 20:15:00 2.8 C 88 % 1.02 C
3862 09-02-2014 20:20:00 2.7 C 88 % 0.92 C
3863 09-02-2014 20:25:00 2.6 C 89 % 0.97 C
3864 09-02-2014 20:30:00 2.5 C 89 % 0.88 C
3865 09-02-2014 20:35:00 2.6 C 89 % 0.97 C
3866 09-02-2014 20:40:00 2.6 C 89 % 0.97 C
3867 09-02-2014 20:45:00 2.6 C 90 % 1.13 C
3868 09-02-2014 20:50:00 2.7 C 90 % 1.23 C
3869 09-02-2014 20:55:00 2.7 C 89 % 1.07 C
3870 09-02-2014 21:00:00 2.7 C 89 % 1.07 C
3871 09-02-2014 21:05:00 2.7 C 89 % 1.07 C
3872 09-02-2014 21:10:00 2.7 C 90 % 1.23 C
3873 09-02-2014 21:15:00 2.7 C 90 % 1.23 C
3874 09-02-2014 21:20:00 2.7 C 90 % 1.23 C
3875 09-02-2014 21:25:00 2.7 C 90 % 1.23 C
Sensor: Nr:Datum:Temp:Feuchte:Taupunkt:
Aussen-T/F 3876 09-02-2014 21:30:00 2.7 C 90 % 1.23 C
3877 09-02-2014 21:35:00 2.7 C 90 % 1.23 C
3878 09-02-2014 21:40:00 2.7 C 90 % 1.23 C
3879 09-02-2014 21:45:00 2.7 C 90 % 1.23 C
3880 09-02-2014 21:50:00 2.7 C 90 % 1.23 C
3881 09-02-2014 21:55:00 2.7 C 91 % 1.38 C
3882 09-02-2014 22:00:00 2.7 C 90 % 1.23 C
3883 09-02-2014 22:05:00 2.5 C 90 % 1.03 C
3884 09-02-2014 22:10:00 2.4 C 91 % 1.08 C
3885 09-02-2014 22:15:00 2.4 C 91 % 1.08 C
3886 09-02-2014 22:20:00 2.3 C 92 % 1.14 C
3887 09-02-2014 22:25:00 2.3 C 92 % 1.14 C
3888 09-02-2014 22:30:00 2.3 C 92 % 1.14 C
3889 09-02-2014 22:35:00 2.2 C 92 % 1.04 C
3890 09-02-2014 22:40:00 2.2 C 92 % 1.04 C
3891 09-02-2014 22:45:00 2.2 C 92 % 1.04 C
3892 09-02-2014 22:50:00 2.2 C 92 % 1.04 C
3893 09-02-2014 22:55:00 2.2 C 92 % 1.04 C
3894 09-02-2014 23:00:00 2 C 92 % 0.84 C
3895 09-02-2014 23:05:00 1.9 C 92 % 0.74 C
3896 09-02-2014 23:10:00 1.9 C 93 % 0.89 C
3897 09-02-2014 23:15:00 1.9 C 93 % 0.89 C
3898 09-02-2014 23:20:00 1.8 C 93 % 0.79 C
3899 09-02-2014 23:25:00 1.8 C 93 % 0.79 C
3900 09-02-2014 23:30:00 1.7 C 93 % 0.69 C
Sensor: Nr:Datum:Temp:Feuchte: